[[{"header":{"parameterUnit":"m.s-1","parameterCategory":1,"la1":30.6,"la2":29.2853,"lo1":-89.7004,"lo2":-87.6739,"dy":0.0162,"dx":0.0183,"nx":112,"ny":82,"refTime":"2025-05-24T06:00:00:Z","depth":0,"parameterNumber":2,"parameterNumberName":"U-component_of_WINDS"},"data":[0.0,0.0,0.0,0.0,0.0,0.0,0.0,0.0,0.0,0.0,0.0,0.0,0.0,0.0,0.0,0.0,0.0,0.0,0.0,0.0,0.0,0.0,0.0,0.0,0.0,0.0,0.0,0.0,0.0,0.0,0.0,0.0,0.0,0.0,0.0,0.0,0.0,0.0,0.0,0.0,0.0,0.0,0.0,0.0,0.0,0.0,0.0,0.0,0.0,0.0,0.0,0.0,0.0,0.0,0.0,0.0,0.0,0.0,0.0,0.0,0.0,0.0,0.0,0.0,0.0,0.0,0.0,0.0,0.0,0.0,0.0,0.0,0.0,0.0,0.0,0.0,0.0,0.0,0.0,0.0,0.0,0.0,0.0,0.0,0.0,0.0,0.0,0.0,0.0,0.0,-1.6175,-1.7202,-1.8926,-1.9949,-1.9813,-1.9437,-1.817,-1.5754,0.0,0.0,0.0,0.0,0.0,0.0,0.0,0.0,0.0,0.0,0.0,0.0,0.0,0.0,0.0,0.0,0.0,0.0,0.0,0.0,0.0,0.0,0.0,0.0,0.0,0.0,0.0,0.0,0.0,0.0,0.0,0.0,0.0,0.0,0.0,0.0,0.0,0.0,0.0,0.0,0.0,0.0,0.0,0.0,0.0,0.0,0.0,0.0,0.0,0.0,0.0,0.0,0.0,0.0,0.0,0.0,0.0,0.0,0.0,0.0,0.0,0.0,0.0,0.0,0.0,0.0,0.0,0.0,0.0,0.0,0.0,0.0,0.0,0.0,0.0,0.0,0.0,0.0,0.0,0.0,0.0,0.0,0.0,0.0,0.0,0.0,0.0,0.0,0.0,0.0,0.0,0.0,0.0,0.0,0.0,0.0,0.0,0.0,0.0,0.0,0.0,0.0,0.0,0.0,-1.6778,-1.8515,-1.9474,-1.9949,-1.9813,-1.9437,-1.817,-1.5754,0.0,0.0,0.0,0.0,0.0,0.0,0.0,0.0,0.0,0.0,0.0,0.0,0.0,0.0,0.0,0.0,0.0,0.0,0.0,0.0,0.0,0.0,0.0,0.0,0.0,0.0,0.0,0.0,0.0,0.0,0.0,0.0,0.0,0.0,0.0,0.0,0.0,0.0,0.0,0.0,0.0,0.0,0.0,0.0,0.0,0.0,0.0,0.0,0.0,0.0,0.0,0.0,0.0,0.0,0.0,0.0,0.0,0.0,0.0,0.0,0.0,0.0,0.0,0.0,0.0,0.0,0.0,0.0,0.0,0.0,0.0,0.0,0.0,0.0,0.0,0.0,0.0,0.0,0.0,0.0,0.0,0.0,0.0,0.0,0.0,0.0,0.0,0.0,0.0,0.0,0.0,0.0,0.0,0.0,0.0,0.0,0.0,0.0,0.0,0.0,0.0,0.0,0.0,-1.7073,-1.795,-1.9675,-2.0343,-2.042,-1.9854,-1.9437,-1.817,-1.5754,-1.5108,0.0,0.0,0.0,0.0,0.0,0.0,0.0,0.0,0.0,0.0,0.0,0.0,0.0,0.0,0.0,0.0,0.0,0.0,0.0,0.0,0.0,0.0,0.0,0.0,0.0,0.0,0.0,0.0,0.0,0.0,0.0,0.0,0.0,0.0,0.0,0.0,0.0,0.0,0.0,0.0,0.0,0.0,0.0,0.0,0.0,0.0,0.0,0.0,0.0,0.0,0.0,0.0,0.0,0.0,0.0,0.0,0.0,0.0,0.0,0.0,0.0,0.0,0.0,0.0,0.0,0.0,0.0,0.0,0.0,0.0,0.0,0.0,0.0,0.0,0.0,0.0,0.0,0.0,0.0,0.0,0.0,0.0,0.0,0.0,0.0,0.0,0.0,0.0,0.0,0.0,0.0,0.0,0.0,0.0,0.0,0.0,0.0,0.0,0.0,0.0,0.0,0.0,-1.8543,-1.9201,-2.0762,-2.1109,-2.0934,-2.019,-1.9373,-1.7983,-1.5826,-1.5024,0.0,0.0,0.0,0.0,0.0,0.0,0.0,0.0,0.0,0.0,0.0,0.0,0.0,0.0,0.0,0.0,0.0,0.0,0.0,0.0,0.0,0.0,0.0,0.0,0.0,0.0,0.0,0.0,0.0,0.0,0.0,0.0,0.0,0.0,0.0,0.0,0.0,0.0,0.0,0.0,0.0,0.0,0.0,0.0,0.0,0.0,0.0,0.0,0.0,0.0,0.0,0.0,0.0,0.0,0.0,0.0,0.0,0.0,0.0,0.0,0.0,0.0,0.0,0.0,0.0,0.0,0.0,0.0,0.0,0.0,0.0,0.0,0.0,0.0,0.0,0.0,0.0,0.0,0.0,0.0,0.0,0.0,0.0,0.0,0.0,0.0,0.0,0.0,0.0,0.0,0.0,0.0,0.0,0.0,0.0,0.0,0.0,0.0,0.0,0.0,0.0,0.0,-1.902,-2.0327,-2.1745,-2.1598,-2.1311,-2.1129,-1.9254,-1.748,-1.6062,-1.4832,0.0,0.0,0.0,0.0,0.0,0.0,0.0,0.0,0.0,0.0,0.0,0.0,0.0,0.0,0.0,0.0,0.0,0.0,0.0,0.0,0.0,0.0,0.0,0.0,0.0,0.0,0.0,0.0,0.0,0.0,0.0,0.0,0.0,0.0,0.0,0.0,0.0,0.0,0.0,0.0,0.0,0.0,0.0,0.0,0.0,0.0,0.0,0.0,0.0,0.0,0.0,0.0,0.0,0.0,0.0,0.0,0.0,0.0,0.0,0.0,0.0,0.0,0.0,0.0,0.0,0.0,0.0,0.0,0.0,0.0,0.0,0.0,0.0,0.0,0.0,0.0,0.0,0.0,0.0,0.0,0.0,0.0,0.0,0.0,0.0,0.0,0.0,0.0,0.0,0.0,0.0,0.0,0.0,0.0,0.0,0.0,0.0,0.0,0.0,0.0,0.0,0.0,-1.9951,-2.1004,-2.225,-2.2281,-2.1715,-2.049,-1.9334,-1.7918,-1.6115,0.0,0.0,0.0,0.0,0.0,0.0,0.0,0.0,0.0,0.0,0.0,0.0,0.0,0.0,0.0,0.0,0.0,0.0,0.0,0.0,0.0,0.0,0.0,0.0,0.0,0.0,0.0,0.0,0.0,0.0,0.0,0.0,0.0,0.0,0.0,0.0,0.0,0.0,0.0,0.0,0.0,0.0,0.0,0.0,0.0,0.0,0.0,0.0,0.0,0.0,0.0,0.0,0.0,0.0,0.0,0.0,0.0,0.0,0.0,0.0,0.0,0.0,0.0,0.0,0.0,0.0,0.0,0.0,0.0,0.0,0.0,0.0,0.0,0.0,0.0,0.0,0.0,0.0,0.0,0.0,0.0,0.0,0.0,0.0,0.0,0.0,0.0,0.0,0.0,0.0,0.0,0.0,0.0,0.0,0.0,0.0,0.0,0.0,0.0,0.0,0.0,0.0,-1.9662,-2.0826,-2.1859,-2.2924,-2.2813,-2.2035,-2.0447,-1.9286,-1.7925,-1.6226,0.0,0.0,0.0,0.0,0.0,0.0,0.0,0.0,0.0,0.0,0.0,0.0,0.0,0.0,0.0,0.0,0.0,0.0,0.0,0.0,0.0,0.0,0.0,0.0,0.0,0.0,0.0,0.0,0.0,0.0,0.0,0.0,0.0,0.0,0.0,0.0,0.0,0.0,0.0,0.0,0.0,0.0,0.0,0.0,0.0,0.0,0.0,0.0,0.0,0.0,0.0,0.0,0.0,0.0,0.0,0.0,0.0,0.0,0.0,0.0,0.0,0.0,0.0,0.0,0.0,0.0,0.0,0.0,0.0,0.0,0.0,0.0,0.0,0.0,0.0,0.0,0.0,0.0,0.0,0.0,0.0,0.0,0.0,0.0,0.0,0.0,0.0,0.0,0.0,0.0,0.0,0.0,0.0,0.0,0.0,0.0,0.0,0.0,0.0,0.0,0.0,0.0,-1.9895,-2.1566,-2.2968,-2.389,-2.3157,-2.2216,-2.1268,-1.906,-1.7345,0.0,0.0,0.0,0.0,0.0,0.0,0.0,0.0,0.0,0.0,0.0,0.0,0.0,0.0,0.0,0.0,0.0,0.0,0.0,0.0,0.0,0.0,0.0,0.0,0.0,0.0,0.0,0.0,0.0,0.0,0.0,0.0,0.0,0.0,0.0,0.0,0.0,0.0,0.0,0.0,0.0,0.0,0.0,0.0,0.0,0.0,0.0,0.0,0.0,0.0,0.0,0.0,0.0,0.0,0.0,0.0,0.0,0.0,0.0,0.0,0.0,0.0,0.0,0.0,0.0,0.0,0.0,0.0,0.0,0.0,0.0,0.0,0.0,0.0,0.0,0.0,0.0,0.0,0.0,0.0,0.0,0.0,0.0,0.0,0.0,0.0,0.0,0.0,0.0,0.0,0.0,0.0,0.0,0.0,0.0,0.0,0.0,0.0,0.0,0.0,0.0,0.0,0.0,-2.0017,-2.1794,-2.2968,-2.3202,-2.2885,-2.201,-2.0423,-1.9159,-1.7879,-1.6498,0.0,0.0,0.0,0.0,0.0,0.0,0.0,0.0,0.0,0.0,0.0,0.0,0.0,0.0,0.0,0.0,0.0,0.0,0.0,0.0,0.0,0.0,0.0,0.0,0.0,0.0,0.0,0.0,0.0,0.0,0.0,0.0,0.0,0.0,0.0,0.0,0.0,0.0,0.0,0.0,0.0,0.0,0.0,0.0,0.0,0.0,0.0,0.0,0.0,0.0,0.0,0.0,0.0,0.0,0.0,0.0,0.0,0.0,0.0,0.0,0.0,0.0,0.0,0.0,0.0,0.0,0.0,0.0,0.0,0.0,0.0,0.0,0.0,0.0,0.0,0.0,0.0,0.0,0.0,0.0,0.0,0.0,0.0,0.0,0.0,0.0,0.0,0.0,0.0,0.0,0.0,0.0,0.0,0.0,0.0,0.0,0.0,0.0,0.0,0.0,0.0,0.0,-2.01,-2.1877,-2.2918,-2.2823,-2.2647,-2.1797,-1.9947,-1.9228,-1.8176,-1.6516,0.0,0.0,0.0,0.0,0.0,0.0,0.0,0.0,0.0,0.0,0.0,0.0,0.0,0.0,0.0,0.0,0.0,0.0,0.0,0.0,0.0,0.0,0.0,0.0,0.0,0.0,0.0,0.0,0.0,0.0,0.0,0.0,0.0,0.0,0.0,0.0,0.0,0.0,0.0,0.0,0.0,0.0,0.0,0.0,0.0,0.0,0.0,0.0,0.0,0.0,0.0,0.0,0.0,0.0,0.0,0.0,0.0,0.0,0.0,0.0,0.0,0.0,0.0,0.0,0.0,0.0,0.0,0.0,0.0,0.0,0.0,0.0,0.0,0.0,0.0,0.0,0.0,0.0,0.0,0.0,0.0,0.0,0.0,0.0,0.0,0.0,0.0,0.0,0.0,0.0,0.0,0.0,0.0,0.0,0.0,0.0,0.0,0.0,0.0,0.0,0.0,0.0,-2.0238,-2.188,-2.2836,-2.2703,-2.2435,-2.155,-1.9758,-1.923,-1.8266,-1.6516,0.0,0.0,0.0,0.0,0.0,0.0,0.0,0.0,0.0,0.0,0.0,0.0,0.0,0.0,0.0,0.0,0.0,0.0,0.0,0.0,0.0,0.0,0.0,0.0,0.0,0.0,0.0,0.0,0.0,0.0,0.0,0.0,0.0,0.0,0.0,0.0,0.0,0.0,0.0,0.0,0.0,0.0,0.0,0.0,0.0,0.0,0.0,0.0,0.0,0.0,0.0,0.0,0.0,0.0,0.0,0.0,0.0,0.0,0.0,0.0,-2.0671,-1.9929,0.0,0.0,0.0,0.0,0.0,0.0,0.0,0.0,0.0,0.0,0.0,0.0,0.0,0.0,0.0,0.0,0.0,0.0,0.0,0.0,0.0,0.0,0.0,0.0,0.0,0.0,0.0,0.0,0.0,0.0,0.0,0.0,0.0,0.0,0.0,0.0,0.0,0.0,0.0,0.0,-2.0806,-2.2021,-2.2651,-2.2617,-2.2281,-2.14,-1.9745,-1.923,-1.8266,-1.6516,-1.5396,0.0,0.0,0.0,0.0,0.0,0.0,0.0,0.0,0.0,0.0,0.0,0.0,0.0,0.0,0.0,0.0,0.0,0.0,0.0,0.0,0.0,0.0,0.0,0.0,0.0,0.0,0.0,0.0,0.0,0.0,0.0,0.0,0.0,0.0,0.0,0.0,0.0,0.0,0.0,0.0,0.0,0.0,0.0,0.0,0.0,0.0,0.0,0.0,0.0,0.0,0.0,0.0,0.0,0.0,0.0,0.0,0.0,0.0,0.0,-2.1561,-2.1024,0.0,0.0,0.0,0.0,0.0,0.0,0.0,0.0,0.0,0.0,0.0,0.0,0.0,0.0,0.0,0.0,0.0,0.0,0.0,0.0,0.0,0.0,0.0,0.0,0.0,0.0,0.0,0.0,0.0,0.0,0.0,0.0,0.0,0.0,0.0,0.0,0.0,0.0,0.0,0.0,-2.082,-2.1581,-2.1999,-2.2281,-2.1695,-2.0748,-1.9415,-1.9008,-1.8208,-1.6809,-1.5582,0.0,0.0,0.0,0.0,0.0,0.0,0.0,0.0,0.0,0.0,0.0,0.0,0.0,0.0,0.0,0.0,0.0,0.0,0.0,0.0,0.0,0.0,0.0,0.0,0.0,0.0,0.0,0.0,0.0,0.0,0.0,0.0,0.0,0.0,0.0,0.0,0.0,0.0,0.0,0.0,0.0,0.0,0.0,0.0,0.0,0.0,0.0,0.0,0.0,0.0,0.0,0.0,0.0,-2.2216,-2.2216,-2.2216,-2.2216,-2.2557,-2.3087,-2.242,-2.2234,-2.2309,-2.0748,0.0,0.0,0.0,0.0,0.0,0.0,0.0,0.0,0.0,0.0,0.0,0.0,0.0,0.0,0.0,0.0,0.0,0.0,0.0,0.0,0.0,0.0,-2.1519,-2.1042,-2.1272,-2.0881,-1.8282,0.0,0.0,0.0,0.0,0.0,0.0,0.0,0.0,0.0,0.0,0.0,-2.0564,-2.0947,-2.1158,-2.1615,-2.0884,-1.9984,-1.9003,-1.8734,-1.8164,-1.7157,-1.5845,-1.4631,0.0,0.0,0.0,0.0,0.0,0.0,0.0,0.0,0.0,0.0,0.0,0.0,0.0,0.0,0.0,0.0,0.0,0.0,0.0,0.0,0.0,0.0,0.0,0.0,0.0,0.0,0.0,0.0,0.0,0.0,0.0,0.0,-2.114,-2.22,0.0,0.0,0.0,0.0,0.0,0.0,0.0,0.0,0.0,0.0,0.0,0.0,0.0,-2.3036,-2.2877,-2.3725,-2.406,-2.3878,-2.3878,-2.3878,-2.3878,-2.3878,-2.378,-2.3601,-2.3503,0.0,-2.2105,-2.1575,0.0,0.0,0.0,0.0,0.0,0.0,0.0,0.0,0.0,0.0,0.0,0.0,0.0,0.0,0.0,0.0,0.0,0.0,0.0,0.0,0.0,0.0,-2.2694,-2.1659,-2.1517,-2.1421,-2.0781,-1.907,-1.7422,-1.657,-1.5997,-1.5373,0.0,0.0,0.0,0.0,0.0,0.0,-2.0244,-2.0528,-2.0468,-2.0358,-2.0074,-1.9563,-1.8722,-1.8614,-1.8164,-1.7157,-1.6323,-1.5409,-1.4403,-1.294,0.0,0.0,0.0,0.0,0.0,0.0,0.0,0.0,0.0,0.0,0.0,0.0,0.0,0.0,0.0,0.0,0.0,0.0,0.0,0.0,0.0,0.0,0.0,0.0,0.0,0.0,0.0,0.0,0.0,-2.0921,-2.223,-2.2701,-2.2607,-2.2262,0.0,0.0,0.0,0.0,0.0,0.0,0.0,0.0,0.0,-2.2842,-2.3579,-2.3932,-2.3847,-2.4173,-2.4284,-2.419,-2.419,-2.419,-2.419,-2.4006,-2.3837,-2.3682,-2.3311,-2.2864,-2.241,-2.2037,-2.1487,-2.0859,0.0,0.0,0.0,0.0,-2.0559,-2.0511,-2.1394,-2.1399,-2.0977,-2.0691,0.0,0.0,0.0,0.0,0.0,0.0,0.0,-2.0517,-2.0918,-2.1623,-2.2188,-2.2004,-2.1972,-2.1958,-2.1844,-2.0703,-1.9232,-1.7625,-1.7388,-1.683,-1.4842,-1.4925,0.0,0.0,0.0,-1.8226,-1.9885,-2.0056,-1.9983,-1.9936,-1.932,-1.8768,-1.8416,-1.8239,-1.7966,-1.7524,-1.6788,-1.6004,-1.5155,-1.4098,-1.2841,0.0,0.0,0.0,0.0,0.0,0.0,0.0,0.0,0.0,0.0,0.0,0.0,0.0,0.0,0.0,0.0,0.0,0.0,0.0,0.0,0.0,0.0,0.0,0.0,0.0,0.0,0.0,0.0,-2.2446,-2.3214,-2.3437,-2.3664,-2.3519,0.0,0.0,0.0,0.0,0.0,0.0,-2.2619,-2.3239,-2.3654,-2.3746,-2.4184,-2.4409,-2.4409,-2.4266,-2.419,-2.419,-2.419,-2.4161,-2.4064,-2.3816,-2.3617,-2.3414,-2.2923,-2.2708,-2.2686,-2.237,-2.2076,-2.1746,-2.1341,-2.1144,-2.1118,-2.1545,-2.1403,-2.1157,-2.2301,-2.2259,-2.1709,-2.176,-2.152,-2.1089,-2.05,0.0,0.0,0.0,0.0,-2.0732,-2.1328,-2.1591,-2.1815,-2.22,-2.2296,-2.2296,-2.2296,-2.187,-2.0919,-1.9046,-1.8944,-1.842,-1.6042,-1.6086,0.0,-1.6795,-1.7785,-1.8767,-1.9565,-1.9625,-1.9524,-1.931,-1.8569,-1.811,-1.811,-1.7905,-1.78,-1.78,-1.7111,-1.6451,-1.591,-1.4994,-1.3666,-1.1929,0.0,0.0,0.0,0.0,0.0,0.0,0.0,0.0,0.0,0.0,0.0,0.0,0.0,0.0,0.0,0.0,0.0,0.0,0.0,0.0,0.0,0.0,0.0,0.0,0.0,0.0,0.0,0.0,0.0,-2.5162,-2.4394,0.0,0.0,0.0,0.0,-2.3188,-2.3351,-2.3693,-2.4344,-2.4429,-2.4429,-2.4437,-2.4303,-2.4209,-2.4209,-2.4218,-2.419,-2.419,-2.419,-2.4026,-2.3714,-2.3703,-2.3357,-2.2759,-2.2721,-2.2708,-2.2708,-2.2686,-2.2512,-2.2309,-2.2853,-2.2861,-2.2642,-2.2975,-2.2872,-2.2591,-2.266,-2.2506,-2.2257,-2.2257,-2.1783,-2.119,-2.1156,-2.0602,0.0,0.0,-2.1153,-2.1322,-2.2057,-2.2243,-2.2274,-2.2279,-2.2296,-2.2296,-2.2296,-2.2262,-2.2006,-2.119,-2.045,-1.9676,-1.8826,0.0,-1.883,-1.9095,-1.9191,-1.9271,-1.9317,-1.9317,-1.8959,-1.7997,-1.785,-1.7822,-1.7822,-1.7811,-1.78,-1.78,-1.7111,-1.6682,-1.6648,-1.5257,-1.39,-1.2669,-1.2173,0.0,0.0,0.0,0.0,0.0,0.0,0.0,0.0,0.0,0.0,0.0,0.0,0.0,0.0,0.0,0.0,0.0,0.0,0.0,0.0,0.0,0.0,0.0,0.0,0.0,0.0,0.0,0.0,-2.5238,-2.4995,0.0,-2.4589,-2.4369,-2.4182,-2.4078,-2.4707,-2.5099,-2.5069,-2.5576,-2.5843,-2.5843,-2.5772,-2.5493,-2.497,-2.497,-2.4713,-2.419,-2.419,-2.4016,-2.3692,-2.3488,-2.3129,-2.2708,-2.2708,-2.2708,-2.2733,-2.3165,-2.3294,-2.3212,-2.3444,-2.3448,-2.3335,-2.3242,-2.2996,-2.2708,-2.2708,-2.251,-2.2296,-2.2296,-2.211,-2.1904,-2.1904,-2.1718,-2.1536,-2.1837,-2.1904,-2.1972,-2.2229,-2.2296,-2.2296,-2.2296,-2.2296,-2.2296,-2.2296,-2.2296,-2.2212,-2.1955,-2.1295,-2.0365,-1.9113,-1.9299,-1.9476,-1.9103,-1.9894,-2.0342,-1.9819,-1.975,-1.9425,-1.8601,-1.8082,-1.78,-1.78,-1.78,-1.78,-1.78,-1.7557,-1.7196,-1.6716,-1.574,-1.4702,-1.3615,-1.2554,-1.1343,0.0,0.0,0.0,0.0,0.0,0.0,0.0,0.0,0.0,0.0,0.0,0.0,0.0,0.0,0.0,0.0,0.0,0.0,0.0,0.0,0.0,0.0,0.0,0.0,0.0,-2.425,-2.4697,-2.525,-2.5308,-2.5349,-2.5512,-2.5592,-2.5577,-2.5418,-2.5962,-2.6151,-2.5817,-2.6319,-2.6602,-2.6602,-2.6602,-2.6337,-2.5815,-2.5797,-2.554,-2.5016,-2.4722,-2.4428,-2.4089,-2.3585,-2.3177,-2.2873,-2.2873,-2.2935,-2.3069,-2.3522,-2.3774,-2.3876,-2.3876,-2.3724,-2.3522,-2.3403,-2.3081,-2.2682,-2.2599,-2.245,-2.2296,-2.2296,-2.2296,-2.2296,-2.2296,-2.2296,-2.2296,-2.2296,-2.2296,-2.2296,-2.2296,-2.2296,-2.2296,-2.2296,-2.2296,-2.2296,-2.2296,-2.2296,-2.2296,-2.2296,-2.1904,-2.1258,-2.0213,-2.0454,-2.0606,-2.0128,-2.0923,-2.1278,-2.0504,-2.0166,-1.9727,-1.8978,-1.8251,-1.78,-1.78,-1.78,-1.78,-1.78,-1.7574,-1.7202,-1.6716,-1.5747,-1.4865,-1.4106,-1.2756,-1.1765,-1.1174,0.0,0.0,0.0,0.0,0.0,0.0,0.0,0.0,0.0,0.0,0.0,0.0,0.0,0.0,0.0,0.0,0.0,0.0,0.0,0.0,0.0,0.0,0.0,-2.4149,-2.4812,-2.5308,-2.5308,-2.5322,-2.5663,-2.6514,-2.644,-2.6562,-2.7148,-2.7025,-2.6858,-2.666,-2.6657,-2.6686,-2.6696,-2.6696,-2.6678,-2.6652,-2.6641,-2.6641,-2.6605,-2.5778,-2.5213,-2.4865,-2.4082,-2.3522,-2.32,-2.32,-2.3403,-2.3703,-2.3703,-2.3907,-2.419,-2.419,-2.3795,-2.3247,-2.3577,-2.3288,-2.266,-2.2385,-2.2296,-2.2296,-2.2296,-2.2296,-2.2296,-2.2296,-2.2296,-2.2296,-2.2282,-2.2296,-2.2296,-2.2282,-2.2296,-2.2296,-2.2296,-2.2296,-2.2296,-2.2296,-2.2296,-2.2296,-2.2296,-2.2296,-2.2296,-2.2296,-2.2296,-2.2296,-2.2296,-2.2296,0.0,-2.1326,-2.0521,-1.9761,-1.9012,-1.8268,-1.7834,-1.78,-1.78,-1.7783,-1.7766,-1.7094,-1.6699,-1.6675,-1.5274,-1.4368,-1.4093,-1.2857,-1.2307,-1.2505,0.0,0.0,0.0,0.0,0.0,0.0,0.0,0.0,0.0,0.0,0.0,0.0,0.0,0.0,0.0,0.0,0.0,0.0,0.0,0.0,0.0,-2.413,-2.4962,-2.4962,-2.5154,-2.5308,-2.5308,-2.5682,-2.6046,-2.6294,-2.6693,-2.6968,-2.6989,-2.7457,-2.7682,-2.7478,-2.8014,-2.8426,-2.8621,-2.8631,-2.8415,-2.7985,-2.7783,-2.7379,-2.6804,-2.5842,-2.5213,-2.4865,-2.4082,-2.3522,-2.3212,-2.3466,-2.361,-2.3714,-2.3947,-2.4132,-2.419,-2.419,-2.3937,-2.3577,-2.3671,-2.3288,-2.266,-2.2385,-2.2296,-2.2296,-2.2296,-2.2296,-2.2296,-2.2296,-2.2296,-2.2223,-2.1899,-2.2032,-2.2223,-2.1884,-2.2032,-2.2296,-2.2296,-2.2296,-2.2296,-2.2296,-2.2296,-2.2296,-2.2296,-2.2296,-2.2296,-2.2296,-2.2296,-2.2296,-2.2296,-2.2296,-2.2243,-2.2023,-2.1329,-2.0568,-1.9778,-1.9046,-1.8386,-1.785,-1.78,-1.7574,-1.7044,-1.6807,-1.6533,-1.6134,-1.5087,-1.4261,-1.376,-1.3013,-1.2664,0.0,0.0,0.0,0.0,0.0,0.0,0.0,0.0,0.0,0.0,0.0,0.0,0.0,0.0,0.0,0.0,0.0,0.0,0.0,0.0,0.0,0.0,-2.4359,-2.5168,-2.5168,-2.5253,-2.5442,-2.5808,-2.6146,-2.6612,-2.7229,-2.7536,-2.7768,-2.7931,-2.8277,-2.8436,-2.8301,-2.8854,-2.9235,-2.9402,-2.9474,-2.9363,-2.9013,-2.8765,-2.8416,-2.7932,-2.6554,-2.5795,-2.5561,-2.4434,-2.3806,-2.3639,-2.3816,-2.3907,-2.3917,-2.4113,-2.419,-2.419,0.0,0.0,0.0,0.0,-2.2875,-2.2514,-2.2346,-2.2296,-2.2296,-2.2296,-2.2296,-2.2296,-2.2296,-2.2296,-2.2194,-2.1718,-2.1928,-2.2194,-2.1718,-2.1943,-2.2296,-2.2296,-2.2296,-2.2296,-2.2296,-2.2296,-2.2296,-2.2296,-2.2296,0.0,-2.2296,-2.2296,-2.2296,-2.2296,-2.2296,-2.2296,-2.2296,-2.1651,-2.1021,-2.0538,-1.9536,-1.8724,-1.8302,-1.7969,0.0,0.0,0.0,-1.5934,-1.4986,-1.4357,0.0,0.0,0.0,0.0,0.0,0.0,0.0,0.0,-1.2893,-1.2993,0.0,0.0,0.0,0.0,0.0,0.0,0.0,0.0,0.0,0.0,0.0,0.0,0.0,0.0,0.0,0.0,-2.4405,-2.51,-2.5004,-2.534,-2.5846,-2.6524,-2.6663,-2.725,-2.8654,-2.8634,-2.8754,-2.9367,-2.9156,-2.9017,-2.9033,-2.9267,0.0,0.0,0.0,-2.9756,-2.9782,-2.9551,-2.9434,-2.9405,-2.7588,-2.6741,-2.6686,-2.5162,-2.441,-2.4337,-2.4337,-2.4281,-2.419,-2.419,-2.418,-2.4151,-2.4094,-2.3714,-2.3135,-2.2521,-2.2296,-2.2296,-2.2296,0.0,0.0,-2.2296,-2.2296,-2.2296,-2.2296,-2.2296,-2.2194,-2.1718,-2.1928,-2.2194,-2.1718,-2.1943,-2.2296,-2.2296,-2.2296,-2.2296,-2.2296,-2.2296,-2.2296,-2.2296,-2.2296,-2.2296,-2.2296,-2.2296,-2.2296,-2.2296,-2.2296,-2.2296,-2.2296,-2.1735,-2.1292,-2.1207,-1.9891,0.0,-1.8922,-1.8217,-1.7766,-1.7693,-1.6473,-1.5159,-1.3792,-1.3569,-1.3479,-1.3471,-1.3595,-1.3736,-1.3906,-1.4089,-1.4331,-1.4562,-1.314,-1.3272,0.0,0.0,0.0,0.0,0.0,0.0,0.0,0.0,0.0,0.0,0.0,0.0,0.0,0.0,0.0,-2.4168,-2.5274,-2.5806,-2.51,-2.6387,-2.7198,-2.6659,-2.7023,-2.7707,-2.8698,-2.9048,-2.9266,-2.9394,-2.9156,-2.9089,-2.931,-2.9372,-2.9561,-2.9877,-2.9924,-3.004,-3.0267,-2.984,-2.9634,-2.9634,-2.8227,0.0,-2.753,-2.6576,-2.5786,-2.5172,-2.5172,-2.4805,-2.419,-2.419,-2.4036,-2.3774,-2.3511,-2.3305,-2.3135,-2.2521,-2.2296,-2.2296,-2.2296,-2.2296,-2.2296,-2.2296,-2.2296,-2.2296,-2.2296,-2.2296,0.0,-2.1718,-2.1928,-2.2194,-2.1718,-2.1943,-2.2296,-2.2296,-2.2296,-2.2296,-2.2296,-2.2296,-2.2296,-2.2296,-2.2296,-2.2296,-2.2296,-2.2296,-2.2296,-2.2296,-2.2296,-2.2296,-2.2296,-2.2192,-2.1854,-2.1258,-2.0348,-1.9541,-1.8944,-1.8217,-1.7557,-1.6942,-1.5712,-1.4874,-1.4588,-1.4223,-1.3973,-1.3805,-1.3983,-1.4017,-1.3906,-1.3941,-1.4387,-1.5213,-1.4539,-1.4338,0.0,0.0,0.0,0.0,0.0,0.0,0.0,0.0,0.0,0.0,0.0,-2.2734,-2.3456,0.0,-2.4059,-2.495,-2.5691,-2.6191,-2.6282,-2.7211,-2.7741,-2.7294,-2.7881,-2.86,-2.9327,-2.9585,-2.9652,-2.9551,-2.9416,-2.9407,-2.9533,-2.9662,-2.9788,-2.9999,-3.0136,-3.0202,-3.0202,-2.9872,-2.9643,-2.9542,-2.8371,-2.7798,-2.778,-2.6979,-2.6374,-2.5988,-2.5988,-2.5768,-2.5364,-2.497,-2.4371,-2.3671,-2.3335,-2.3093,-2.2898,-2.2453,-2.2296,-2.2296,-2.2296,-2.2296,-2.2296,-2.2296,-2.2296,-2.2296,-2.2296,-2.2296,-2.2194,-2.1718,-2.1928,-2.2194,-2.1718,-2.1943,-2.2296,-2.2296,-2.2296,-2.2296,-2.2296,-2.2296,-2.2296,-2.2296,-2.2296,-2.2296,-2.2296,-2.2296,-2.2296,-2.2296,-2.2296,-2.2296,-2.2296,-2.2296,-2.2023,-2.1275,-2.0471,-1.971,-1.8961,-1.8217,-1.7534,-1.6888,-1.627,-1.5836,-1.5556,-1.4967,-1.4577,-1.441,-1.4065,-1.3838,-1.3743,-1.3743,-1.4324,-1.539,-1.5166,-1.5074,0.0,0.0,0.0,0.0,0.0,0.0,0.0,-2.2976,-2.3019,-2.3305,-2.3382,-2.3535,-2.4014,-2.4319,-2.4783,-2.5616,-2.6203,-2.6795,-2.7542,-2.8073,-2.8313,-2.8145,-2.8703,-2.9363,-3.002,-3.0028,-2.9939,-2.9763,-2.9731,-2.9722,-2.9765,-2.9916,-3.0021,-3.0075,-3.0299,-3.0299,-3.0082,-2.984,-2.9626,-2.9454,-2.8484,-2.8026,-2.8007,-2.7365,-2.6969,-2.6833,-2.6667,-2.6602,-2.6539,-2.5723,-2.4819,-2.3887,-2.3388,-2.2996,-2.2673,-2.2402,-2.2296,-2.2296,-2.2296,-2.2296,-2.2296,-2.2296,-2.2296,-2.2296,-2.2296,-2.2296,-2.2223,-2.1838,-2.2017,-2.2209,-2.1823,-2.2017,-2.2296,-2.2296,-2.2296,-2.2296,-2.2296,-2.2296,-2.2296,-2.2296,-2.2296,-2.2296,-2.2296,-2.2296,-2.2296,-2.2296,-2.2296,-2.2296,-2.2296,-2.2296,-2.2023,-2.1275,-2.0471,-1.9642,-1.8758,-1.8138,-1.7617,-1.7175,-1.7132,-1.6919,-1.6534,-1.579,-1.534,-1.5226,-1.4343,-1.3941,-1.4075,-1.3864,-1.4374,-1.5523,-1.5559,-1.5612,-2.2463,-2.2462,-2.2865,-2.3726,-2.3978,-2.4134,0.0,-2.4619,-2.4415,-2.4007,-2.4007,-2.4023,-2.3798,-2.4726,-2.5624,-2.5913,-2.7379,-2.8338,-2.7928,-2.9167,-2.9827,-2.9069,-2.905,-2.9423,-3.0265,-3.0143,-2.9991,-2.9969,-2.9796,-2.9771,-2.9962,-2.9991,-3.0103,-3.0355,-3.0373,-3.0392,-3.0355,-2.9912,-2.9687,-2.9661,-2.9124,-2.8877,-2.8858,-2.8767,-2.8345,-2.7622,-2.6906,-2.6602,-2.6539,-2.5723,-2.5155,-2.4662,-2.3613,-2.2996,-2.2673,-2.2402,-2.2296,-2.2296,-2.2296,-2.2296,-2.2296,-2.2296,-2.2296,-2.2296,-2.2296,-2.2296,-2.2296,-2.2237,-2.2268,-2.2282,-2.2237,-2.2268,-2.2296,-2.2296,-2.2296,-2.2296,-2.2296,-2.2296,-2.2296,-2.2296,-2.2296,-2.2296,-2.2296,-2.2296,-2.2296,-2.2296,-2.2296,-2.2296,-2.2296,-2.2296,-2.2023,-2.1275,-2.0471,-1.9427,-1.8036,-1.785,-1.7777,-1.7709,-1.7325,-1.7146,-1.7276,-1.6729,-1.6431,-1.6409,-1.5437,-1.519,-1.5723,-1.4836,-1.4924,-1.595,-1.612,-1.6029,-2.4208,-2.4249,-2.4406,-2.4768,-2.488,-2.4899,-2.4885,-2.47,-2.4371,-2.3918,-2.3709,-2.3783,-2.4306,-2.4984,-2.5902,-2.7237,-2.8205,-2.8925,-2.9291,-2.9962,-3.0269,-2.991,-2.9871,-3.0,-3.0365,-3.0305,-3.0222,-3.0222,-3.0155,-3.0142,-3.0235,-3.0222,-3.0273,-3.0398,-3.0404,-3.0336,-3.0163,-2.9962,-2.9765,-2.9523,-2.9322,-2.9156,-2.9005,-2.9005,-2.8822,-2.8484,-2.8143,-2.7732,-2.7273,-2.6935,-2.6049,-2.4836,-2.4381,-2.3691,-2.2935,-2.2467,-2.2296,-2.2296,-2.2296,-2.2296,-2.2296,-2.2296,-2.2296,-2.2296,-2.2296,-2.2296,-2.2296,-2.2296,-2.2296,-2.2296,-2.2296,-2.2296,-2.2296,-2.2296,-2.2296,-2.2296,-2.2296,-2.2296,-2.2296,-2.2296,-2.2296,-2.2296,-2.2296,-2.2296,-2.2296,-2.2296,-2.2296,-2.2296,-2.2296,-2.1921,-2.1207,-1.9989,-1.9181,-1.8476,-1.785,-1.78,-1.78,-1.78,-1.7913,-1.8006,-1.8081,-1.7702,-1.7353,-1.7125,-1.626,-1.5791,-1.5761,-1.5348,-1.5732,-1.6879,-1.6958,-1.7036,-2.5446,-2.5503,-2.5517,-2.5418,-2.5411,-2.5325,-2.4904,-2.4534,-2.4153,-2.366,-2.3369,-2.3519,-2.4573,-2.5278,-2.633,-2.8223,-2.8935,-2.9554,-3.0335,-3.0467,-3.0467,-3.0467,-3.0436,-3.0428,-3.0428,-3.0408,-3.0404,-3.0404,-3.0404,-3.0404,-3.0404,-3.0404,-3.0404,-3.0404,-3.0404,-3.0311,-3.0103,-3.0047,-2.9829,-2.9474,-2.9424,-2.9257,-2.9005,-2.9005,-2.9005,-2.9005,-2.9005,-2.8675,-2.8117,-2.7879,-2.698,-2.5658,-2.5344,-2.459,-2.3596,-2.2988,-2.263,-2.2402,-2.2338,-2.2296,-2.2296,-2.2296,-2.2296,-2.2296,-2.2296,-2.2296,-2.2296,-2.2296,-2.2296,-2.2296,-2.2296,-2.2296,-2.2296,-2.2296,-2.2296,-2.2296,-2.2296,-2.2296,-2.2296,-2.2296,-2.2296,-2.2296,-2.2296,-2.2296,-2.2296,-2.2296,-2.2296,-2.2296,-2.2296,-2.1651,-2.0699,-1.935,-1.8544,-1.802,-1.7817,-1.78,-1.78,-1.78,-1.8229,-1.8518,-1.8595,-1.8448,-1.8237,-1.8007,-1.7105,-1.6563,-1.6426,-1.6064,-1.6382,-1.7291,-1.7648,-1.7858,-2.551,-2.5551,-2.5561,-2.5428,-2.545,-2.537,-2.4911,-2.4534,-2.409,-2.3361,-2.32,-2.3448,-2.4252,-2.5706,-2.7165,-2.8396,-2.9635,-3.047,-3.0584,-3.0597,-3.0597,-3.0597,-3.0541,-3.0494,-3.0494,-3.0436,-3.0404,-3.0404,-3.0404,-3.0404,-3.0404,-3.0404,-3.0404,-3.0404,-3.0404,-3.0398,-3.0398,-3.0136,-2.9901,-2.9687,-2.9484,-2.9257,-2.9005,-2.9005,-2.9005,-2.9005,-2.9005,-2.8987,-2.8895,-2.8117,-2.7769,-2.7589,-2.6497,-2.5574,-2.4786,-2.4177,-2.3397,-2.2647,-2.2402,-2.2296,-2.2296,-2.2296,-2.2296,-2.2296,-2.2296,-2.2296,-2.2296,-2.2296,-2.2296,-2.2296,-2.2296,-2.2296,-2.2296,-2.2296,-2.2296,-2.2296,-2.2296,-2.2296,-2.2296,-2.2296,-2.2296,-2.2296,-2.2296,-2.2296,-2.2296,-2.2296,-2.2296,-2.2296,-2.2296,-2.1651,-2.0873,-2.0052,-1.9316,-1.8572,-1.785,-1.78,-1.78,-1.78,-1.8068,-1.833,-1.8585,-1.8834,-1.9066,-1.9237,-1.8068,-1.7799,-1.8505,-1.7264,-1.6692,-1.6757,-1.7996,-1.8189,-2.563,-2.5658,-2.5634,-2.5508,-2.5376,-2.5139,-2.4601,-2.4107,-2.3599,-2.2998,-2.2717,-2.3007,-2.4343,-2.5702,-2.7069,-2.8497,-2.976,-3.0555,-3.0546,-3.0577,-3.0603,-3.0603,-3.0581,-3.0556,-3.0507,-3.0436,-3.0404,-3.0404,-3.0404,-3.0404,-3.0404,-3.0404,-3.0404,-3.0404,-3.0404,-3.0404,-3.0404,-3.0311,-3.0136,-2.9901,-2.9551,-2.9257,-2.9005,-2.9005,-2.9005,-2.9005,-2.9005,-2.9005,-2.8987,-2.8712,-2.8282,-2.7769,-2.7387,-2.6739,-2.5878,-2.4698,-2.4078,-2.3673,-2.2668,-2.2296,-2.2296,-2.2296,-2.2296,-2.2296,-2.2296,-2.2296,-2.2296,-2.2296,-2.2296,-2.2296,-2.2296,-2.2296,-2.2296,-2.2296,-2.2296,-2.2296,-2.2296,-2.2296,-2.2296,-2.2296,-2.2296,-2.2296,-2.2296,-2.2296,-2.2296,-2.2296,-2.2296,-2.211,-2.1634,-2.136,-2.0889,-2.0099,-1.935,-1.8874,-1.8795,-1.8353,-1.8135,-1.832,-1.8576,-1.8697,-1.8595,-1.899,-1.9082,-1.8834,-1.8609,-1.8449,-1.833,-1.7897,-1.7693,-1.7704,-1.8317,-1.8564,-2.5761,-2.5937,-2.6052,-2.5619,-2.5359,-2.5046,-2.4441,-2.3896,-2.336,-2.2813,-2.2563,-2.2907,-2.445,-2.5504,-2.6732,-2.8574,-2.9559,-3.0199,-3.0488,-3.0598,-3.0638,-3.0638,-3.065,-3.0628,-3.0578,-3.05,-3.0428,-3.041,-3.0404,-3.0404,-3.0404,-3.0404,-3.0404,-3.0404,-3.0404,-3.0404,-3.0404,-3.0404,-3.0235,-2.9893,-2.9456,-2.9178,-2.9005,-2.9005,-2.9005,-2.9005,-2.9005,-2.9005,-2.9005,-2.9005,-2.8693,-2.8227,-2.8227,-2.7732,-2.6878,-2.5696,-2.4878,-2.4206,-2.2795,-2.2296,-2.2296,-2.2296,-2.2296,-2.2296,-2.2296,-2.2296,-2.2296,-2.2296,-2.2296,-2.2296,-2.2296,-2.2296,-2.2296,-2.2296,-2.2296,-2.2296,-2.2296,-2.2296,-2.2296,-2.2296,-2.2296,-2.2296,-2.2296,-2.2296,-2.2296,-2.2296,-2.2296,-2.2141,-2.1651,-2.1583,-2.1177,-2.0103,-1.9575,-1.9199,-1.8927,-1.8475,-1.831,-1.8576,-1.8761,-1.8816,-1.8752,-1.9024,-1.9041,-1.8752,-1.8816,-1.8632,-1.8198,-1.8093,-1.8121,-1.8208,-1.8479,-1.8743,-2.6035,-2.6426,-2.6834,-2.5872,-2.5473,-2.5133,-2.4482,-2.3942,-2.3414,-2.283,-2.2716,-2.3163,-2.4529,-2.5223,-2.6314,-2.8587,-2.9121,-2.9588,-3.0472,-3.0663,-3.0695,-3.0695,-3.0741,-3.0776,-3.0773,-3.0688,-3.0626,-3.056,-3.0454,-3.0404,-3.0404,-3.0404,-3.0404,-3.0404,-3.0404,-3.0404,-3.0404,-3.0398,-3.0142,-2.9678,-2.9238,-2.9028,-2.9028,-2.9005,-2.9005,-2.9028,-2.9005,-2.9005,-2.9005,-2.9005,-2.9005,-2.9005,-2.9005,-2.8528,-2.7775,-2.7056,-2.5812,-2.4259,-2.2846,-2.233,-2.2296,-2.2296,-2.2296,-2.2296,-2.2296,-2.2296,-2.2296,-2.2296,-2.2296,-2.2296,-2.2296,-2.2296,-2.2296,-2.2296,-2.2296,-2.231,-2.2324,-2.231,-2.231,-2.2324,-2.231,-2.2296,-2.2296,-2.2296,-2.2296,-2.2296,-2.2296,-2.2296,-2.2296,-2.2296,-2.1721,-2.0221,-2.0018,-1.9527,-1.8378,-1.8236,-1.8341,-1.8614,-1.8632,-1.8743,-1.8966,-1.8984,-1.9002,-1.8958,-1.8725,-1.8469,-1.8198,-1.7938,-1.7938,-1.8187,-1.8434,-1.8707,-2.7469,-2.7769,-2.7888,-2.7524,-2.7148,-2.6496,-2.5184,-2.4701,-2.4185,-2.2952,-2.3023,-2.3547,-2.435,-2.5742,-2.7095,-2.8083,-2.9367,-3.0317,-3.0498,-3.0636,-3.0695,-3.0695,-3.1365,-3.1772,-3.1675,-3.2239,-3.2569,-3.2488,-3.1182,-3.0404,-3.0404,-3.0404,-3.0404,-3.0404,-3.0404,-3.0404,-3.0404,-3.0202,-2.9896,-2.9483,-2.9361,-2.9299,-2.9289,-2.9089,-2.9112,-2.9289,-2.9078,-2.9005,-2.9005,-2.9005,-2.9005,-2.9005,-2.9005,-2.8877,-2.8532,-2.7271,-2.6162,-2.5093,-2.3627,-2.2767,-2.2296,-2.2296,-2.2296,-2.2296,-2.2296,-2.2296,-2.2296,-2.2296,-2.2296,-2.2296,-2.2296,-2.2296,-2.2296,-2.2296,-2.2296,-2.2346,-2.255,-2.2436,-2.2363,-2.2563,-2.244,-2.2296,-2.2296,-2.2296,-2.2296,-2.2296,-2.2296,-2.2296,-2.2296,-2.2296,-2.1938,-2.0991,-2.0352,-1.9816,-1.937,-1.8806,-1.8671,-1.9107,-1.9113,-1.9007,-1.8698,-1.8896,-1.8807,-1.841,-1.8528,-1.8469,-1.8198,-1.8125,-1.8035,-1.7905,-1.7767,-1.8064,-2.8179,-2.8469,-2.8649,-2.8203,-2.7727,-2.6949,-2.5439,-2.5006,-2.4507,-2.3126,-2.3323,-2.3888,-2.4473,-2.5797,-2.7085,-2.7902,-2.9101,-3.0053,-3.0404,-3.0905,-3.1231,-3.1231,-3.212,-3.2695,-3.263,-3.3029,-3.3276,-3.3209,-3.2201,-3.1581,-3.1581,-3.1201,-3.0962,-3.0962,-3.0596,-3.0329,-3.0235,-2.9996,-2.9713,-2.9402,-2.9402,-2.9402,-2.9402,-2.9343,-2.9334,-2.9392,-2.9235,-2.9112,-2.9005,-2.9005,-2.9005,-2.9005,-2.9005,-2.8893,-2.8615,-2.7652,-2.648,-2.5234,-2.4237,-2.319,-2.2296,-2.2296,-2.2296,-2.2296,-2.2296,-2.2296,-2.2296,-2.2296,-2.2296,-2.2296,-2.2296,-2.2296,-2.2296,-2.2296,-2.2296,-2.2374,-2.2634,-2.2573,-2.2527,-2.2656,-2.2573,-2.244,-2.2307,-2.2296,-2.2296,-2.2296,-2.2296,-2.2296,-2.2296,-2.2296,-2.1929,-2.0952,-2.044,-1.9958,-1.9435,-1.9011,-1.8922,-1.9274,-1.9297,-1.9148,-1.8789,-1.8923,-1.8752,-1.8208,-1.8351,-1.829,-1.8008,-1.8135,-1.7952,-1.749,-1.7522,-1.7789,-2.8702,-2.8994,-2.9315,-2.8617,-2.8049,-2.7246,-2.568,-2.5215,-2.4746,-2.3405,-2.3648,-2.4251,-2.4752,-2.5665,-2.6738,-2.7916,-2.867,-2.9468,-3.0466,-3.1348,-3.1941,-3.2069,-3.2972,-3.3574,-3.3574,-3.3626,-3.3638,-3.3582,-3.3491,-3.3334,-3.3088,-3.2301,-3.1814,-3.1698,-3.0846,-3.0254,-2.9969,-2.978,-2.9589,-2.9351,-2.9351,-2.9392,-2.9444,-2.9561,-2.9542,-2.9434,-2.9363,-2.9203,-2.9005,-2.9005,-2.9005,-2.9005,-2.9005,-2.8761,-2.835,-2.7913,-2.6623,-2.5031,-2.4524,-2.3444,-2.2296,-2.2296,-2.2296,-2.2296,-2.2296,-2.2296,-2.2296,-2.2296,-2.2296,-2.2296,-2.2296,-2.2296,-2.2296,-2.2296,-2.2338,-2.2412,-2.2647,-2.2708,-2.2708,-2.2708,-2.2656,-2.256,-2.2335,-2.2296,-2.2296,-2.2296,-2.2296,-2.226,-2.22,-2.2183,-2.1731,-2.0527,-2.0339,-1.9959,-1.9075,-1.901,-1.9094,-1.9282,-1.9297,-1.9188,-1.8958,-1.8949,-1.8679,-1.8156,-1.8146,-1.8035,-1.78,-1.8018,-1.781,-1.7193,-1.7506,-1.7751,-3.0127,-3.0367,-3.0407,-3.0224,-2.9803,-2.8925,-2.6954,-2.6399,-2.5832,-2.4182,-2.4261,-2.4745,-2.4994,-2.5918,-2.6947,-2.7945,-2.8707,-2.9758,-3.1413,-3.1783,-3.2194,-3.2968,-3.39,-3.4473,-3.4473,-3.5117,-3.5526,-3.5524,-3.5359,-3.4561,-3.301,-3.2775,-3.2391,-3.1718,-3.0846,-3.0195,-2.9765,-2.9722,-2.9494,-2.9067,-2.9067,-2.9262,-2.9653,-2.9283,-2.9314,-2.9635,-2.9238,-2.9033,-2.9005,-2.9005,-2.9005,-2.9005,-2.9005,-2.8761,-2.8296,-2.7353,-2.6198,-2.4961,-2.3945,-2.3021,-2.2296,-2.2296,-2.2296,-2.2296,-2.2296,-2.2296,-2.2296,-2.2296,-2.2296,-2.2296,-2.2296,-2.2296,-2.2296,-2.2296,-2.2477,-2.2634,-2.2682,-2.2708,-2.2708,-2.2708,-2.2527,-2.2346,-2.231,-2.2296,-2.2296,-2.2296,-2.2296,-2.2139,-2.1696,-2.1648,-2.1329,-2.0482,-2.0062,-1.9605,-1.9056,-1.901,-1.9094,-1.9282,-1.9297,-1.9115,-1.8697,-1.8678,-1.842,-1.7872,-1.7861,-1.7856,-1.78,-1.7856,-1.7793,-1.7668,-1.7516,-1.7817,-3.0597,-3.0668,-3.0644,-3.0609,-2.9916,-2.8796,-2.7175,-2.6366,-2.5625,-2.4404,-2.4498,-2.4892,-2.5244,-2.6078,-2.687,-2.7396,-2.8116,-2.9243,-3.0972,-3.1637,-3.2469,-3.382,-3.4801,-3.5371,-3.5371,-3.5742,-3.5954,-3.5846,-3.575,-3.5317,-3.4415,-3.3431,-3.2526,-3.1737,-3.0846,-3.0162,-2.9705,-2.9705,-2.9456,-2.9005,-2.9145,-2.9322,-2.9551,-2.9416,-2.9426,-2.9542,-2.9301,-2.9134,-2.9005,-2.9005,-2.9005,-2.9005,-2.9005,-2.8409,-2.7518,-2.6983,-2.5705,-2.4144,-2.36,-2.2919,-2.2296,-2.2296,-2.2296,-2.2296,-2.2296,-2.2296,-2.2296,-2.2296,-2.2296,-2.2296,-2.2296,-2.2296,-2.2296,-2.2296,-2.2647,-2.291,-2.2746,-2.2972,-2.3117,-2.2772,-2.2599,-2.2463,-2.2321,-2.2296,-2.2296,-2.2296,-2.2426,-2.243,-2.2159,-2.2054,-2.1569,-2.0365,-2.0038,-1.9694,-1.9206,-1.9158,-1.9206,-1.9289,-1.9297,-1.9156,-1.8816,-1.866,-1.841,-1.8025,-1.7861,-1.78,-1.78,-1.7938,-1.7733,-1.7224,-1.745,-1.7737,-3.0743,-3.0679,-3.0602,-3.0602,-2.9719,-2.8508,-2.7209,-2.6293,-2.5476,-2.4593,-2.4637,-2.4961,-2.5372,-2.5998,-2.6522,-2.6816,-2.7564,-2.8751,-3.0663,-3.17,-3.2926,-3.4691,-3.5544,-3.5996,-3.5996,-3.5995,-3.5903,-3.5741,-3.5525,-3.5473,-3.5639,-3.3901,-3.2602,-3.1987,-3.0942,-3.0202,-2.9763,-2.9754,-2.9533,-2.9089,-2.9299,-2.9402,-2.9412,-2.9504,-2.9504,-2.9402,-2.9341,-2.9181,-2.9005,-2.9005,-2.9005,-2.9005,-2.9005,-2.8087,-2.6787,-2.661,-2.5209,-2.3376,-2.3224,-2.2784,-2.2296,-2.2296,-2.2296,-2.2296,-2.2296,-2.2296,-2.2296,-2.2296,-2.2296,-2.2296,-2.2296,-2.2296,-2.2307,-2.2374,-2.276,-2.3045,-2.286,-2.3123,-2.3271,-2.2784,-2.266,-2.2577,-2.2412,-2.2388,-2.2415,-2.248,-2.2665,-2.2765,-2.267,-2.258,-2.1986,-2.0598,-2.0291,-1.9945,-1.9355,-1.9297,-1.9297,-1.9297,-1.9297,-1.918,-1.8931,-1.8715,-1.845,-1.8114,-1.7922,-1.78,-1.78,-1.8014,-1.7748,-1.7041,-1.763,-1.7867,-3.0857,-3.0742,-3.0602,-3.0602,-3.0133,-2.9265,-2.7642,-2.6994,-2.6385,-2.5024,-2.4884,-2.5046,-2.5274,-2.5426,-2.5777,-2.6592,0.0,-2.9003,-3.1595,-3.2673,-3.3852,-3.5663,-3.5957,-3.5996,-3.5996,-3.5947,-3.5905,-3.5877,-3.4975,-3.4742,-3.5483,-3.3846,-3.2872,-3.2795,-3.1231,-3.026,-2.9977,-2.9977,-2.9763,-2.9361,-2.9392,-2.9402,-2.9392,-2.916,-2.9181,-2.9392,-2.9145,-2.9028,-2.9005,-2.9005,-2.9005,-2.9005,-2.9005,-2.8087,-2.6716,-2.5993,-2.4735,-2.3291,-2.2632,-2.2347,-2.2296,-2.2296,-2.2296,-2.2296,-2.2296,-2.2296,-2.2296,-2.2296,-2.2296,-2.2296,-2.2296,-2.2296,-2.236,-2.2612,-2.2708,-2.2822,-2.3093,-2.2773,-2.248,-2.266,-2.25,-2.2415,-2.2621,-2.2656,-2.2759,-2.3069,-2.3147,-2.2999,-2.2564,-2.2512,-2.2282,-2.1715,-2.0944,-2.0156,-1.937,-1.9297,-1.9297,-1.9297,-1.9297,-1.9089,-1.8669,-1.8604,-1.8361,-1.7856,-1.7811,-1.78,-1.78,-1.7822,-1.7915,-1.8073,-1.8383,-1.8645,-3.075,-3.1068,-3.125,-3.0734,-2.983,-2.8793,-2.7721,-2.6801,-2.5933,-2.5084,-2.4962,-2.5061,-2.5324,-2.5379,-2.5527,0.0,0.0,0.0,-3.0155,-3.0816,-3.2051,-3.4883,-3.5215,-3.5409,-3.5887,-3.5913,-3.5856,-3.5741,-3.4807,-3.4391,-3.4706,-3.3103,-3.2179,-3.2179,-3.1019,-3.0267,-3.0006,-3.0006,-2.9861,-2.9579,-2.9464,-2.9402,-2.9392,-2.9123,-2.9055,-2.9156,-2.9051,-2.9005,-2.8968,-2.8484,-2.8565,-2.8895,-2.7923,-2.7063,-2.6252,-2.5244,-2.4201,-2.3185,-2.2531,-2.2415,-2.2514,-2.2349,-2.2296,-2.2296,-2.2296,-2.2296,-2.2296,-2.2296,-2.2296,-2.2296,-2.2296,-2.2296,-2.236,-2.2634,-2.2708,-2.2699,-2.2673,-2.2747,-2.2773,-2.2517,-2.2673,-2.2807,-2.2721,-2.2873,-2.3045,-2.3177,-2.3369,-2.3436,-2.3256,-2.3404,-2.3269,-2.2602,-2.1318,-2.0364,-2.0052,-1.9583,-1.9243,-1.9125,-1.9227,-1.9081,-1.8614,-1.8595,-1.842,-1.8057,-1.7872,-1.78,-1.78,-1.78,-1.7938,-1.8208,-1.8479,-1.8669,-3.0625,-3.1072,-3.1345,-3.0752,-2.9791,-2.8776,-2.7828,-2.69,-2.5992,-2.5165,-2.504,-2.5154,-2.5346,-2.5379,-2.5387,0.0,0.0,-2.7009,-2.9179,-2.9914,-3.1257,-3.3984,-3.4296,-3.4602,-3.5437,-3.5697,-3.5732,-3.5582,-3.4481,-3.3821,-3.3821,-3.2237,-3.1429,-3.1698,-3.0846,-3.0311,-3.0129,-3.0129,-3.0011,-2.978,-2.9589,-2.9464,-2.9392,-2.9123,-2.9005,-2.9005,-2.9005,-2.9005,-2.8932,-2.8136,-2.8136,-2.851,-2.7134,-2.6239,-2.5641,-2.4843,-2.3975,-2.3135,-2.2594,-2.2537,-2.266,-2.2388,-2.2296,-2.2296,-2.2296,-2.2296,-2.2296,-2.2296,-2.2363,-2.244,-2.2531,-2.2638,-2.2738,-2.284,-2.2923,-2.2928,-2.262,-2.2895,-2.3075,-2.2664,-2.2908,-2.3153,-2.3021,-2.3189,-2.338,-2.3488,-2.3692,-2.3855,-2.3855,-2.4046,-2.3988,-2.3419,-2.2089,-2.1043,-2.0539,-1.9987,-1.9483,-1.9102,-1.9212,-1.9132,-1.8725,-1.8725,-1.8547,-1.8208,-1.8014,-1.7872,-1.78,-1.78,-1.7938,-1.8198,-1.8391,-1.8518,-3.0469,-3.0611,-3.0528,-3.0584,-3.0297,-2.9568,-2.7955,-2.7535,-2.7019,-2.5348,-2.5157,-2.5303,-2.5308,-2.5308,-2.5308,-2.5288,0.0,0.0,-2.9262,-3.0891,-3.2329,-3.3301,-3.3351,-3.3664,-3.4534,-3.5201,-3.5571,-3.5514,-3.3891,-3.291,-3.291,-3.1327,-3.0808,-3.1679,-3.0846,-3.0404,-3.0398,-3.0398,-3.026,-2.9999,-2.9788,-2.9598,-2.9392,-2.9123,-2.9005,-2.9005,-2.9005,-2.9005,-2.8932,-2.8136,-2.7798,-2.7732,-2.6924,-2.591,-2.4913,-2.4901,-2.418,-2.3153,-2.281,-2.2695,-2.266,-2.2388,-2.2296,-2.2296,-2.2296,-2.2296,-2.2296,-2.2296,-2.2487,-2.2772,-2.3105,-2.3444,-2.3599,-2.3271,-2.3448,-2.3599,-2.3247,-2.3189,-2.32,-2.3189,-2.3189,-2.3294,-2.3621,-2.3692,-2.3806,-2.4141,-2.419,-2.419,-2.419,-2.419,-2.419,-2.419,-2.3456,-2.2309,-2.0631,-2.0484,-2.0144,-1.9352,-1.9297,-1.9214,-1.8992,-1.9002,-1.8743,-1.8208,-1.8198,-1.8078,-1.78,-1.78,-1.7938,-1.8198,-1.8198,-1.8351,-2.8913,-2.9627,-3.0167,-2.9094,-2.8557,-2.8044,-2.7123,-2.6765,-2.6333,-2.5393,-2.5259,-2.5317,-2.5363,-2.5375,-2.5753,-2.6951,-2.7662,0.0,-3.0028,-3.1299,-3.239,-3.3281,-3.4303,-3.5043,-3.5332,-3.5451,-3.5522,-3.5507,-3.3891,-3.2891,-3.2891,-3.1308,-3.0538,-3.0808,-3.0538,-3.0404,-3.0404,-3.0404,-3.0361,-3.0267,-2.988,-2.9661,-2.9598,-2.9174,-2.9005,-2.9005,-2.9005,-2.9005,-2.8895,-2.7548,-2.7291,-2.7614,-2.5695,-2.5075,-2.5147,-2.4375,-2.4002,-2.3806,-2.3242,-2.3045,-2.2984,-2.2678,-2.245,-2.2296,-2.2296,-2.2296,-2.2335,-2.2527,-2.2634,-2.2784,-2.3117,-2.3105,-2.2996,-2.2868,-2.3117,-2.3277,-2.2935,-2.3212,-2.3471,-2.3236,-2.3566,-2.3837,-2.3714,-2.3896,-2.4084,-2.418,-2.419,-2.419,-2.419,-2.419,-2.419,-2.419,-2.3969,-2.3162,-2.1528,-2.0841,-2.0097,-1.9147,-1.9212,-1.9132,-1.8743,-1.8905,-1.8752,-1.8208,-1.8198,-1.8078,-1.78,-1.78,-1.7938,-1.8198,-1.8198,-1.8249,-2.8038,-2.871,-2.9212,-2.8232,-2.7851,-2.7495,-2.6805,-2.6535,-2.6227,-2.5489,-2.5344,-2.5346,-2.5395,-2.5372,-2.5735,-2.6872,-2.7618,-2.8554,-2.9981,-3.1269,-3.2381,-3.3224,-3.4455,-3.5228,-3.515,-3.5359,-3.5365,-3.5026,-3.3699,-3.2776,-3.2468,-3.1154,-3.0404,-3.0404,-3.0404,-3.0404,-3.0404,-3.0404,-3.0404,-3.0398,-2.9912,-2.9705,-2.9687,-2.9217,-2.9005,-2.8987,-2.8675,-2.8546,0.0,-2.7134,-2.6722,-2.6751,-2.5246,-2.4768,-2.4859,-2.4158,-2.4016,-2.4113,-2.3577,-2.3311,-2.3165,-2.296,-2.2691,-2.245,-2.245,-2.245,-2.2541,-2.2965,-2.3081,-2.3153,-2.35,-2.3414,-2.3277,-2.3277,-2.3426,-2.3522,-2.3311,-2.3588,-2.3827,-2.3628,-2.3917,-2.4123,-2.3917,-2.4064,-2.419,-2.419,-2.419,-2.419,-2.419,-2.419,-2.419,-2.419,-2.419,-2.3676,-2.2354,-2.1473,-2.059,-1.9618,-1.9402,-1.918,-1.8869,-1.9016,-1.8913,-1.8508,-1.84,-1.8218,-1.7949,-1.7856,-1.79,-1.8057,-1.8057,-1.8057,0.0,-2.7811,-2.7802,-2.781,-2.7811,-2.7609,-2.68,-2.6651,0.0,-2.5592,-2.5401,-2.542,-2.5498,-2.5401,-2.544,-2.5807,-2.7139,-2.8472,-2.9517,-3.1068,-3.2418,-3.329,-3.4108,-3.4512,-3.4308,-3.4975,-3.5064,-3.4263,-3.3333,-3.2487,-3.1737,-3.0865,-3.0404,-3.0404,-3.0404,-3.0404,-3.0404,-3.0404,-3.0398,-3.0361,-2.9931,-2.9696,-2.9661,-2.9151,-2.8913,-2.8877,-2.8062,-2.7714,-2.764,-2.6851,-2.6062,-2.5393,-2.5338,-2.486,-2.419,-2.419,-2.419,-2.4161,-2.3837,-2.3522,-2.3224,-2.32,-2.2996,-2.2746,-2.2772,-2.2759,-2.2873,-2.3522,-2.3703,-2.3774,-2.4084,-2.4161,-2.4161,-2.4123,-2.417,-2.419,-2.417,-2.418,-2.419,-2.419,-2.419,-2.419,-2.419,-2.419,-2.419,-2.419,-2.419,-2.419,-2.419,-2.419,-2.419,-2.419,-2.419,-2.3896,-2.3153,-2.2354,-2.1492,-2.0566,-1.9803,-1.9352,-1.9297,-1.9297,-1.9214,-1.8992,-1.8725,-1.845,-1.8198,-1.7927,-1.78,-1.78,-1.78,-1.78,-2.5936,0.0,-2.6837,-2.6169,-2.6059,-2.6026,0.0,-2.5787,-2.5736,-2.5529,-2.5488,-2.5698,-2.6428,-2.5993,-2.6398,-2.9049,-2.9348,-2.972,-3.1145,-3.2294,-3.3562,-3.5088,-3.5352,-3.5383,-3.5289,-3.4815,-3.441,-3.4225,-3.2814,-3.191,-3.1718,-3.0865,-3.0404,-3.0404,-3.0404,-3.0404,-3.0404,-3.0404,-3.0305,-3.0089,-2.984,-2.9626,-2.9445,-2.8503,-2.8081,-2.8044,-2.7236,-2.6888,-2.6814,-2.6017,-2.5576,-2.5338,-2.4713,-2.4373,-2.419,-2.419,-2.419,-2.418,-2.4103,-2.3847,-2.3544,-2.3271,-2.3141,-2.3129,-2.338,-2.3288,-2.3165,-2.3577,-2.3703,-2.3714,-2.3795,-2.3816,-2.3746,-2.35,-2.3827,-2.4141,-2.3876,-2.4016,-2.419,-2.419,-2.419,-2.419,-2.419,-2.419,-2.419,-2.419,-2.419,-2.419,-2.419,-2.419,-2.419,-2.419,-2.419,-2.4116,-2.3933,-2.318,-2.207,-2.0594,-2.0327,-1.995,-1.9334,-1.9297,-1.9214,-1.8992,-1.8537,-1.8259,-1.8198,-1.7927,-1.78,-1.78,-1.78,-1.78,-2.5383,-2.6041,-2.6598,-2.6143,-2.6094,-2.6137,-2.6137,-2.5858,-2.5573,-2.5554,-2.5549,-2.5694,-2.6204,-2.6214,-2.6778,-2.8695,-2.9309,-3.0259,-3.2253,-3.3663,-3.4815,-3.5665,-3.5706,-3.5626,-3.5562,-3.4738,-3.4032,-3.3622,-3.2429,-3.1525,-3.1115,-3.0654,-3.0404,-3.0404,-3.0404,-3.0404,-3.0404,-3.0404,-3.026,-2.9999,-2.9796,-2.9598,-2.9373,-2.8673,-2.8154,-2.775,-2.6961,-2.6392,-2.6007,-2.5576,-2.5172,-2.4842,-2.4787,-2.453,-2.419,-2.419,-2.419,-2.419,-2.419,-2.4084,-2.3837,-2.3357,-2.3294,-2.3459,-2.3631,-2.3577,-2.3511,-2.3845,-2.3927,-2.3927,-2.3927,-2.3927,-2.3886,-2.3703,-2.3927,-2.4151,-2.3976,-2.4074,-2.419,-2.419,-2.419,-2.419,-2.419,-2.419,-2.419,-2.419,-2.419,-2.419,-2.419,-2.419,-2.419,-2.419,-2.419,-2.419,-2.419,-2.3804,-2.3006,-2.174,-2.13,-2.0721,-1.9895,-1.9858,-1.9571,-1.901,-1.8585,-1.832,-1.8198,-1.7927,-1.78,-1.78,-1.78,-1.78,-2.5596,-2.6269,-2.688,-2.6658,-2.6745,-2.6903,-2.6903,0.0,0.0,-2.5808,-2.5706,-2.5706,-2.596,-2.6464,-2.7032,-2.7694,-2.9075,-3.0873,-3.3186,-3.4763,-3.5652,-3.5621,-3.5611,-3.5513,-3.5328,-3.4507,-3.3641,-3.2776,-3.1968,-3.1173,-3.0442,-3.0404,-3.0404,-3.0404,-3.0404,-3.0404,-3.0404,-3.0404,-3.0248,-2.9954,-2.978,-2.9579,-2.933,-2.8972,-2.8436,-2.7761,-2.6814,-2.6025,-2.5393,-2.5264,-2.4824,-2.4263,-2.4952,-2.4805,-2.419,-2.419,-2.419,-2.419,-2.419,-2.419,-2.4103,-2.3533,-2.3544,-2.3785,-2.3785,-2.3785,-2.3845,-2.4113,-2.419,-2.419,-2.419,-2.419,-2.419,-2.419,-2.419,-2.419,-2.419,-2.419,-2.419,-2.419,-2.419,-2.419,-2.419,-2.419,-2.419,-2.419,-2.419,-2.419,-2.419,-2.419,-2.419,-2.419,-2.419,-2.419,-2.419,-2.419,-2.3914,-2.3226,-2.2428,-2.1547,-2.0548,-2.0503,-2.0036,-1.907,-1.8761,-1.8489,-1.8259,-1.7949,-1.78,-1.78,-1.78,-1.78,-2.6443,-2.7305,-2.7608,-2.6089,-2.6308,-2.6903,-2.6903,-2.6236,0.0,0.0,-2.6191,-2.6132,-2.7617,-2.7381,-2.7948,-3.0918,-3.2141,-3.3117,-3.4241,-3.4577,-3.4931,-3.5529,-3.5611,-3.5287,-3.4488,-3.3603,-3.2756,-3.1948,-3.1096,-3.0538,-3.0404,-3.0404,-3.0404,-3.0404,-3.0404,-3.0404,-3.0404,-3.0404,-3.0188,-2.9756,-2.9703,-2.9485,-2.9037,-2.8323,-2.7915,-2.7725,-2.6237,-2.5503,-2.5338,-2.4677,-2.43,-2.4208,-2.4337,-2.43,-2.419,-2.419,-2.419,-2.419,-2.419,-2.419,-2.418,-2.4084,-2.4084,-2.4113,-2.4113,-2.4113,-2.4123,-2.418,-2.419,-2.419,-2.419,-2.419,-2.419,-2.419,-2.419,-2.419,-2.419,-2.419,-2.419,-2.419,-2.419,-2.419,-2.419,-2.419,-2.419,-2.419,-2.419,-2.419,-2.419,-2.419,-2.419,-2.419,-2.419,-2.419,-2.419,-2.419,-2.4153,-2.4025,-2.3272,-2.2125,-2.0558,-2.0503,-2.011,-1.9269,-1.8816,-1.8576,-1.8537,-1.8046,-1.78,-1.78,-1.78,-1.78,-2.6062,-2.6862,-2.7323,-2.6425,-2.7255,-2.8289,-2.8201,-2.7573,-2.7125,0.0,-2.7361,-2.7344,-2.8144,-2.8359,-2.9082,-3.1152,-3.2537,-3.3461,-3.3792,-3.4224,-3.475,-3.5454,-3.5121,-3.4673,-3.4231,-3.3026,-3.2102,-3.1737,-3.0885,-3.0404,-3.0404,-3.0404,-3.0404,-3.0404,-3.0404,-3.0404,-3.0404,-3.0404,-3.0221,-2.9861,-2.9746,-2.9533,-2.9203,-2.868,-2.8209,-2.7732,-2.6557,-2.5797,-2.5338,-2.453,-2.419,-2.419,-2.419,-2.419,-2.419,-2.419,-2.419,-2.419,-2.419,-2.419,-2.419,-2.419,-2.419,-2.419,-2.419,-2.419,-2.419,-2.419,-2.419,-2.419,-2.419,-2.419,-2.419,-2.419,-2.419,-2.419,-2.419,-2.419,-2.419,-2.419,-2.419,-2.419,-2.419,-2.419,-2.419,-2.419,-2.419,-2.419,-2.419,-2.419,-2.419,-2.419,-2.419,-2.419,-2.419,-2.419,-2.419,-2.419,-2.3428,-2.2456,-2.1253,-2.0749,-2.0126,-1.9315,-1.8973,-1.8743,-1.8595,-1.8208,-1.7938,-1.78,-1.78,-1.78,-2.5862,-2.6442,-2.7029,-2.7106,-2.8004,-2.8989,-2.9479,-2.8843,-2.8264,-2.8694,-2.8659,-2.8572,-2.8594,-2.9473,-3.043,-3.1094,-3.2441,-3.3351,-3.3225,-3.3767,-3.4376,-3.4828,-3.4295,-3.3821,-3.3628,-3.2449,-3.1621,-3.141,-3.0788,-3.0404,-3.0404,-3.0404,-3.0404,-3.0404,-3.0404,-3.0404,-3.0404,-3.0404,-3.026,-2.9999,-2.9796,-2.9598,-2.9392,-2.9123,-2.8565,-2.775,-2.6961,-2.6135,-2.5338,-2.453,-2.419,-2.419,-2.419,-2.419,-2.419,-2.419,-2.419,-2.419,-2.419,-2.419,-2.419,-2.419,-2.419,-2.419,-2.419,-2.419,-2.419,-2.419,-2.419,-2.419,-2.419,-2.419,-2.419,-2.419,-2.419,-2.419,-2.419,-2.419,-2.419,-2.419,-2.419,-2.419,-2.419,-2.419,-2.419,-2.419,-2.419,-2.419,-2.419,-2.419,-2.419,-2.419,-2.419,-2.419,-2.419,-2.419,-2.419,-2.419,-2.3621,-2.2923,-2.2106,-2.1253,-2.0427,-1.9601,-1.9201,-1.8905,-1.8697,-1.8361,-1.8082,-1.7883,-1.7833,-1.78,-2.6656,-2.6953,-2.7186,-2.7925,-2.754,-2.7587,-2.9897,-2.9175,-2.8488,-3.0178,-2.9882,-2.9351,-2.9472,-3.0879,-3.2031,-3.2109,-3.2832,-3.3352,-3.3215,-3.3252,-3.3239,-3.3102,-3.3026,-3.2699,-3.1948,-3.1775,-3.1365,-3.0558,-3.0442,-3.0404,-3.0404,-3.0404,-3.0404,-3.0404,-3.0404,-3.0404,-3.0404,-3.0404,-3.026,-2.9999,-2.9796,-2.9598,-2.9392,-2.9123,-2.8565,-2.775,-2.6961,-2.6135,-2.5338,-2.453,-2.419,-2.419,-2.419,-2.419,-2.419,-2.419,-2.419,-2.419,-2.419,-2.419,-2.419,-2.419,-2.419,-2.419,-2.419,-2.419,-2.419,-2.419,-2.419,-2.419,-2.419,-2.419,-2.419,-2.419,-2.419,-2.419,-2.419,-2.419,-2.419,-2.419,-2.419,-2.419,-2.419,-2.419,-2.419,-2.419,-2.419,-2.419,-2.419,-2.419,-2.419,-2.419,-2.419,-2.419,-2.419,-2.419,-2.419,-2.419,-2.4153,-2.3749,-2.2951,-2.2134,-2.129,-2.0437,-1.9474,-1.8984,-1.8966,-1.845,-1.8187,-1.8166,-1.7916,-1.78,-2.6093,-2.6582,-2.7187,-2.8007,-2.7933,-2.8173,-3.0063,-3.0451,-3.0772,-3.1991,-3.2058,-3.1754,-3.1308,-3.1758,-3.2012,-3.1484,-3.2109,-3.2591,-3.2414,-3.2389,-3.2512,-3.2851,-3.2468,-3.2025,-3.1737,-3.1212,-3.075,-3.0423,-3.0404,-3.0404,-3.0404,-3.0404,-3.0404,-3.0404,-3.0404,-3.0404,-3.0404,-3.0404,-3.0355,-3.0248,-2.988,-2.9661,-2.957,-2.9192,-2.8565,-2.775,-2.6961,-2.6135,-2.5338,-2.453,-2.419,-2.419,-2.419,-2.419,-2.419,-2.419,-2.419,-2.419,-2.419,-2.419,-2.419,-2.419,-2.419,-2.419,-2.419,-2.419,-2.419,-2.419,-2.419,-2.419,-2.419,-2.419,-2.419,-2.419,-2.419,-2.419,-2.419,-2.419,-2.419,-2.419,-2.419,-2.419,-2.419,-2.419,-2.419,-2.419,-2.419,-2.419,-2.419,-2.419,-2.419,-2.419,-2.419,-2.419,-2.419,-2.419,-2.419,-2.419,-2.419,-2.3841,-2.3024,-2.2226,-2.1382,-2.0529,-1.9632,-1.9117,-1.901,-1.8623,-1.8361,-1.8187,-1.7916,-1.78,-2.6093,-2.6523,-2.7167,-2.8019,0.0,-2.8688,-3.0552,-3.1456,-3.2155,-3.3048,-3.3124,-3.2851,-3.2305,-3.2207,-3.1914,-3.1035,-3.1601,-3.1997,-3.1551,-3.1472,-3.1622,-3.2056,-3.1621,-3.1288,-3.1288,-3.075,-3.0404,-3.0404,-3.0404,-3.0404,-3.0404,-3.0404,-3.0404,-3.0404,-3.0404,-3.0404,-3.0404,-3.0404,-3.0404,-3.0398,-2.9981,-2.9788,-2.978,-2.9037,-2.8267,-2.7466,-2.6599,-2.575,-2.497,-2.4438,-2.419,-2.419,-2.419,-2.419,-2.419,-2.419,-2.419,-2.419,-2.419,-2.419,-2.419,-2.419,-2.419,-2.419,-2.419,-2.419,-2.419,-2.419,-2.419,-2.419,-2.419,-2.419,-2.419,-2.419,-2.419,-2.419,-2.419,-2.419,-2.419,-2.419,-2.419,-2.419,-2.419,-2.419,-2.419,-2.419,-2.419,-2.419,-2.419,-2.419,-2.419,-2.419,-2.419,-2.419,-2.419,-2.419,-2.419,-2.419,-2.419,-2.3841,-2.3024,-2.2226,-2.1382,-2.0529,-1.9711,-1.9219,-1.9084,-1.8852,-1.8623,-1.844,-1.8082,-1.7927,-2.6925,-2.6945,-2.7146,-2.8085,-2.8274,-2.8895,-3.1446,-3.1958,-3.2172,-3.3119,-3.2726,-3.2207,-3.2207,-3.2187,-3.1894,-3.1035,-3.1515,-3.1657,-3.0734,-3.0548,-3.0472,-3.0402,-3.0404,-3.0404,-3.0404,-3.0404,-3.0404,-3.0404,-3.0404,-3.0404,-3.0404,-3.0404,-3.0404,-3.0404,-3.0404,-3.0404,-3.0404,-3.0404,-3.0404,-3.0404,-3.0117,-2.9987,-2.9953,-2.8687,-2.7662,-2.6832,-2.5834,-2.4934,-2.419,-2.419,-2.419,-2.419,-2.419,-2.419,-2.419,-2.419,-2.419,-2.419,-2.419,-2.419,-2.419,-2.419,-2.419,-2.419,-2.419,-2.419,-2.419,-2.419,-2.419,-2.419,-2.419,-2.419,-2.419,-2.419,-2.419,-2.419,-2.419,-2.419,-2.419,-2.419,-2.419,-2.419,-2.419,-2.419,-2.419,-2.419,-2.419,-2.419,-2.419,-2.419,-2.419,-2.419,-2.419,-2.419,-2.419,-2.419,-2.419,-2.419,-2.419,-2.3841,-2.3024,-2.2226,-2.14,-2.0529,-1.9711,-1.9315,-1.9297,-1.9111,-1.901,-1.9002,-1.845,-1.8198,-2.6092,-2.6831,-2.7961,-2.8908,-3.0012,-3.1248,-3.2655,-3.293,-3.315,-3.4096,-3.3612,-3.2871,-3.2305,-3.1699,-3.1191,-3.0937,-3.1007,-3.0973,-3.0653,-3.0548,-3.0472,-3.0402,-3.0404,-3.0404,-3.0404,-3.0404,-3.0404,-3.0404,-3.0404,-3.0404,-3.0404,-3.0404,-3.0404,-3.0404,-3.0404,-3.0404,-3.0404,-3.0404,-3.0404,-3.0385,-2.9709,-2.9296,-2.9134,-2.8424,-2.7354,-2.6032,-2.5594,-2.4934,-2.419,-2.419,-2.419,-2.419,-2.419,-2.419,-2.419,-2.419,-2.419,-2.419,-2.419,-2.419,-2.419,-2.419,-2.419,-2.419,-2.419,-2.419,-2.419,-2.419,-2.419,-2.419,-2.419,-2.419,-2.419,-2.419,-2.419,-2.419,-2.419,-2.419,-2.419,-2.419,-2.419,-2.419,-2.419,-2.419,-2.419,-2.419,-2.419,-2.419,-2.419,-2.419,-2.419,-2.419,-2.419,-2.419,-2.419,-2.419,-2.419,-2.419,-2.419,-2.3841,-2.3024,-2.2767,-2.196,-2.0529,-2.0272,-1.9877,-1.9297,-1.9111,-1.901,-1.8984,-1.8632,-1.8479,-2.6968,-2.7548,-2.8484,-3.0084,-3.1039,-3.1985,-3.3554,-3.3884,-3.4018,-3.459,-3.4004,-3.3144,-3.2344,-3.1777,-3.1309,-3.0957,-3.1056,-3.1044,-3.065,-3.0528,-3.0451,-3.0396,-3.0404,-3.0404,-3.0404,-3.0404,-3.0404,-3.0404,-3.0404,-3.0404,-3.0404,-3.0404,-3.0404,-3.0404,-3.0404,-3.0404,-3.0404,-3.0404,-3.0231,-2.989,-2.9357,-2.8691,-2.7905,-2.7476,-2.6742,-2.5799,-2.518,-2.4698,-2.4312,-2.4237,-2.419,-2.419,-2.419,-2.419,-2.419,-2.419,-2.419,-2.419,-2.419,-2.419,-2.419,-2.419,-2.419,-2.419,-2.419,-2.419,-2.419,-2.419,-2.419,-2.419,-2.419,-2.419,-2.419,-2.419,-2.419,-2.419,-2.419,-2.419,-2.419,-2.419,-2.419,-2.419,-2.419,-2.419,-2.419,-2.419,-2.419,-2.419,-2.419,-2.419,-2.419,-2.419,-2.419,-2.419,-2.419,-2.419,-2.419,-2.419,-2.419,-2.3841,-2.3024,-2.3006,-2.2364,-2.1051,-2.0676,-2.0254,-1.9785,-1.9328,-1.9117,-1.9109,-1.8869,-1.8706,-2.8627,-2.8689,-2.8891,-3.1363,-3.1672,-3.1973,-3.4297,-3.4824,-3.4766,-3.4609,-3.3887,-3.3047,-3.2226,-3.207,-3.1816,-3.1035,-3.1409,-3.1507,-3.0703,-3.0486,-3.0404,-3.0404,-3.0404,-3.0404,-3.0404,-3.0404,-3.0404,-3.0404,-3.0404,-3.0404,-3.0404,-3.0404,-3.0404,-3.0404,-3.0404,-3.0404,-3.0404,-3.0404,-2.9967,-2.9107,-2.903,-2.814,-2.6591,-2.6198,-2.5963,-2.5797,-2.4689,-2.433,-2.4452,-2.4284,-2.419,-2.419,-2.419,-2.419,-2.419,-2.419,-2.419,-2.419,-2.419,-2.419,-2.419,-2.419,-2.419,-2.419,-2.419,-2.419,-2.419,-2.419,-2.419,-2.419,-2.419,-2.419,-2.419,-2.419,-2.419,-2.419,-2.419,-2.419,-2.419,-2.419,-2.419,-2.419,-2.419,-2.419,-2.419,-2.419,-2.419,-2.419,-2.419,-2.419,-2.419,-2.419,-2.419,-2.419,-2.419,-2.419,-2.419,-2.419,-2.419,-2.3878,-2.3134,-2.3116,-2.2703,-2.1812,-2.108,-2.0649,-2.0511,-1.9767,-1.937,-1.9289,-1.9109,-1.8896,-2.7268,-2.8512,-3.0231,-3.1587,-3.342,-3.5059,-3.5605,-3.5723,-3.5332,-3.3965,-3.3027,-3.2207,-3.1348,-3.1172,-3.1113,-3.0937,-3.0881,-3.082,-3.0622,-3.0486,-3.0404,-3.0404,-3.0404,-3.0404,-3.0404,-3.0404,-3.0404,-3.0404,-3.0404,-3.0404,-3.0404,-3.0404,-3.0404,-3.0404,-3.0404,-3.0404,-3.0404,-3.0404,-2.9967,-2.9088,-2.8453,-2.7601,-2.6596,-2.6358,-2.5712,-2.4812,-2.4544,-2.4366,-2.4257,-2.4218,-2.419,-2.419,-2.419,-2.419,-2.419,-2.419,-2.419,-2.419,-2.419,-2.419,-2.419,-2.419,-2.419,-2.419,-2.419,-2.419,-2.419,-2.419,-2.419,-2.419,-2.419,-2.419,-2.419,-2.419,-2.419,-2.419,-2.419,-2.419,-2.419,-2.419,-2.419,-2.419,-2.419,-2.419,-2.419,-2.419,-2.419,-2.419,-2.419,-2.419,-2.419,-2.419,-2.419,-2.419,-2.419,-2.419,-2.419,-2.419,-2.419,-2.4116,-2.3951,-2.3933,-2.3272,-2.1831,-2.2244,-2.1813,-2.0503,-2.0327,-1.9913,-1.9297,-1.9269,-1.9204,-2.7582,-2.879,-3.0356,-3.2587,-3.4564,-3.5948,-3.5948,-3.5643,-3.5,-3.3672,-3.3066,-3.2383,-3.1133,-3.0898,-3.0898,-3.0898,-3.0725,-3.0603,-3.0603,-3.0486,-3.0404,-3.0404,-3.0404,-3.0404,-3.0404,-3.0404,-3.0404,-3.0404,-3.0404,-3.0404,-3.0404,-3.0404,-3.0404,-3.0404,-3.0404,-3.0192,-2.9775,-2.9775,-2.914,-2.789,-2.7486,-2.6813,-2.5976,-2.5763,-2.5329,-2.4737,-2.4575,-2.4495,-2.4469,-2.4275,-2.419,-2.419,-2.419,-2.419,-2.419,-2.419,-2.419,-2.419,-2.419,-2.419,-2.419,-2.419,-2.419,-2.419,-2.419,-2.419,-2.419,-2.419,-2.419,-2.419,-2.419,-2.419,-2.419,-2.419,-2.419,-2.419,-2.419,-2.419,-2.419,-2.419,-2.419,-2.419,-2.419,-2.419,-2.419,-2.419,-2.419,-2.419,-2.419,-2.419,-2.419,-2.419,-2.419,-2.419,-2.419,-2.419,-2.419,-2.419,-2.419,-2.419,-2.419,-2.419,-2.3804,-2.2969,-2.2978,-2.2566,-2.1703,-2.13,-2.0904,-2.049,-2.006,-1.9821,-2.8102,-2.9154,-3.0412,-3.3654,-3.5187,-3.5901,-3.5901,-3.5284,-3.4453,-3.3574,-3.3281,-3.2715,-3.1172,-3.0898,-3.0898,-3.0878,-3.0719,-3.06,-3.0584,-3.0472,-3.0404,-3.0404,-3.0404,-3.0404,-3.0404,-3.0404,-3.0404,-3.0404,-3.0404,-3.0327,-3.0173,-3.0327,-3.0339,-3.0194,-3.0188,-2.9858,-2.9138,-2.8997,-2.8139,-2.6612,-2.6458,-2.6,-2.5284,-2.5135,-2.5034,-2.4973,-2.467,-2.4623,-2.4723,-2.4348,-2.419,-2.419,-2.419,-2.419,-2.419,-2.419,-2.419,-2.419,-2.419,-2.419,-2.419,-2.419,-2.419,-2.419,-2.419,-2.419,-2.419,-2.419,-2.419,-2.419,-2.419,-2.4228,-2.4256,-2.4256,-2.4256,-2.4247,-2.4199,-2.419,-2.419,-2.419,-2.4228,-2.4256,-2.4256,-2.4256,-2.4256,-2.4256,-2.4218,-2.419,-2.419,-2.419,-2.419,-2.419,-2.419,-2.419,-2.419,-2.419,-2.419,-2.419,-2.419,-2.419,-2.419,-2.419,-2.419,-2.419,-2.3547,-2.3134,-2.3006,-2.2336,-2.1941,-2.1776,-2.107,-2.0639,-2.6832,-2.9149,-3.1915,-3.3853,-3.511,-3.5901,-3.5901,-3.5284,-3.4453,-3.3574,-3.2851,-3.2051,-3.1074,-3.0898,-3.0858,-3.0745,-3.0657,-3.0578,-3.0517,-3.0456,-3.0404,-3.0404,-3.0404,-3.0404,-3.0404,-3.0404,-3.0404,-3.0404,-3.0404,-3.0077,-2.9319,-2.9981,-3.0081,-2.9373,-2.936,-2.9326,-2.9276,-2.8516,-2.7658,-2.6671,-2.5861,-2.5404,-2.5308,-2.5269,-2.5163,-2.4998,-2.4835,-2.4678,-2.4528,-2.4294,-2.419,-2.419,-2.419,-2.419,-2.419,-2.419,-2.419,-2.419,-2.419,-2.419,-2.419,-2.419,-2.419,-2.419,-2.419,-2.419,-2.419,-2.419,-2.419,-2.419,-2.419,-2.4339,-2.4452,-2.4452,-2.4452,-2.4419,-2.4237,-2.419,-2.419,-2.419,-2.433,-2.4452,-2.4452,-2.4452,-2.4452,-2.4452,-2.4312,-2.419,-2.419,-2.419,-2.419,-2.419,-2.419,-2.419,-2.419,-2.419,-2.419,-2.419,-2.419,-2.419,-2.419,-2.419,-2.419,-2.419,-2.4098,-2.3694,-2.3006,-2.2896,-2.2483,-2.1794,-2.1684,-2.1612,-2.7601,-2.9484,-3.1537,-3.3693,-3.4637,-3.5139,-3.5669,-3.5196,-3.4407,-3.3574,-3.2754,-3.1934,-3.1055,-3.0898,-3.0858,-3.072,-3.0633,-3.0575,-3.0516,-3.0441,-3.0404,-3.0404,-3.0404,-3.0404,-3.0404,-2.9967,-2.9871,-3.0365,-2.9519,-2.9025,-2.9107,-2.951,-2.9573,-2.9205,-2.9249,-2.9059,-2.8632,-2.7757,-2.6863,-2.5964,-2.5523,-2.5308,-2.5308,-2.5308,-2.5259,-2.5152,-2.4903,-2.4753,-2.4639,-2.4339,-2.419,-2.419,-2.419,-2.419,-2.419,-2.419,-2.419,-2.419,-2.419,-2.419,-2.419,-2.419,-2.419,-2.419,-2.419,-2.419,-2.419,-2.419,-2.419,-2.4228,-2.4348,-2.4426,-2.4537,-2.4639,-2.4575,-2.4478,-2.4393,-2.4275,-2.419,-2.419,-2.4357,-2.4461,-2.4348,-2.4436,-2.4461,-2.4339,-2.4266,-2.419,-2.419,-2.419,-2.419,-2.419,-2.419,-2.419,-2.419,-2.4303,-2.4321,-2.4199,-2.4312,-2.4321,-2.4199,-2.419,-2.419,-2.419,-2.419,-2.4025,-2.3676,-2.3676,-2.3492,-2.3134,-2.2685,-2.2464,-2.789,-2.9102,-3.0308,-3.2641,-3.344,-3.391,-3.485,-3.4477,-3.3787,-3.3202,-3.2441,-3.166,-3.0975,-3.0879,-3.0857,-3.0707,-3.0621,-3.0568,-3.0495,-3.0439,-3.0404,-3.0404,-3.0404,-3.0404,-3.0404,-2.9813,-2.9602,-3.0038,-2.8909,-2.8291,-2.8476,-2.8747,-2.8799,-2.8618,-2.8652,-2.8411,-2.7829,-2.6933,-2.6126,-2.5406,-2.5342,-2.5317,-2.5308,-2.5308,-2.5308,-2.5274,-2.4955,-2.4804,-2.4768,-2.4366,-2.419,-2.419,-2.419,-2.419,-2.419,-2.419,-2.419,-2.419,-2.419,-2.419,-2.419,-2.419,-2.419,-2.419,-2.419,-2.419,-2.419,-2.419,-2.419,-2.4256,-2.4444,-2.4545,-2.4623,-2.4806,-2.4741,-2.4588,-2.4452,-2.4312,-2.419,-2.419,-2.4357,-2.4444,-2.4303,-2.4401,-2.4444,-2.4303,-2.4237,-2.419,-2.419,-2.419,-2.419,-2.419,-2.419,-2.419,-2.419,-2.4348,-2.4357,-2.4209,-2.433,-2.4348,-2.4199,-2.419,-2.419,-2.419,-2.419,-2.419,-2.419,-2.419,-2.419,-2.419,-2.3584,-2.3299,-2.6467,-2.7371,-2.8448,-3.0173,-3.1269,-3.2173,-3.3119,-3.2708,-3.2151,-3.2246,-3.1562,-3.0917,-3.0743,-3.0815,-3.0834,-3.0633,-3.0606,-3.0544,-3.0417,-3.041,-3.0404,-3.0404,-3.0404,-3.0404,-3.0404,-3.0365,-3.0,-2.9223,-2.9088,-2.8385,-2.6892,-2.7616,-2.7747,-2.7039,-2.7018,-2.7033,-2.705,-2.6139,-2.5572,-2.5398,-2.5395,-2.5359,-2.5308,-2.5308,-2.5308,-2.5274,-2.4955,-2.4804,-2.4768,-2.4366,-2.419,-2.419,-2.419,-2.419,-2.419,-2.419,-2.419,-2.419,-2.419,-2.419,-2.419,-2.419,-2.419,-2.419,-2.419,-2.419,-2.419,-2.419,-2.419,-2.4256,-2.4444,-2.4639,-2.4814,-2.4955,-2.4986,-2.4826,-2.433,-2.4199,-2.419,-2.419,-2.4357,-2.4495,-2.4486,-2.4495,-2.4495,-2.4486,-2.433,-2.419,-2.419,-2.419,-2.419,-2.419,-2.419,-2.419,-2.419,-2.4209,-2.4209,-2.419,-2.4209,-2.4209,-2.419,-2.419,-2.419,-2.419,-2.419,-2.419,-2.419,-2.419,-2.419,-2.419,-2.4153,-2.4135,-2.6365,-2.6832,-2.7467,-2.914,-3.0243,-3.1158,-3.2136,-3.2147,-3.1995,-3.2166,-3.1442,-3.0767,-3.0717,-3.0744,-3.0728,-3.0551,-3.0537,-3.0503,-3.0414,-3.0404,-3.0404,-3.0404,-3.0404,-3.0404,-3.0404,-2.989,-2.9679,-2.9929,-2.8429,-2.7504,-2.7535,-2.7343,-2.7133,-2.6909,-2.6945,-2.6717,-2.6172,-2.579,-2.5554,-2.5468,-2.5415,-2.5371,-2.5308,-2.5308,-2.5308,-2.5274,-2.4955,-2.4804,-2.4768,-2.4366,-2.419,-2.419,-2.419,-2.419,-2.419,-2.419,-2.419,-2.419,-2.419,-2.419,-2.419,-2.419,-2.419,-2.419,-2.419,-2.419,-2.419,-2.419,-2.4294,-2.4435,-2.4639,-2.4802,-2.4937,-2.4992,-2.4924,-2.4828,-2.4631,-2.4384,-2.419,-2.419,-2.4357,-2.4452,-2.4339,-2.44,-2.4452,-2.433,-2.4348,-2.4393,-2.4393,-2.4512,-2.4594,-2.4594,-2.4594,-2.4594,-2.4594,-2.4594,-2.4537,-2.4401,-2.4393,-2.4321,-2.4218,-2.419,-2.419,-2.419,-2.419,-2.419,-2.419,-2.419,-2.419,-2.419,-2.419,-2.419,-2.6,-2.6154,-2.6563,-2.828,-2.8909,-2.9533,-3.108,-3.1249,-3.1176,-3.158,-3.1152,-3.0687,-3.0631,-3.0624,-3.0592,-3.0505,-3.0498,-3.0477,-3.0408,-3.0404,-3.0404,-3.0404,-3.0411,-3.0425,-3.0425,-2.991,-2.9697,-2.9981,-2.8167,-2.719,-2.7582,-2.6807,-2.6406,-2.6493,-2.6542,-2.6289,-2.5703,-2.566,-2.5602,-2.5539,-2.5477,-2.5406,-2.5335,-2.5308,-2.5308,-2.5274,-2.4993,-2.4842,-2.4768,-2.4366,-2.419,-2.419,-2.419,-2.419,-2.419,-2.419,-2.419,-2.419,-2.419,-2.419,-2.419,-2.419,-2.419,-2.419,-2.419,-2.419,-2.419,-2.419,-2.4339,-2.4553,-2.4753,-2.4962,-2.5099,-2.5099,-2.4981,-2.4876,-2.4876,-2.4518,-2.4218,-2.4284,-2.4348,-2.4348,-2.4218,-2.4312,-2.4348,-2.4218,-2.4366,-2.4503,-2.4503,-2.4678,-2.4804,-2.4804,-2.4804,-2.4804,-2.4804,-2.4804,-2.4716,-2.452,-2.4503,-2.4419,-2.4199,-2.419,-2.419,-2.419,-2.419,-2.419,-2.419,-2.419,-2.419,-2.419,-2.419,-2.419,0.0,0.0,0.0,-2.739,-2.7217,-2.7277,-2.9818,-2.9845,-2.9597,-3.0392,-3.0618,-3.0624,-3.0521,-3.0498,-3.0494,-3.0494,-3.0494,-3.0472,-3.0408,-3.0404,-3.0404,-3.0404,-3.0457,-3.0498,-3.0494,-3.0498,-3.0131,-2.9259,-2.8401,-2.7575,-2.6848,-2.5977,-2.5564,-2.5684,-2.5703,-2.5703,-2.5703,-2.5703,-2.5661,-2.5601,-2.5539,-2.5454,-2.5406,-2.533,-2.5308,-2.5298,-2.5088,-2.4911,-2.4768,-2.4375,-2.4218,-2.419,-2.419,-2.419,-2.419,-2.419,-2.419,-2.419,-2.419,-2.419,-2.419,-2.419,-2.419,-2.419,-2.419,-2.419,-2.419,-2.419,-2.4339,-2.4569,-2.4768,-2.5062,-2.5308,-2.5308,-2.5152,-2.501,-2.501,-2.4593,-2.4294,-2.4469,-2.4348,-2.4218,-2.4218,-2.4218,-2.4218,-2.4218,-2.4393,-2.4501,-2.4501,-2.4693,-2.4818,-2.4818,-2.4818,-2.4818,-2.4818,-2.4804,-2.4716,-2.4528,-2.4503,-2.441,-2.4199,-2.419,-2.419,-2.419,-2.419,-2.419,-2.419,-2.419,-2.419,-2.419,-2.419,-2.419,-2.5308,0.0,0.0,0.0,0.0,0.0,-2.7586,-2.8078,-2.8634,-2.9549,-2.9667,-2.9799,-3.0395,-3.0462,-3.0428,-3.0428,-3.0428,-3.0417,-3.041,-3.0404,-3.0404,-3.0404,-3.0457,-3.0482,-3.0419,-3.0467,-3.0119,-2.9196,-2.842,-2.7633,-2.6832,-2.6023,-2.5583,-2.5633,-2.5633,-2.5658,-2.5703,-2.5703,-2.5661,-2.5601,-2.5539,-2.5451,-2.5398,-2.5326,-2.5308,-2.5298,-2.5088,-2.4911,-2.4782,-2.4528,-2.4339,-2.419,-2.419,-2.419,-2.419,-2.419,-2.419,-2.419,-2.419,-2.419,-2.419,-2.419,-2.419,-2.419,-2.419,-2.419,-2.419,-2.419,-2.4444,-2.4797,-2.5091,-2.5233,-2.5308,-2.5308,-2.5152,-2.5034,-2.5198,-2.4916,-2.4647,-2.4708,-2.467,-2.4631,-2.4631,-2.4631,-2.4631,-2.4631,-2.4766,-2.4865,-2.4865,-2.5049,-2.5154,-2.5154,-2.5154,-2.5154,-2.5154,-2.4948,-2.4775,-2.4723,-2.4435,-2.4266,-2.4199,-2.419,-2.419,-2.419,-2.419,-2.419,-2.419,-2.419,-2.419,-2.419,-2.419,-2.419,-2.5431,-2.5333,-2.5425,-2.5787,0.0,0.0,-2.7033,-2.7326,-2.7803,-2.902,-2.9241,-2.9459,-3.0293,-3.0428,-3.0404,-3.0404,-3.0305,-3.0222,-3.0222,-3.0222,-3.0222,-3.0222,-3.0344,-3.0414,-3.0432,-3.0193,-2.9792,-2.9187,-2.809,-2.7113,-2.6302,-2.5839,-2.5602,-2.5602,-2.5602,-2.5633,-2.5703,-2.5703,-2.5683,-2.5636,-2.5567,-2.5515,-2.5438,-2.5364,-2.5321,-2.5284,-2.5187,-2.4993,-2.479,-2.467,-2.4452,-2.419,-2.419,-2.419,-2.419,-2.419,-2.419,-2.419,-2.419,-2.419,-2.419,-2.419,-2.419,-2.419,-2.419,-2.419,-2.4218,-2.4303,-2.4588,-2.4962,-2.5233,-2.5308,-2.5308,-2.5308,-2.5214,-2.5157,-2.5269,-2.5143,-2.4981,-2.4891,-2.4835,-2.4804,-2.4804,-2.4804,-2.4804,-2.4804,-2.4917,-2.5004,-2.5004,-2.5187,-2.5308,-2.5308,-2.5308,-2.5308,-2.5308,-2.5121,-2.4968,-2.4884,-2.4604,-2.4419,-2.4339,-2.4247,-2.419,-2.419,-2.419,-2.4247,-2.433,-2.433,-2.433,-2.4312,-2.4247,-2.4228,-2.5886,-2.5684,-2.5858,-2.6536,-2.6207,0.0,-2.7325,-2.7131,-2.7093,-2.8538,-2.8879,-2.9153,-2.9971,-3.0115,-3.0115,-3.0115,-2.9972,-2.9911,-2.9987,-3.0006,-3.0006,-3.0006,-3.0199,-3.0378,-3.0481,-2.9903,-2.9396,-2.9081,-2.7505,-2.625,-2.5547,-2.5549,-2.559,-2.559,-2.5594,-2.561,-2.5683,-2.5703,-2.5703,-2.5703,-2.5633,-2.5563,-2.5508,-2.5434,-2.5352,-2.5308,-2.5308,-2.5121,-2.4814,-2.4811,-2.4551,-2.419,-2.419,-2.419,-2.4199,-2.4228,-2.4218,-2.4199,-2.4228,-2.4218,-2.419,-2.419,-2.419,-2.4199,-2.4228,-2.4237,-2.4275,-2.4485,-2.4766,-2.5036,-2.5229,-2.5308,-2.5308,-2.5308,-2.5308,-2.5308,-2.5308,-2.5308,-2.5253,-2.5077,-2.493,-2.4861,-2.4861,-2.4861,-2.4861,-2.4861,-2.4956,-2.5034,-2.5034,-2.5198,-2.5308,-2.5308,-2.5308,-2.5308,-2.5308,-2.5274,-2.5198,-2.5016,-2.4864,-2.4708,-2.4512,-2.4339,-2.4237,-2.4237,-2.4266,-2.4366,-2.4559,-2.4534,-2.4528,-2.4495,-2.433,-2.4348,-2.7516,-2.7489,-2.7372,-2.6901,-2.7139,0.0,-2.613,-2.6268,-2.6713,-2.701,-2.7103,-2.7368,-2.8222,-2.839,-2.839,-2.839,-2.8753,-2.9263,-2.9911,-3.0006,-3.0006,-3.0006,-3.0276,-3.0438,-3.0422,-3.0346,-2.9696,-2.8255,-2.6595,-2.5618,-2.5513,-2.5463,-2.5438,-2.5444,-2.5484,-2.5554,-2.5629,-2.5662,-2.5703,-2.5703,-2.5633,-2.5563,-2.5508,-2.5434,-2.5352,-2.5308,-2.5308,-2.5182,-2.4949,-2.4842,-2.4551,-2.419,-2.419,-2.419,-2.4218,-2.4384,-2.4348,-2.4218,-2.4384,-2.4348,-2.419,-2.419,-2.419,-2.4228,-2.4393,-2.4435,-2.4501,-2.4818,-2.4877,-2.491,-2.5228,-2.5308,-2.5308,-2.5308,-2.5308,-2.5308,-2.5308,-2.5308,-2.5298,-2.5253,-2.5228,-2.5212,-2.5212,-2.5212,-2.5212,-2.5212,-2.5214,-2.5229,-2.5229,-2.5274,-2.5308,-2.5308,-2.5308,-2.5308,-2.5308,-2.5152,-2.504,-2.501,-2.4864,-2.4708,-2.4512,-2.4461,-2.4435,-2.4435,-2.4591,-2.4763,-2.4911,-2.478,-2.4654,-2.4503,-2.4623,-2.4615,-2.8219,-2.802,-2.7951,-2.7546,-2.7459,0.0,0.0,-2.6045,-2.6253,-2.7117,-2.6935,-2.6986,-2.8261,-2.8165,-2.7895,-2.7895,-2.7956,-2.8183,-2.8689,-2.9384,-2.9853,-2.9853,-3.0158,-3.0358,-3.039,-3.0076,-2.9162,-2.7485,-2.6147,-2.5429,-2.55,-2.5438,-2.5406,-2.5406,-2.5474,-2.5539,-2.5601,-2.5661,-2.5703,-2.5703,-2.5633,-2.5563,-2.5508,-2.5428,-2.5367,-2.5308,-2.5308,-2.5198,-2.4979,-2.4936,-2.467,-2.433,-2.4247,-2.419,-2.4218,-2.4436,-2.4445,-2.4357,-2.4461,-2.4426,-2.4321,-2.4237,-2.419,-2.4218,-2.4321,-2.4495,-2.4697,-2.4937,-2.5024,-2.5091,-2.5253,-2.5308,-2.5308,-2.5308,-2.5308,-2.5308,-2.5308,-2.5308,-2.5308,-2.5308,-2.5308,-2.5308,-2.5308,-2.5308,-2.5308,-2.5308,-2.5308,-2.5308,-2.5308,-2.5308,-2.5308,-2.5308,-2.5308,-2.5308,-2.5308,-2.5208,-2.5152,-2.5152,-2.4993,-2.4816,-2.4654,-2.4647,-2.4647,-2.4647,-2.4809,-2.4924,-2.5004,-2.5018,-2.4955,-2.4759,-2.4778,-2.4778,-2.908,-2.8786,-2.8721,-2.8245,-2.7878,-2.745,0.0,0.0,0.0,-2.7257,-2.6895,-2.678,-2.8126,-2.7832,-2.739,-2.739,-2.7178,-2.7059,-2.7221,-2.8423,-2.9274,-2.9274,-2.9702,-3.0025,-3.0135,-2.9419,-2.8423,-2.7159,-2.6011,-2.543,-2.55,-2.5425,-2.5376,-2.5387,-2.5462,-2.5533,-2.5572,-2.566,-2.5703,-2.5703,-2.5633,-2.5563,-2.5508,-2.5425,-2.5363,-2.5308,-2.5308,-2.5208,-2.5046,-2.5016,-2.4845,-2.4564,-2.4348,-2.4237,-2.4228,-2.4469,-2.4512,-2.4444,-2.4537,-2.4512,-2.4419,-2.4238,-2.4228,-2.4275,-2.4303,-2.4534,-2.4847,-2.5018,-2.5152,-2.5259,-2.5279,-2.5308,-2.5308,-2.5308,-2.5308,-2.5308,-2.5308,-2.5308,-2.5308,-2.5308,-2.5308,-2.5308,-2.5308,-2.5308,-2.5308,-2.5308,-2.5308,-2.5308,-2.5308,-2.5308,-2.5308,-2.5308,-2.5308,-2.5308,-2.5308,-2.5308,-2.5308,-2.5308,-2.5152,-2.4999,-2.4842,-2.4835,-2.4835,-2.4835,-2.4987,-2.5071,-2.5071,-2.5219,-2.5187,-2.4955,-2.4923,-2.4929,-3.1391,-3.1414,-3.0937,-2.8743,-2.9247,-2.9465,-2.6436,0.0,-2.6459,-2.5823,0.0,-2.5584,-2.5712,0.0,0.0,-2.5596,-2.6,-2.6332,-2.6352,-2.7164,-2.7747,-2.7747,-2.8625,-2.9223,-2.9242,-2.8527,-2.8028,-2.7967,-2.6305,-2.5365,-2.5498,-2.5376,-2.5308,-2.5308,-2.5434,-2.5496,-2.5503,-2.5635,-2.5703,-2.5703,-2.5633,-2.5563,-2.5508,-2.5425,-2.5363,-2.5308,-2.5308,-2.5298,-2.5259,-2.5063,-2.4986,-2.4917,-2.4588,-2.4357,-2.4256,-2.4623,-2.4545,-2.4284,-2.4639,-2.4537,-2.4228,-2.4199,-2.433,-2.4503,-2.4678,-2.4768,-2.4874,-2.5176,-2.5157,-2.5082,-2.5259,-2.5308,-2.5308,-2.5308,-2.5308,-2.5308,-2.5308,-2.5308,-2.5308,-2.5308,-2.5308,-2.5308,-2.5308,-2.5308,-2.5308,-2.5308,-2.5308,-2.5308,-2.5308,-2.5308,-2.5308,-2.5308,-2.5308,-2.5308,-2.5308,-2.5308,-2.5308,-2.5308,-2.5274,-2.5187,-2.4986,-2.498,-2.498,-2.498,-2.5163,-2.5264,-2.5264,-2.5298,-2.5138,-2.4821,-2.5115,-2.5097,-3.1182,-3.1498,-3.1473,-2.946,-2.9516,-2.9428,-2.6968,-2.6247,-2.6121,-2.6206,0.0,0.0,0.0,0.0,0.0,0.0,-2.5417,-2.5532,-2.5652,-2.5886,-2.6403,-2.7381,-2.8024,-2.8362,-2.8242,-2.7464,-2.7006,-2.7119,-2.5993,-2.5347,-2.5444,-2.5356,-2.5308,-2.5308,-2.5428,-2.5491,-2.5491,-2.5634,-2.5703,-2.5703,-2.5598,-2.5535,-2.5508,-2.5387,-2.5336,-2.5308,-2.5308,-2.5308,-2.5284,-2.5208,-2.5105,-2.4992,-2.4845,-2.4685,-2.4575,-2.483,-2.4752,-2.4567,-2.4746,-2.4607,-2.4375,-2.4375,-2.4426,-2.4551,-2.4836,-2.4923,-2.4968,-2.5233,-2.5248,-2.5179,-2.5274,-2.5308,-2.5308,-2.5308,-2.5308,-2.5308,-2.5308,-2.5308,-2.5308,-2.5308,-2.5308,-2.5308,-2.5308,-2.5308,-2.5308,-2.5308,-2.5308,-2.5308,-2.5308,-2.5308,-2.5308,-2.5308,-2.5308,-2.5308,-2.5308,-2.5308,-2.5308,-2.5308,-2.5198,-2.5088,-2.4991,-2.4936,-2.493,-2.5004,-2.5088,-2.5173,-2.5308,-2.5308,-2.5171,-2.493,-2.5182,-2.5165,-3.1423,-3.1757,-3.1849,-2.9679,-2.9368,-2.9082,-2.7109,-2.6305,-2.6131,-2.6708,-2.6451,0.0,0.0,0.0,-2.5923,0.0,0.0,-2.5409,-2.5312,-2.5168,-2.5541,-2.6746,-2.7226,-2.7506,-2.7587,-2.6804,-2.6325,-2.6394,-2.5726,-2.5351,-2.5408,-2.5344,-2.5322,-2.5308,-2.5428,-2.5491,-2.5491,-2.5634,-2.5703,-2.5703,-2.5573,-2.5526,-2.5506,-2.5376,-2.5322,-2.5308,-2.5308,-2.5308,-2.5308,-2.5308,-2.5214,-2.5088,-2.5088,-2.5018,-2.4929,-2.4949,-2.4843,-2.4716,-2.4716,-2.4615,-2.4512,-2.4559,-2.4575,-2.4628,-2.4917,-2.5004,-2.504,-2.5234,-2.5308,-2.5308,-2.5308,-2.5308,-2.5308,-2.5308,-2.5308,-2.5308,-2.5308,-2.5308,-2.5308,-2.5308,-2.5308,-2.5308,-2.5308,-2.5308,-2.5308,-2.5308,-2.5308,-2.5308,-2.5308,-2.5308,-2.5308,-2.5308,-2.5308,-2.5308,-2.5308,-2.5308,-2.5308,-2.5308,-2.5163,-2.5088,-2.5088,-2.4993,-2.4987,-2.5082,-2.5028,-2.5077,-2.5214,-2.5214,-2.5146,-2.4991,-2.5208,-2.5198,-3.3156,-3.3093,-3.2454,-2.9072,-2.8938,-2.8926,-2.6328,-2.6367,-2.6933,-2.6895,-2.7493,-2.8009,-2.7966,-2.787,0.0,0.0,0.0,0.0,0.0,-2.5284,-2.5317,-2.5356,-2.5953,-2.6677,-2.7523,-2.6804,-2.6325,-2.6394,-2.5782,-2.5406,-2.5409,-2.5396,-2.5367,-2.5288,-2.5428,-2.5491,-2.5491,-2.5634,-2.5703,-2.5703,-2.5633,-2.5561,-2.5508,-2.5431,-2.5367,-2.5308,-2.5308,-2.5308,-2.5308,-2.5308,-2.5303,-2.5279,-2.5279,-2.5298,-2.5243,-2.4916,-2.4685,-2.4512,-2.4512,-2.4512,-2.4537,-2.4731,-2.479,-2.4825,-2.4955,-2.5004,-2.504,-2.5234,-2.5308,-2.5308,-2.5308,-2.5308,-2.5308,-2.5308,-2.5308,-2.5308,-2.5308,-2.5308,-2.5308,-2.5308,-2.5308,-2.5308,-2.5308,-2.5308,-2.5308,-2.5308,-2.5308,-2.5308,-2.5308,-2.5308,-2.5308,-2.5308,-2.5308,-2.5308,-2.5308,-2.5308,-2.5308,-2.5308,-2.5284,-2.5279,-2.5279,-2.5298,-2.5298,-2.5279,-2.5099,-2.4991,-2.5016,-2.5016,-2.501,-2.4991,-2.5208,-2.5198,-3.3279,-3.37,-3.3532,-3.07,-3.0233,-2.9785,-2.7168,-2.6797,-2.6972,-2.6917,-2.7537,-2.807,-2.8008,-2.7952,0.0,0.0,0.0,0.0,0.0,-2.5308,-2.5308,-2.5308,-2.5378,-2.5564,-2.585,-2.5621,-2.5448,-2.5463,-2.5426,-2.5382,-2.5349,-2.5926,-2.6241,-2.6159,-2.6294,-2.6356,-2.6356,-2.5925,-2.5703,-2.5703,-2.5595,-2.5511,-2.5508,-2.5383,-2.5312,-2.5308,-2.5308,-2.5308,-2.5308,-2.5308,-2.5308,-2.5308,-2.5308,-2.5308,-2.5298,-2.5165,-2.4993,-2.4818,-2.4727,-2.47,-2.4712,-2.4884,-2.4924,-2.4974,-2.5141,-2.5203,-2.5214,-2.5274,-2.5308,-2.5308,-2.5308,-2.5308,-2.5308,-2.5308,-2.5308,-2.5308,-2.5308,-2.5308,-2.5308,-2.5308,-2.5308,-2.5308,-2.5308,-2.5308,-2.5308,-2.5308,-2.5308,-2.5308,-2.5308,-2.5308,-2.5308,-2.5308,-2.5308,-2.5308,-2.5308,-2.5308,-2.5308,-2.5308,-2.5308,-2.5229,-2.5105,-2.5018,-2.5012,-2.5099,-2.483,-2.4776,-2.5004,-2.5004,-2.5004,-2.4991,-2.5208,-2.5198,-3.383,-3.4211,-3.416,-3.1914,-3.1367,-3.0762,-2.8457,-2.8164,-2.8281,-2.7923,-2.848,-2.9009,-2.8932,-2.8614,0.0,0.0,0.0,0.0,0.0,-2.5308,-2.5308,-2.5308,-2.5116,-2.5004,-2.5004,-2.5004,-2.5004,-2.5004,-2.5242,-2.5375,-2.5293,-2.619,-2.6664,-2.6606,-2.6733,-2.6798,-2.6798,-2.6061,-2.5703,-2.5703,-2.5595,-2.5511,-2.5508,-2.5383,-2.5312,-2.5308,-2.5308,-2.5308,-2.5308,-2.5308,-2.5308,-2.5308,-2.5308,-2.5308,-2.5284,-2.5219,-2.5071,-2.4911,-2.4877,-2.4864,-2.4891,-2.5053,-2.5105,-2.5141,-2.5264,-2.5308,-2.5308,-2.5308,-2.5308,-2.5308,-2.5308,-2.5308,-2.5308,-2.5308,-2.5308,-2.5308,-2.5308,-2.5308,-2.5308,-2.5308,-2.5308,-2.5308,-2.5308,-2.5308,-2.5308,-2.5308,-2.5308,-2.5308,-2.5308,-2.5308,-2.5308,-2.5308,-2.5308,-2.5308,-2.5308,-2.5308,-2.5308,-2.5308,-2.5308,-2.5229,-2.5105,-2.5024,-2.5018,-2.5099,-2.4818,-2.4766,-2.4936,-2.4936,-2.4936,-2.4924,-2.5118,-2.5163]},{"header":{"parameterUnit":"m.s-1","parameterCategory":1,"la1":30.6,"la2":29.2853,"lo1":-89.7004,"lo2":-87.6739,"dy":0.0162,"dx":0.0183,"nx":112,"ny":82,"refTime":"2025-05-24T06:00:00:Z","depth":0,"parameterNumber":3,"parameterNumberName":"V-component_of_WINDS"},"data":[0.0,0.0,0.0,0.0,0.0,0.0,0.0,0.0,0.0,0.0,0.0,0.0,0.0,0.0,0.0,0.0,0.0,0.0,0.0,0.0,0.0,0.0,0.0,0.0,0.0,0.0,0.0,0.0,0.0,0.0,0.0,0.0,0.0,0.0,0.0,0.0,0.0,0.0,0.0,0.0,0.0,0.0,0.0,0.0,0.0,0.0,0.0,0.0,0.0,0.0,0.0,0.0,0.0,0.0,0.0,0.0,0.0,0.0,0.0,0.0,0.0,0.0,0.0,0.0,0.0,0.0,0.0,0.0,0.0,0.0,0.0,0.0,0.0,0.0,0.0,0.0,0.0,0.0,0.0,0.0,0.0,0.0,0.0,0.0,0.0,0.0,0.0,0.0,0.0,0.0,0.8308,0.8483,0.5494,0.2097,-0.1407,-0.38,-0.608,-0.8354,0.0,0.0,0.0,0.0,0.0,0.0,0.0,0.0,0.0,0.0,0.0,0.0,0.0,0.0,0.0,0.0,0.0,0.0,0.0,0.0,0.0,0.0,0.0,0.0,0.0,0.0,0.0,0.0,0.0,0.0,0.0,0.0,0.0,0.0,0.0,0.0,0.0,0.0,0.0,0.0,0.0,0.0,0.0,0.0,0.0,0.0,0.0,0.0,0.0,0.0,0.0,0.0,0.0,0.0,0.0,0.0,0.0,0.0,0.0,0.0,0.0,0.0,0.0,0.0,0.0,0.0,0.0,0.0,0.0,0.0,0.0,0.0,0.0,0.0,0.0,0.0,0.0,0.0,0.0,0.0,0.0,0.0,0.0,0.0,0.0,0.0,0.0,0.0,0.0,0.0,0.0,0.0,0.0,0.0,0.0,0.0,0.0,0.0,0.0,0.0,0.0,0.0,0.0,0.0,0.7691,0.7247,0.4968,0.2097,-0.1407,-0.38,-0.608,-0.8354,0.0,0.0,0.0,0.0,0.0,0.0,0.0,0.0,0.0,0.0,0.0,0.0,0.0,0.0,0.0,0.0,0.0,0.0,0.0,0.0,0.0,0.0,0.0,0.0,0.0,0.0,0.0,0.0,0.0,0.0,0.0,0.0,0.0,0.0,0.0,0.0,0.0,0.0,0.0,0.0,0.0,0.0,0.0,0.0,0.0,0.0,0.0,0.0,0.0,0.0,0.0,0.0,0.0,0.0,0.0,0.0,0.0,0.0,0.0,0.0,0.0,0.0,0.0,0.0,0.0,0.0,0.0,0.0,0.0,0.0,0.0,0.0,0.0,0.0,0.0,0.0,0.0,0.0,0.0,0.0,0.0,0.0,0.0,0.0,0.0,0.0,0.0,0.0,0.0,0.0,0.0,0.0,0.0,0.0,0.0,0.0,0.0,0.0,0.0,0.0,0.0,0.0,0.0,0.8075,0.8086,0.6871,0.4954,0.2281,-0.1388,-0.38,-0.608,-0.8354,-0.9509,0.0,0.0,0.0,0.0,0.0,0.0,0.0,0.0,0.0,0.0,0.0,0.0,0.0,0.0,0.0,0.0,0.0,0.0,0.0,0.0,0.0,0.0,0.0,0.0,0.0,0.0,0.0,0.0,0.0,0.0,0.0,0.0,0.0,0.0,0.0,0.0,0.0,0.0,0.0,0.0,0.0,0.0,0.0,0.0,0.0,0.0,0.0,0.0,0.0,0.0,0.0,0.0,0.0,0.0,0.0,0.0,0.0,0.0,0.0,0.0,0.0,0.0,0.0,0.0,0.0,0.0,0.0,0.0,0.0,0.0,0.0,0.0,0.0,0.0,0.0,0.0,0.0,0.0,0.0,0.0,0.0,0.0,0.0,0.0,0.0,0.0,0.0,0.0,0.0,0.0,0.0,0.0,0.0,0.0,0.0,0.0,0.0,0.0,0.0,0.0,0.0,0.0,0.8622,0.825,0.6571,0.468,0.2062,-0.1611,-0.3919,-0.6083,-0.8217,-0.9275,0.0,0.0,0.0,0.0,0.0,0.0,0.0,0.0,0.0,0.0,0.0,0.0,0.0,0.0,0.0,0.0,0.0,0.0,0.0,0.0,0.0,0.0,0.0,0.0,0.0,0.0,0.0,0.0,0.0,0.0,0.0,0.0,0.0,0.0,0.0,0.0,0.0,0.0,0.0,0.0,0.0,0.0,0.0,0.0,0.0,0.0,0.0,0.0,0.0,0.0,0.0,0.0,0.0,0.0,0.0,0.0,0.0,0.0,0.0,0.0,0.0,0.0,0.0,0.0,0.0,0.0,0.0,0.0,0.0,0.0,0.0,0.0,0.0,0.0,0.0,0.0,0.0,0.0,0.0,0.0,0.0,0.0,0.0,0.0,0.0,0.0,0.0,0.0,0.0,0.0,0.0,0.0,0.0,0.0,0.0,0.0,0.0,0.0,0.0,0.0,0.0,0.0,0.7564,0.7424,0.5928,0.359,0.0861,-0.2267,-0.4291,-0.6104,-0.7834,-0.8607,0.0,0.0,0.0,0.0,0.0,0.0,0.0,0.0,0.0,0.0,0.0,0.0,0.0,0.0,0.0,0.0,0.0,0.0,0.0,0.0,0.0,0.0,0.0,0.0,0.0,0.0,0.0,0.0,0.0,0.0,0.0,0.0,0.0,0.0,0.0,0.0,0.0,0.0,0.0,0.0,0.0,0.0,0.0,0.0,0.0,0.0,0.0,0.0,0.0,0.0,0.0,0.0,0.0,0.0,0.0,0.0,0.0,0.0,0.0,0.0,0.0,0.0,0.0,0.0,0.0,0.0,0.0,0.0,0.0,0.0,0.0,0.0,0.0,0.0,0.0,0.0,0.0,0.0,0.0,0.0,0.0,0.0,0.0,0.0,0.0,0.0,0.0,0.0,0.0,0.0,0.0,0.0,0.0,0.0,0.0,0.0,0.0,0.0,0.0,0.0,0.0,0.0,0.5815,0.5751,0.4856,0.2835,0.0426,-0.2357,-0.4553,-0.6389,-0.7816,0.0,0.0,0.0,0.0,0.0,0.0,0.0,0.0,0.0,0.0,0.0,0.0,0.0,0.0,0.0,0.0,0.0,0.0,0.0,0.0,0.0,0.0,0.0,0.0,0.0,0.0,0.0,0.0,0.0,0.0,0.0,0.0,0.0,0.0,0.0,0.0,0.0,0.0,0.0,0.0,0.0,0.0,0.0,0.0,0.0,0.0,0.0,0.0,0.0,0.0,0.0,0.0,0.0,0.0,0.0,0.0,0.0,0.0,0.0,0.0,0.0,0.0,0.0,0.0,0.0,0.0,0.0,0.0,0.0,0.0,0.0,0.0,0.0,0.0,0.0,0.0,0.0,0.0,0.0,0.0,0.0,0.0,0.0,0.0,0.0,0.0,0.0,0.0,0.0,0.0,0.0,0.0,0.0,0.0,0.0,0.0,0.0,0.0,0.0,0.0,0.0,0.0,0.3867,0.4025,0.3805,0.3324,0.132,-0.0842,-0.2987,-0.5145,-0.6769,-0.7674,0.0,0.0,0.0,0.0,0.0,0.0,0.0,0.0,0.0,0.0,0.0,0.0,0.0,0.0,0.0,0.0,0.0,0.0,0.0,0.0,0.0,0.0,0.0,0.0,0.0,0.0,0.0,0.0,0.0,0.0,0.0,0.0,0.0,0.0,0.0,0.0,0.0,0.0,0.0,0.0,0.0,0.0,0.0,0.0,0.0,0.0,0.0,0.0,0.0,0.0,0.0,0.0,0.0,0.0,0.0,0.0,0.0,0.0,0.0,0.0,0.0,0.0,0.0,0.0,0.0,0.0,0.0,0.0,0.0,0.0,0.0,0.0,0.0,0.0,0.0,0.0,0.0,0.0,0.0,0.0,0.0,0.0,0.0,0.0,0.0,0.0,0.0,0.0,0.0,0.0,0.0,0.0,0.0,0.0,0.0,0.0,0.0,0.0,0.0,0.0,0.0,0.0,0.2708,0.2219,0.1656,0.1304,-0.1112,-0.3172,-0.4303,-0.6124,-0.7273,0.0,0.0,0.0,0.0,0.0,0.0,0.0,0.0,0.0,0.0,0.0,0.0,0.0,0.0,0.0,0.0,0.0,0.0,0.0,0.0,0.0,0.0,0.0,0.0,0.0,0.0,0.0,0.0,0.0,0.0,0.0,0.0,0.0,0.0,0.0,0.0,0.0,0.0,0.0,0.0,0.0,0.0,0.0,0.0,0.0,0.0,0.0,0.0,0.0,0.0,0.0,0.0,0.0,0.0,0.0,0.0,0.0,0.0,0.0,0.0,0.0,0.0,0.0,0.0,0.0,0.0,0.0,0.0,0.0,0.0,0.0,0.0,0.0,0.0,0.0,0.0,0.0,0.0,0.0,0.0,0.0,0.0,0.0,0.0,0.0,0.0,0.0,0.0,0.0,0.0,0.0,0.0,0.0,0.0,0.0,0.0,0.0,0.0,0.0,0.0,0.0,0.0,0.0,0.0284,0.038,0.0225,-0.0202,-0.2178,-0.3733,-0.4341,-0.6387,-0.7566,-0.741,0.0,0.0,0.0,0.0,0.0,0.0,0.0,0.0,0.0,0.0,0.0,0.0,0.0,0.0,0.0,0.0,0.0,0.0,0.0,0.0,0.0,0.0,0.0,0.0,0.0,0.0,0.0,0.0,0.0,0.0,0.0,0.0,0.0,0.0,0.0,0.0,0.0,0.0,0.0,0.0,0.0,0.0,0.0,0.0,0.0,0.0,0.0,0.0,0.0,0.0,0.0,0.0,0.0,0.0,0.0,0.0,0.0,0.0,0.0,0.0,0.0,0.0,0.0,0.0,0.0,0.0,0.0,0.0,0.0,0.0,0.0,0.0,0.0,0.0,0.0,0.0,0.0,0.0,0.0,0.0,0.0,0.0,0.0,0.0,0.0,0.0,0.0,0.0,0.0,0.0,0.0,0.0,0.0,0.0,0.0,0.0,0.0,0.0,0.0,0.0,0.0,0.0,-0.1207,-0.1266,-0.1527,-0.1997,-0.3587,-0.4733,-0.5089,-0.6786,-0.7715,-0.7418,0.0,0.0,0.0,0.0,0.0,0.0,0.0,0.0,0.0,0.0,0.0,0.0,0.0,0.0,0.0,0.0,0.0,0.0,0.0,0.0,0.0,0.0,0.0,0.0,0.0,0.0,0.0,0.0,0.0,0.0,0.0,0.0,0.0,0.0,0.0,0.0,0.0,0.0,0.0,0.0,0.0,0.0,0.0,0.0,0.0,0.0,0.0,0.0,0.0,0.0,0.0,0.0,0.0,0.0,0.0,0.0,0.0,0.0,0.0,0.0,0.0,0.0,0.0,0.0,0.0,0.0,0.0,0.0,0.0,0.0,0.0,0.0,0.0,0.0,0.0,0.0,0.0,0.0,0.0,0.0,0.0,0.0,0.0,0.0,0.0,0.0,0.0,0.0,0.0,0.0,0.0,0.0,0.0,0.0,0.0,0.0,0.0,0.0,0.0,0.0,0.0,0.0,-0.2149,-0.2735,-0.3387,-0.385,-0.5102,-0.5976,-0.6182,-0.7238,-0.7754,-0.7418,0.0,0.0,0.0,0.0,0.0,0.0,0.0,0.0,0.0,0.0,0.0,0.0,0.0,0.0,0.0,0.0,0.0,0.0,0.0,0.0,0.0,0.0,0.0,0.0,0.0,0.0,0.0,0.0,0.0,0.0,0.0,0.0,0.0,0.0,0.0,0.0,0.0,0.0,0.0,0.0,0.0,0.0,0.0,0.0,0.0,0.0,0.0,0.0,0.0,0.0,0.0,0.0,0.0,0.0,0.0,0.0,0.0,0.0,0.0,0.0,-0.8221,-0.8485,0.0,0.0,0.0,0.0,0.0,0.0,0.0,0.0,0.0,0.0,0.0,0.0,0.0,0.0,0.0,0.0,0.0,0.0,0.0,0.0,0.0,0.0,0.0,0.0,0.0,0.0,0.0,0.0,0.0,0.0,0.0,0.0,0.0,0.0,0.0,0.0,0.0,0.0,0.0,0.0,-0.4021,-0.4007,-0.4147,-0.4627,-0.5814,-0.6492,-0.6226,-0.7238,-0.7754,-0.7418,-0.7551,0.0,0.0,0.0,0.0,0.0,0.0,0.0,0.0,0.0,0.0,0.0,0.0,0.0,0.0,0.0,0.0,0.0,0.0,0.0,0.0,0.0,0.0,0.0,0.0,0.0,0.0,0.0,0.0,0.0,0.0,0.0,0.0,0.0,0.0,0.0,0.0,0.0,0.0,0.0,0.0,0.0,0.0,0.0,0.0,0.0,0.0,0.0,0.0,0.0,0.0,0.0,0.0,0.0,0.0,0.0,0.0,0.0,0.0,0.0,-0.8196,-0.8548,0.0,0.0,0.0,0.0,0.0,0.0,0.0,0.0,0.0,0.0,0.0,0.0,0.0,0.0,0.0,0.0,0.0,0.0,0.0,0.0,0.0,0.0,0.0,0.0,0.0,0.0,0.0,0.0,0.0,0.0,0.0,0.0,0.0,0.0,0.0,0.0,0.0,0.0,0.0,0.0,-0.5143,-0.4982,-0.5079,-0.5736,-0.6529,-0.6993,-0.7018,-0.7801,-0.8226,-0.8085,-0.7705,0.0,0.0,0.0,0.0,0.0,0.0,0.0,0.0,0.0,0.0,0.0,0.0,0.0,0.0,0.0,0.0,0.0,0.0,0.0,0.0,0.0,0.0,0.0,0.0,0.0,0.0,0.0,0.0,0.0,0.0,0.0,0.0,0.0,0.0,0.0,0.0,0.0,0.0,0.0,0.0,0.0,0.0,0.0,0.0,0.0,0.0,0.0,0.0,0.0,0.0,0.0,0.0,0.0,-0.8059,-0.8059,-0.8059,-0.8059,-0.8266,-0.8632,-0.8355,-0.873,-0.9527,-0.9483,0.0,0.0,0.0,0.0,0.0,0.0,0.0,0.0,0.0,0.0,0.0,0.0,0.0,0.0,0.0,0.0,0.0,0.0,0.0,0.0,0.0,0.0,-0.9385,-1.0008,-1.0693,-1.0899,-0.9798,0.0,0.0,0.0,0.0,0.0,0.0,0.0,0.0,0.0,0.0,0.0,-0.5945,-0.5883,-0.6142,-0.6919,-0.7318,-0.7671,-0.8017,-0.8439,-0.8737,-0.8789,-0.8052,-0.7678,0.0,0.0,0.0,0.0,0.0,0.0,0.0,0.0,0.0,0.0,0.0,0.0,0.0,0.0,0.0,0.0,0.0,0.0,0.0,0.0,0.0,0.0,0.0,0.0,0.0,0.0,0.0,0.0,0.0,0.0,0.0,0.0,-0.5148,-0.4115,0.0,0.0,0.0,0.0,0.0,0.0,0.0,0.0,0.0,0.0,0.0,0.0,0.0,-0.754,-0.8185,-0.7881,-0.805,-0.8691,-0.8691,-0.8691,-0.8691,-0.8691,-0.9009,-0.9625,-0.9555,0.0,-1.0132,-1.0698,0.0,0.0,0.0,0.0,0.0,0.0,0.0,0.0,0.0,0.0,0.0,0.0,0.0,0.0,0.0,0.0,0.0,0.0,0.0,0.0,0.0,0.0,-1.0673,-1.1096,-1.1201,-1.13,-1.1698,-1.0954,-1.0059,-0.9542,-0.9166,-0.8764,0.0,0.0,0.0,0.0,0.0,0.0,-0.6897,-0.7093,-0.7323,-0.7789,-0.8443,-0.8787,-0.8606,-0.8655,-0.8737,-0.8789,-0.8362,-0.8171,-0.8295,-0.7471,0.0,0.0,0.0,0.0,0.0,0.0,0.0,0.0,0.0,0.0,0.0,0.0,0.0,0.0,0.0,0.0,0.0,0.0,0.0,0.0,0.0,0.0,0.0,0.0,0.0,0.0,0.0,0.0,0.0,-0.4974,-0.4472,-0.3977,-0.496,-0.5809,0.0,0.0,0.0,0.0,0.0,0.0,0.0,0.0,0.0,-0.6577,-0.7181,-0.7689,-0.8008,-0.8205,-0.848,-0.8804,-0.8804,-0.8804,-0.8804,-0.9185,-0.951,-0.984,-1.0593,-1.0997,-1.1082,-1.0778,-1.0918,-1.1355,0.0,0.0,0.0,0.0,-1.1455,-1.0848,-1.1226,-1.1258,-1.1095,-1.08,0.0,0.0,0.0,0.0,0.0,0.0,0.0,-1.0795,-1.1122,-1.1166,-1.1305,-1.2072,-1.221,-1.2234,-1.2516,-1.1953,-1.1103,-1.0176,-1.0039,-0.9717,-0.859,-0.8444,0.0,0.0,0.0,-0.7996,-0.8237,-0.8385,-0.8508,-0.8617,-0.9035,-0.9281,-0.9157,-0.9419,-0.9603,-0.9639,-0.9234,-0.8917,-0.875,-0.816,-0.7715,0.0,0.0,0.0,0.0,0.0,0.0,0.0,0.0,0.0,0.0,0.0,0.0,0.0,0.0,0.0,0.0,0.0,0.0,0.0,0.0,0.0,0.0,0.0,0.0,0.0,0.0,0.0,0.0,-0.449,-0.3989,-0.3843,-0.4573,-0.5268,0.0,0.0,0.0,0.0,0.0,0.0,-0.7241,-0.7355,-0.7204,-0.6753,-0.7538,-0.799,-0.799,-0.8533,-0.8804,-0.8804,-0.8804,-0.8883,-0.9087,-0.9562,-0.9994,-1.0364,-1.1366,-1.1789,-1.1747,-1.0941,-1.1007,-1.1563,-1.0903,-1.0773,-1.0994,-1.1607,-1.15,-1.1131,-1.164,-1.1804,-1.1756,-1.1661,-1.1898,-1.2145,-1.1836,0.0,0.0,0.0,0.0,-1.1344,-1.2159,-1.2091,-1.1968,-1.272,-1.2905,-1.2905,-1.2905,-1.2627,-1.2047,-1.0996,-1.0937,-1.0635,-0.9285,-0.9287,0.0,-0.8766,-0.9234,-0.9588,-0.9384,-0.944,-0.947,-0.9418,-0.9589,-0.9705,-0.9705,-1.0079,-1.0303,-1.0303,-0.9854,-0.9474,-0.9162,-0.8678,-0.8313,-0.816,0.0,0.0,0.0,0.0,0.0,0.0,0.0,0.0,0.0,0.0,0.0,0.0,0.0,0.0,0.0,0.0,0.0,0.0,0.0,0.0,0.0,0.0,0.0,0.0,0.0,0.0,0.0,0.0,0.0,-0.3396,-0.4384,0.0,0.0,0.0,0.0,-0.7256,-0.6641,-0.6654,-0.7617,-0.7673,-0.7673,-0.7646,-0.8368,-0.8752,-0.8752,-0.8785,-0.8804,-0.8804,-0.8804,-0.9133,-0.9762,-0.9788,-1.0491,-1.169,-1.1765,-1.1789,-1.1789,-1.1747,-1.2159,-1.2686,-1.1332,-1.1181,-1.1661,-1.1082,-1.1248,-1.176,-1.1796,-1.2252,-1.2817,-1.2817,-1.2545,-1.2203,-1.2184,-1.1895,0.0,0.0,-1.2151,-1.2248,-1.2734,-1.2842,-1.2827,-1.2895,-1.2905,-1.2905,-1.2905,-1.2886,-1.2705,-1.2203,-1.1807,-1.1389,-1.0869,0.0,-1.0626,-1.01,-1.0043,-1.0059,-1.0056,-1.0056,-1.0107,-1.0234,-1.0254,-1.0264,-1.0264,-1.0283,-1.0303,-1.0303,-0.9854,-0.9583,-0.9563,-0.8809,-0.8455,-0.8566,-0.7792,0.0,0.0,0.0,0.0,0.0,0.0,0.0,0.0,0.0,0.0,0.0,0.0,0.0,0.0,0.0,0.0,0.0,0.0,0.0,0.0,0.0,0.0,0.0,0.0,0.0,0.0,0.0,0.0,-0.4082,-0.4464,0.0,-0.5311,-0.5124,-0.5694,-0.7419,-0.7085,-0.7346,-0.8601,-0.8869,-0.8993,-0.8993,-0.9253,-0.9279,-0.9058,-0.9058,-0.8964,-0.8804,-0.8804,-0.9159,-0.9814,-1.0244,-1.0939,-1.1789,-1.1789,-1.1789,-1.174,-1.0864,-1.0677,-1.0855,-1.0346,-1.0287,-1.0542,-1.0745,-1.1216,-1.1789,-1.1789,-1.2286,-1.2905,-1.2905,-1.2798,-1.2646,-1.2646,-1.2539,-1.2465,-1.2607,-1.2646,-1.2686,-1.2866,-1.2905,-1.2905,-1.2905,-1.2905,-1.2905,-1.2905,-1.2905,-1.2856,-1.2676,-1.2295,-1.1758,-1.1035,-1.1143,-1.1188,-1.0698,-1.1084,-1.1363,-1.1099,-1.1061,-1.0962,-1.0712,-1.0439,-1.0303,-1.0303,-1.0303,-1.0303,-1.0303,-1.0137,-0.9903,-0.9602,-0.9065,-0.879,-0.8799,-0.7883,-0.7349,0.0,0.0,0.0,0.0,0.0,0.0,0.0,0.0,0.0,0.0,0.0,0.0,0.0,0.0,0.0,0.0,0.0,0.0,0.0,0.0,0.0,0.0,0.0,0.0,0.0,-0.4522,-0.4355,-0.4481,-0.4491,-0.4698,-0.5191,-0.5091,-0.5729,-0.7439,-0.7598,-0.812,-0.9301,-0.9579,-0.9715,-0.9715,-0.9715,-0.9586,-0.9364,-0.9357,-0.9264,-0.9105,-0.8998,-0.9285,-0.9978,-1.0316,-1.0838,-1.1466,-1.1466,-1.1341,-1.1065,-1.0167,-0.9666,-0.9465,-0.9465,-0.9736,-1.0167,-1.0389,-1.104,-1.1839,-1.208,-1.2476,-1.2905,-1.2905,-1.2905,-1.2905,-1.2905,-1.2905,-1.2905,-1.2905,-1.2905,-1.2905,-1.2905,-1.2905,-1.2905,-1.2905,-1.2905,-1.2905,-1.2905,-1.2905,-1.2905,-1.2905,-1.2646,-1.2242,-1.167,-1.1839,-1.1927,-1.1621,-1.208,-1.2285,-1.1868,-1.1672,-1.1418,-1.0957,-1.0537,-1.0303,-1.0303,-1.0303,-1.0303,-1.0303,-1.0146,-0.9932,-0.9602,-0.9092,-0.8822,-0.8901,-0.7817,-0.7192,-0.7033,0.0,0.0,0.0,0.0,0.0,0.0,0.0,0.0,0.0,0.0,0.0,0.0,0.0,0.0,0.0,0.0,0.0,0.0,0.0,0.0,0.0,0.0,0.0,-0.4204,-0.4375,-0.4491,-0.4491,-0.4522,-0.4612,-0.4735,-0.553,-0.6408,-0.7274,-0.8134,-0.8921,-0.967,-0.9735,-0.9713,-0.9684,-0.9684,-0.9677,-0.9635,-0.9664,-0.9664,-0.965,-0.9351,-0.9584,-1.03,-0.9944,-1.0167,-1.0788,-1.0788,-1.0389,-0.9788,-0.9788,-0.9387,-0.8804,-0.8804,-0.9614,-1.0686,-1.0038,-1.0644,-1.1922,-1.2632,-1.2905,-1.2905,-1.2905,-1.2905,-1.2905,-1.2905,-1.2905,-1.2905,-1.2929,-1.2905,-1.2905,-1.2929,-1.2905,-1.2905,-1.2905,-1.2905,-1.2905,-1.2905,-1.2905,-1.2905,-1.2905,-1.2905,-1.2905,-1.2905,-1.2905,-1.2905,-1.2905,-1.2905,0.0,-1.2281,-1.1878,-1.1438,-1.0977,-1.0547,-1.0322,-1.0303,-1.0303,-1.0293,-1.0283,-0.9845,-0.9592,-0.9555,-0.8818,-0.8548,-0.8849,-0.7611,-0.6804,-0.6475,0.0,0.0,0.0,0.0,0.0,0.0,0.0,0.0,0.0,0.0,0.0,0.0,0.0,0.0,0.0,0.0,0.0,0.0,0.0,0.0,0.0,-0.5488,-0.4429,-0.4429,-0.4464,-0.4491,-0.4491,-0.5138,-0.5596,-0.5649,-0.6532,-0.7415,-0.8187,-0.8657,-0.9229,-0.9933,-1.0231,-1.0066,-0.9438,-0.9406,-0.8993,-0.8124,-0.8727,-0.8962,-0.8774,-0.9056,-0.9584,-1.03,-0.9944,-1.0167,-1.0762,-1.0295,-0.9961,-0.9762,-0.9283,-0.8962,-0.8804,-0.8804,-0.9309,-1.0038,-0.9865,-1.0644,-1.1922,-1.2632,-1.2905,-1.2905,-1.2905,-1.2905,-1.2905,-1.2905,-1.2905,-1.2992,-1.342,-1.3238,-1.2992,-1.3443,-1.3238,-1.2905,-1.2905,-1.2905,-1.2905,-1.2905,-1.2905,-1.2905,-1.2905,-1.2905,-1.2905,-1.2905,-1.2905,-1.2905,-1.2905,-1.2905,-1.2842,-1.2715,-1.2314,-1.1875,-1.1447,-1.0996,-1.0615,-1.0332,-1.0303,-1.0146,-0.9815,-0.9679,-0.933,-0.876,-0.8514,-0.8151,-0.7607,-0.6684,-0.6159,0.0,0.0,0.0,0.0,0.0,0.0,0.0,0.0,0.0,0.0,0.0,0.0,0.0,0.0,0.0,0.0,0.0,0.0,0.0,0.0,0.0,0.0,-0.5961,-0.4921,-0.4921,-0.468,-0.4515,-0.458,-0.5112,-0.5657,-0.613,-0.7025,-0.7962,-0.884,-0.9358,-0.9861,-1.0301,-1.0147,-0.9817,-0.9306,-0.8941,-0.842,-0.7706,-0.8589,-0.8926,-0.8773,-0.9208,-0.9644,-1.0037,-0.9594,-0.9588,-0.9943,-0.9562,-0.9387,-0.9361,-0.8956,-0.8804,-0.8804,0.0,0.0,0.0,0.0,-1.1592,-1.232,-1.274,-1.2905,-1.2905,-1.2905,-1.2905,-1.2905,-1.2905,-1.2905,-1.3041,-1.3637,-1.3372,-1.3041,-1.3637,-1.3348,-1.2905,-1.2905,-1.2905,-1.2905,-1.2905,-1.2905,-1.2905,-1.2905,-1.2905,0.0,-1.2905,-1.2905,-1.2905,-1.2905,-1.2905,-1.2905,-1.2905,-1.25,-1.2106,-1.1888,-1.1279,-1.0811,-1.0566,-1.04,0.0,0.0,0.0,-0.8719,-0.7885,-0.802,0.0,0.0,0.0,0.0,0.0,0.0,0.0,0.0,-0.455,-0.4316,0.0,0.0,0.0,0.0,0.0,0.0,0.0,0.0,0.0,0.0,0.0,0.0,0.0,0.0,0.0,0.0,-0.634,-0.5536,-0.5515,-0.4954,-0.4586,-0.4677,-0.4791,-0.5266,-0.6287,-0.7305,-0.8279,-0.9224,-1.011,-1.0561,-1.046,-0.9722,0.0,0.0,0.0,-0.78,-0.7702,-0.8683,-0.9139,-0.9166,-0.9567,-0.9733,-0.9713,-0.9158,-0.8884,-0.8858,-0.8858,-0.8838,-0.8804,-0.8804,-0.8831,-0.891,-0.9008,-0.9762,-1.0973,-1.2387,-1.2905,-1.2905,-1.2905,0.0,0.0,-1.2905,-1.2905,-1.2905,-1.2905,-1.2905,-1.3041,-1.3637,-1.3372,-1.3041,-1.3637,-1.3348,-1.2905,-1.2905,-1.2905,-1.2905,-1.2905,-1.2905,-1.2905,-1.2905,-1.2905,-1.2905,-1.2905,-1.2905,-1.2905,-1.2905,-1.2905,-1.2905,-1.2905,-1.2549,-1.2262,-1.2213,-1.1484,0.0,-1.0897,-1.0518,-1.0283,-1.0215,-0.9037,-0.7975,-0.7218,-0.7387,-0.751,-0.7563,-0.7172,-0.6811,-0.6503,-0.6145,-0.5772,-0.539,-0.4492,-0.428,0.0,0.0,0.0,0.0,0.0,0.0,0.0,0.0,0.0,0.0,0.0,0.0,0.0,0.0,0.0,-0.7591,-0.6566,-0.5691,-0.5536,-0.5099,-0.4796,-0.4701,-0.5406,-0.6047,-0.6362,-0.7953,-0.9087,-0.9268,-1.011,-1.0301,-0.9594,-0.9402,-0.8651,-0.7242,-0.7046,-0.6625,-0.5918,-0.7474,-0.8253,-0.8253,-0.9445,0.0,-1.002,-0.9673,-0.9385,-0.9131,-0.9131,-0.8998,-0.8804,-0.8804,-0.9106,-0.9666,-1.0192,-1.0559,-1.0973,-1.2387,-1.2905,-1.2905,-1.2905,-1.2905,-1.2905,-1.2905,-1.2905,-1.2905,-1.2905,-1.2905,0.0,-1.3637,-1.3372,-1.3041,-1.3637,-1.3348,-1.2905,-1.2905,-1.2905,-1.2905,-1.2905,-1.2905,-1.2905,-1.2905,-1.2905,-1.2905,-1.2905,-1.2905,-1.2905,-1.2905,-1.2905,-1.2905,-1.2905,-1.2812,-1.2617,-1.2242,-1.1748,-1.131,-1.0937,-1.0518,-1.0137,-0.9757,-0.8597,-0.7846,-0.7675,-0.6746,-0.6405,-0.6715,-0.6336,-0.6259,-0.6503,-0.6427,-0.6293,-0.6089,-0.4988,-0.4728,0.0,0.0,0.0,0.0,0.0,0.0,0.0,0.0,0.0,0.0,0.0,-0.7884,-0.8479,0.0,-0.7992,-0.7837,-0.6974,-0.6197,-0.5797,-0.5259,-0.486,-0.4813,-0.5293,-0.5884,-0.6502,-0.7445,-0.8188,-0.8613,-0.9064,-0.9096,-0.8678,-0.8226,-0.76,-0.6719,-0.6268,-0.6042,-0.6042,-0.7344,-0.8221,-0.8646,-0.9631,-1.0083,-1.0077,-0.982,-0.9599,-0.9459,-0.9459,-0.9379,-0.9232,-0.9058,-0.9325,-0.9865,-1.0542,-1.1015,-1.1416,-1.251,-1.2905,-1.2905,-1.2905,-1.2905,-1.2905,-1.2905,-1.2905,-1.2905,-1.2905,-1.2905,-1.3041,-1.3637,-1.3372,-1.3041,-1.3637,-1.3348,-1.2905,-1.2905,-1.2905,-1.2905,-1.2905,-1.2905,-1.2905,-1.2905,-1.2905,-1.2905,-1.2905,-1.2905,-1.2905,-1.2905,-1.2905,-1.2905,-1.2905,-1.2905,-1.2715,-1.2252,-1.1848,-1.1408,-1.0947,-1.0518,-1.0021,-0.9337,-0.8674,-0.8112,-0.7714,-0.6861,-0.6586,-0.6989,-0.6671,-0.6601,-0.6796,-0.6796,-0.6623,-0.6277,-0.5727,-0.5468,0.0,0.0,0.0,0.0,0.0,0.0,0.0,-0.5278,-0.5846,-0.7404,-0.7738,-0.8018,-0.883,-0.8791,-0.8413,-0.7801,-0.7175,-0.6526,-0.5886,-0.533,-0.4992,-0.4931,-0.5029,-0.5442,-0.6347,-0.6588,-0.6981,-0.7697,-0.7897,-0.7929,-0.7767,-0.7079,-0.6621,-0.6461,-0.5752,-0.5752,-0.6429,-0.7474,-0.8355,-0.9075,-0.9843,-1.02,-1.0194,-0.996,-0.9849,-0.9766,-0.9706,-0.9715,-0.9659,-0.9331,-0.9465,-0.9956,-1.0566,-1.1216,-1.1898,-1.2642,-1.2905,-1.2905,-1.2905,-1.2905,-1.2905,-1.2905,-1.2905,-1.2905,-1.2905,-1.2905,-1.2992,-1.3481,-1.3262,-1.3017,-1.3505,-1.3262,-1.2905,-1.2905,-1.2905,-1.2905,-1.2905,-1.2905,-1.2905,-1.2905,-1.2905,-1.2905,-1.2905,-1.2905,-1.2905,-1.2905,-1.2905,-1.2905,-1.2905,-1.2905,-1.2715,-1.2252,-1.1848,-1.1369,-1.083,-1.0498,-0.9993,-0.9301,-0.8966,-0.8482,-0.7754,-0.7175,-0.7031,-0.7365,-0.717,-0.7142,-0.7308,-0.7333,-0.7108,-0.6669,-0.6584,-0.6248,-0.5967,-0.498,-0.4058,-0.4237,-0.3798,-0.3688,0.0,-0.5967,-0.6828,-0.8266,-0.8619,-0.8862,-0.9555,-0.8756,-0.7773,-0.7125,-0.6605,-0.5991,-0.5145,-0.5209,-0.5293,-0.5093,-0.509,-0.5221,-0.5507,-0.6235,-0.6752,-0.685,-0.7567,-0.7665,-0.6883,-0.6752,-0.633,-0.5557,-0.5458,-0.5462,-0.5557,-0.7181,-0.8059,-0.8156,-0.978,-1.0546,-1.0539,-1.0506,-1.0352,-1.0053,-0.9793,-0.9715,-0.9659,-0.9331,-0.9625,-1.0279,-1.0637,-1.1216,-1.1898,-1.2642,-1.2905,-1.2905,-1.2905,-1.2905,-1.2905,-1.2905,-1.2905,-1.2905,-1.2905,-1.2905,-1.2905,-1.2968,-1.2954,-1.2929,-1.2968,-1.2954,-1.2905,-1.2905,-1.2905,-1.2905,-1.2905,-1.2905,-1.2905,-1.2905,-1.2905,-1.2905,-1.2905,-1.2905,-1.2905,-1.2905,-1.2905,-1.2905,-1.2905,-1.2905,-1.2715,-1.2252,-1.1848,-1.1273,-1.044,-1.0332,-1.0264,-1.0147,-0.9309,-0.8595,-0.8148,-0.7274,-0.6827,-0.6881,-0.6913,-0.7306,-0.8076,-0.8203,-0.8166,-0.7974,-0.7624,-0.6825,-0.397,-0.33,-0.2997,-0.3536,-0.3441,-0.3721,-0.5688,-0.6676,-0.7596,-0.9032,-0.967,-1.0003,-1.0068,-0.9248,-0.826,-0.7394,-0.6674,-0.5951,-0.5297,-0.5317,-0.5371,-0.5274,-0.5267,-0.5324,-0.5388,-0.5719,-0.5943,-0.5943,-0.6272,-0.6338,-0.598,-0.5943,-0.5782,-0.5428,-0.5395,-0.5657,-0.6137,-0.6883,-0.7767,-0.878,-0.9492,-1.011,-1.0593,-1.0593,-1.0526,-1.0367,-1.0278,-1.0094,-0.9927,-0.977,-0.9967,-1.0319,-1.0443,-1.0797,-1.1341,-1.2486,-1.2905,-1.2905,-1.2905,-1.2905,-1.2905,-1.2905,-1.2905,-1.2905,-1.2905,-1.2905,-1.2905,-1.2905,-1.2905,-1.2905,-1.2905,-1.2905,-1.2905,-1.2905,-1.2905,-1.2905,-1.2905,-1.2905,-1.2905,-1.2905,-1.2905,-1.2905,-1.2905,-1.2905,-1.2905,-1.2905,-1.2905,-1.2905,-1.2905,-1.2656,-1.2213,-1.1511,-1.1074,-1.0694,-1.0332,-1.0303,-1.0303,-1.0303,-0.9325,-0.8661,-0.8503,-0.7332,-0.6945,-0.7491,-0.7367,-0.7766,-0.8669,-0.8728,-0.8519,-0.8074,-0.7908,-0.7253,-0.2478,-0.2063,-0.212,-0.3093,-0.3148,-0.3644,-0.6036,-0.7122,-0.8081,-0.974,-1.0466,-1.0749,-1.0589,-0.9577,-0.8397,-0.7332,-0.6282,-0.5377,-0.4737,-0.4655,-0.4655,-0.4655,-0.4855,-0.5024,-0.5024,-0.5259,-0.5395,-0.5395,-0.5395,-0.5395,-0.5395,-0.5395,-0.5395,-0.5395,-0.5395,-0.5686,-0.633,-0.6593,-0.7437,-0.8941,-0.9172,-0.9754,-1.0593,-1.0593,-1.0593,-1.0593,-1.0593,-1.0472,-1.0234,-1.0147,-1.0155,-1.0269,-1.0368,-1.0501,-1.0816,-1.2223,-1.2674,-1.2642,-1.2832,-1.2905,-1.2905,-1.2905,-1.2905,-1.2905,-1.2905,-1.2905,-1.2905,-1.2905,-1.2905,-1.2905,-1.2905,-1.2905,-1.2905,-1.2905,-1.2905,-1.2905,-1.2905,-1.2905,-1.2905,-1.2905,-1.2905,-1.2905,-1.2905,-1.2905,-1.2905,-1.2905,-1.2905,-1.2905,-1.2905,-1.25,-1.1921,-1.1172,-1.0733,-1.043,-1.0312,-1.0303,-1.0303,-1.0303,-0.9439,-0.8857,-0.8695,-0.7571,-0.7207,-0.7713,-0.7728,-0.8101,-0.8919,-0.9089,-0.8918,-0.8433,-0.8276,-0.7765,-0.2204,-0.1675,-0.1507,-0.301,-0.2815,-0.3003,-0.5923,-0.7122,-0.8207,-1.034,-1.0788,-1.0903,-1.1212,-0.9547,-0.7725,-0.6458,-0.5026,-0.3775,-0.2911,-0.2778,-0.2778,-0.2778,-0.3513,-0.4048,-0.4048,-0.4855,-0.5395,-0.5395,-0.5395,-0.5395,-0.5395,-0.5395,-0.5395,-0.5395,-0.5395,-0.5428,-0.5428,-0.6268,-0.7144,-0.8059,-0.8909,-0.9754,-1.0593,-1.0593,-1.0593,-1.0593,-1.0593,-1.0586,-1.0553,-1.0234,-1.0107,-1.0144,-1.0538,-1.0528,-1.0489,-1.1825,-1.2115,-1.1947,-1.2642,-1.2905,-1.2905,-1.2905,-1.2905,-1.2905,-1.2905,-1.2905,-1.2905,-1.2905,-1.2905,-1.2905,-1.2905,-1.2905,-1.2905,-1.2905,-1.2905,-1.2905,-1.2905,-1.2905,-1.2905,-1.2905,-1.2905,-1.2905,-1.2905,-1.2905,-1.2905,-1.2905,-1.2905,-1.2905,-1.2905,-1.25,-1.2051,-1.1636,-1.1152,-1.0723,-1.0332,-1.0303,-1.0303,-1.0303,-0.9784,-0.9239,-0.8716,-0.8165,-0.7607,-0.7049,-0.767,-0.8229,-0.8703,-0.93,-0.9565,-0.9529,-0.8948,-0.8409,-0.0867,-0.056,-0.0727,-0.2232,-0.2779,-0.3701,-0.6592,-0.8154,-0.9475,-1.1124,-1.1857,-1.1849,-1.0775,-0.9101,-0.719,-0.4961,-0.3786,-0.2808,-0.1902,-0.2306,-0.2711,-0.2711,-0.2945,-0.338,-0.3949,-0.4855,-0.5395,-0.5395,-0.5395,-0.5395,-0.5395,-0.5395,-0.5395,-0.5395,-0.5395,-0.5395,-0.5395,-0.5686,-0.6268,-0.7144,-0.8613,-0.9754,-1.0593,-1.0593,-1.0593,-1.0593,-1.0593,-1.0593,-1.0586,-1.0486,-1.0294,-1.0107,-1.0239,-1.013,-1.0031,-1.1223,-1.1582,-1.161,-1.2565,-1.2905,-1.2905,-1.2905,-1.2905,-1.2905,-1.2905,-1.2905,-1.2905,-1.2905,-1.2905,-1.2905,-1.2905,-1.2905,-1.2905,-1.2905,-1.2905,-1.2905,-1.2905,-1.2905,-1.2905,-1.2905,-1.2905,-1.2905,-1.2905,-1.2905,-1.2905,-1.2905,-1.2905,-1.2798,-1.249,-1.2301,-1.2061,-1.1633,-1.1172,-1.0706,-1.0205,-0.9913,-0.9617,-0.9259,-0.8736,-0.8521,-0.8695,-0.7793,-0.7565,-0.8116,-0.7995,-0.8359,-0.9239,-0.9441,-0.9532,-0.9513,-0.8959,-0.8436,-0.0141,0.0,-0.0341,-0.182,-0.2749,-0.4051,-0.6951,-0.8697,-1.0097,-1.1499,-1.2187,-1.1956,-1.0128,-0.8287,-0.611,-0.335,-0.2035,-0.0989,0.0,-0.0668,-0.1271,-0.1271,-0.1808,-0.241,-0.2978,-0.4151,-0.5024,-0.5362,-0.5395,-0.5395,-0.5395,-0.5395,-0.5395,-0.5395,-0.5395,-0.5395,-0.5395,-0.5395,-0.598,-0.7177,-0.8935,-1.0047,-1.0593,-1.0593,-1.0593,-1.0593,-1.0593,-1.0593,-1.0593,-1.0593,-1.0479,-1.0274,-1.0274,-1.0094,-0.9982,-1.124,-1.1535,-1.1449,-1.2538,-1.2905,-1.2905,-1.2905,-1.2905,-1.2905,-1.2905,-1.2905,-1.2905,-1.2905,-1.2905,-1.2905,-1.2905,-1.2905,-1.2905,-1.2905,-1.2905,-1.2905,-1.2905,-1.2905,-1.2905,-1.2905,-1.2905,-1.2905,-1.2905,-1.2905,-1.2905,-1.2905,-1.2905,-1.2783,-1.25,-1.2461,-1.2227,-1.1665,-1.133,-1.0807,-0.9958,-0.9643,-0.9279,-0.8736,-0.8378,-0.8255,-0.8398,-0.771,-0.7669,-0.8398,-0.8255,-0.8614,-0.9498,-0.9696,-0.9686,-0.9478,-0.8938,-0.8419,0.0057,0.0029,-0.0351,-0.1838,-0.279,-0.4121,-0.702,-0.8744,-1.012,-1.1507,-1.1731,-1.1141,-0.9293,-0.7054,-0.4521,-0.1623,0.0159,0.1551,0.2632,0.1909,0.1307,0.1307,-0.0201,-0.1243,-0.131,-0.2854,-0.4236,-0.5183,-0.5336,-0.5395,-0.5395,-0.5395,-0.5395,-0.5395,-0.5395,-0.5395,-0.5395,-0.5428,-0.6338,-0.8091,-0.9748,-1.053,-1.053,-1.0593,-1.0593,-1.053,-1.0593,-1.0593,-1.0593,-1.0593,-1.0593,-1.0593,-1.0593,-1.0419,-1.0316,-1.1835,-1.1934,-1.1474,-1.2566,-1.2925,-1.2905,-1.2905,-1.2905,-1.2905,-1.2905,-1.2905,-1.2905,-1.2905,-1.2905,-1.2905,-1.2905,-1.2905,-1.2905,-1.2905,-1.2905,-1.2881,-1.2856,-1.2881,-1.2881,-1.2856,-1.2881,-1.2905,-1.2905,-1.2905,-1.2905,-1.2905,-1.2905,-1.2905,-1.2905,-1.2905,-1.2573,-1.1734,-1.1616,-1.102,-0.9618,-0.9468,-0.9219,-0.8655,-0.8614,-0.8419,-0.7953,-0.7912,-0.7919,-0.7974,-0.8459,-0.8958,-0.9498,-1.002,-1.002,-0.9518,-0.8941,-0.8403,0.0779,0.0485,-0.0395,-0.2015,-0.3424,-0.515,-0.794,-0.9389,-1.0453,-1.1569,-1.0981,-0.9603,-0.7532,-0.5237,-0.2669,0.0368,0.1668,0.2619,0.3542,0.231,0.1307,0.1307,0.0342,-0.0589,-0.1245,-0.1725,-0.2385,-0.3307,-0.4625,-0.5395,-0.5395,-0.5395,-0.5395,-0.5395,-0.5395,-0.5395,-0.5395,-0.6042,-0.7246,-0.8979,-0.9434,-0.9626,-0.9658,-1.0301,-1.0238,-0.9658,-1.0333,-1.0593,-1.0593,-1.0593,-1.0593,-1.0593,-1.0593,-1.0546,-1.0632,-1.1929,-1.2061,-1.1768,-1.2929,-1.3145,-1.2905,-1.2905,-1.2905,-1.2905,-1.2905,-1.2905,-1.2905,-1.2905,-1.2905,-1.2905,-1.2905,-1.2905,-1.2905,-1.2905,-1.2905,-1.274,-1.2212,-1.2501,-1.2749,-1.2187,-1.2535,-1.2905,-1.2905,-1.2905,-1.2905,-1.2905,-1.2905,-1.2905,-1.2905,-1.2905,-1.2666,-1.2119,-1.178,-1.0984,-0.9473,-0.9071,-0.8484,-0.7502,-0.7433,-0.7752,-0.8472,-0.8118,-0.8275,-0.9079,-0.8837,-0.8958,-0.9498,-0.9637,-0.9843,-1.0079,-0.8882,-0.84,0.1169,0.0652,-0.0406,-0.2096,-0.3958,-0.6036,-0.8358,-0.963,-1.0497,-1.1217,-1.0232,-0.8489,-0.5989,-0.3654,-0.1153,0.1615,0.3027,0.3957,0.4544,0.3044,0.191,0.191,0.0771,-0.0178,-0.0676,-0.1081,-0.1708,-0.2723,-0.4097,-0.4861,-0.4861,-0.5256,-0.5494,-0.5494,-0.5429,-0.5587,-0.598,-0.6822,-0.7962,-0.9306,-0.9306,-0.9306,-0.9306,-0.9428,-0.939,-0.9338,-0.9817,-1.0238,-1.0593,-1.0593,-1.0593,-1.0593,-1.0593,-1.0839,-1.1236,-1.2275,-1.2489,-1.2376,-1.34,-1.3389,-1.2905,-1.2905,-1.2905,-1.2905,-1.2905,-1.2905,-1.2905,-1.2905,-1.2905,-1.2905,-1.2905,-1.2905,-1.2905,-1.2905,-1.2905,-1.2691,-1.1972,-1.2129,-1.2295,-1.1888,-1.2129,-1.2535,-1.2847,-1.2905,-1.2905,-1.2905,-1.2905,-1.2905,-1.2905,-1.2905,-1.2565,-1.1674,-1.1388,-1.0556,-0.8832,-0.8489,-0.7959,-0.7063,-0.7,-0.7398,-0.8316,-0.8057,-0.8398,-0.9478,-0.9199,-0.9319,-0.9854,-0.9617,-0.9545,-0.962,-0.8405,-0.792,0.1285,0.0759,-0.0256,-0.2064,-0.4317,-0.6573,-0.8375,-0.9522,-1.0282,-1.0482,-0.9405,-0.7588,-0.4811,-0.2443,-0.0175,0.2013,0.3838,0.4964,0.503,0.3676,0.2654,0.2524,0.1043,0.0,0.0,-0.0697,-0.1505,-0.2459,-0.3483,-0.4167,-0.4393,-0.5188,-0.561,-0.5589,-0.5474,-0.5881,-0.685,-0.7632,-0.8484,-0.9466,-0.9466,-0.9338,-0.9107,-0.8581,-0.8646,-0.9139,-0.9364,-0.9913,-1.0593,-1.0593,-1.0593,-1.0593,-1.0593,-1.1076,-1.1888,-1.2647,-1.2913,-1.2995,-1.3769,-1.3535,-1.2905,-1.2905,-1.2905,-1.2905,-1.2905,-1.2905,-1.2905,-1.2905,-1.2905,-1.2905,-1.2905,-1.2905,-1.2905,-1.2905,-1.2832,-1.2584,-1.1947,-1.1789,-1.1789,-1.1789,-1.1888,-1.2153,-1.2798,-1.2905,-1.2905,-1.2905,-1.2905,-1.2852,-1.272,-1.2711,-1.2201,-1.0943,-1.0672,-0.987,-0.8048,-0.7899,-0.7642,-0.7042,-0.7,-0.7294,-0.7974,-0.7995,-0.8513,-0.9578,-0.9597,-0.9843,-1.0303,-0.9834,-0.9395,-0.8974,-0.7978,-0.7467,0.1315,0.1193,0.0464,-0.2047,-0.4056,-0.5951,-0.7824,-0.9058,-0.9658,-0.9162,-0.7941,-0.6428,-0.4689,-0.2467,-0.0559,0.0457,0.2638,0.3951,0.3267,0.2886,0.2428,0.162,0.0629,0.0,0.0,-0.0153,-0.031,-0.0504,-0.224,-0.3938,-0.545,-0.5669,-0.5711,-0.5593,-0.5474,-0.6178,-0.7767,-0.7929,-0.8807,-1.0364,-1.0364,-0.9614,-0.8258,-0.955,-0.9454,-0.8323,-0.9748,-1.046,-1.0593,-1.0593,-1.0593,-1.0593,-1.0593,-1.1076,-1.1866,-1.2322,-1.2672,-1.2959,-1.3444,-1.3291,-1.2905,-1.2905,-1.2905,-1.2905,-1.2905,-1.2905,-1.2905,-1.2905,-1.2905,-1.2905,-1.2905,-1.2905,-1.2905,-1.2905,-1.2427,-1.1972,-1.1839,-1.1789,-1.1789,-1.1789,-1.2295,-1.274,-1.2881,-1.2905,-1.2905,-1.2905,-1.2905,-1.259,-1.178,-1.1662,-1.1431,-1.0862,-1.0057,-0.9116,-0.7991,-0.7899,-0.7642,-0.7042,-0.7,-0.7482,-0.8521,-0.8561,-0.9059,-1.0137,-1.0157,-1.0205,-1.0303,-1.0205,-1.0118,-1.0022,-0.8685,-0.819,0.1302,0.097,0.01,-0.214,-0.4238,-0.6186,-0.776,-0.879,-0.92,-0.8314,-0.7315,-0.5919,-0.366,-0.1967,-0.0528,0.0598,0.2213,0.317,0.2744,0.2282,0.1808,0.1366,0.0532,0.0,0.0,0.0,-0.0431,-0.1526,-0.2539,-0.3478,-0.434,-0.5295,-0.5735,-0.5596,-0.5474,-0.6239,-0.7994,-0.7994,-0.8865,-1.0593,-1.0142,-0.9492,-0.8683,-0.9064,-0.9032,-0.8716,-0.9556,-1.0174,-1.0593,-1.0593,-1.0593,-1.0593,-1.0593,-1.1226,-1.2144,-1.2333,-1.2746,-1.3246,-1.342,-1.3232,-1.2905,-1.2905,-1.2905,-1.2905,-1.2905,-1.2905,-1.2905,-1.2905,-1.2905,-1.2905,-1.2905,-1.2905,-1.2905,-1.2905,-1.2073,-1.1391,-1.1715,-1.1266,-1.0965,-1.1665,-1.208,-1.2452,-1.2822,-1.2905,-1.2905,-1.2905,-1.2559,-1.2147,-1.1659,-1.0876,-1.0173,-0.9659,-0.9158,-0.8487,-0.7517,-0.7426,-0.7301,-0.7021,-0.7,-0.7377,-0.8255,-0.8553,-0.9079,-0.9863,-1.0157,-1.0303,-1.0303,-1.002,-0.9906,-0.9894,-0.8464,-0.799,0.1074,0.0536,-0.0434,-0.2241,-0.4508,-0.6582,-0.7642,-0.8512,-0.8741,-0.7607,-0.6832,-0.562,-0.3143,-0.1989,-0.1042,0.0117,0.1354,0.2105,0.1909,0.1557,0.1222,0.106,0.0427,0.0,0.0,-0.0196,-0.1019,-0.2656,-0.3147,-0.3494,-0.3785,-0.5067,-0.5749,-0.564,-0.5491,-0.6145,-0.7697,-0.773,-0.8608,-1.0301,-0.9626,-0.9306,-0.9274,-0.8775,-0.8844,-0.9306,-0.9498,-0.9977,-1.0593,-1.0593,-1.0593,-1.0593,-1.0593,-1.1348,-1.2385,-1.2303,-1.2776,-1.3496,-1.3408,-1.3154,-1.2905,-1.2905,-1.2905,-1.2905,-1.2905,-1.2905,-1.2905,-1.2905,-1.2905,-1.2905,-1.2905,-1.2905,-1.2847,-1.2691,-1.1816,-1.1116,-1.1491,-1.0998,-1.0728,-1.1641,-1.1922,-1.2163,-1.2584,-1.2666,-1.2618,-1.2461,-1.1956,-1.1506,-1.1303,-1.0172,-0.9135,-0.8453,-0.8327,-0.7932,-0.7069,-0.7,-0.7,-0.7,-0.7,-0.7314,-0.8036,-0.848,-0.8999,-0.9657,-1.0088,-1.0303,-1.0303,-0.9883,-0.9636,-0.9543,-0.8268,-0.7792,0.0337,0.0067,-0.0434,-0.2241,-0.4638,-0.6689,-0.7084,-0.7964,-0.8288,-0.6969,-0.6118,-0.5324,-0.4457,-0.363,-0.3051,-0.2971,0.0,0.0158,-0.0655,0.0428,0.0997,0.0195,0.0039,0.0,0.0,-0.0863,-0.1528,-0.1723,-0.3368,-0.4844,-0.5938,-0.5892,-0.5796,-0.5783,-0.5542,-0.5848,-0.6817,-0.6817,-0.7697,-0.9434,-0.9338,-0.9306,-0.9338,-1.004,-0.9977,-0.9338,-1.0142,-1.053,-1.0593,-1.0593,-1.0593,-1.0593,-1.0593,-1.1348,-1.2352,-1.1914,-1.2501,-1.3447,-1.3066,-1.2935,-1.2905,-1.2905,-1.2905,-1.2905,-1.2905,-1.2905,-1.2905,-1.2905,-1.2905,-1.2905,-1.2905,-1.2905,-1.2715,-1.2055,-1.1789,-1.1566,-1.1015,-1.1792,-1.2461,-1.1922,-1.2344,-1.2618,-1.1996,-1.1888,-1.169,-1.1065,-1.0948,-1.0572,-0.9724,-0.9498,-0.9031,-0.8065,-0.7727,-0.7436,-0.7026,-0.7,-0.7,-0.7,-0.7,-0.7495,-0.8582,-0.8675,-0.9179,-1.0205,-1.0283,-1.0303,-1.0303,-1.0264,-0.9981,-0.9484,-0.8867,-0.835,-0.0839,-0.1255,-0.1911,-0.2554,-0.4558,-0.6383,-0.6432,-0.7433,-0.7898,-0.6283,-0.5706,-0.5156,-0.4039,-0.3539,-0.3163,0.0,0.0,0.0,-0.1119,-0.0538,-0.0105,0.0,0.0,-0.027,-0.0901,-0.1333,-0.2115,-0.3363,-0.466,-0.5601,-0.6081,-0.5837,-0.5674,-0.5674,-0.5504,-0.5815,-0.6687,-0.6687,-0.7307,-0.8517,-0.9043,-0.9306,-0.9338,-1.0206,-1.0396,-1.011,-1.0466,-1.0593,-1.0579,-1.0367,-1.0432,-1.0553,-1.0198,-1.0592,-1.1381,-1.1438,-1.1641,-1.1973,-1.265,-1.2618,-1.232,-1.2774,-1.2905,-1.2905,-1.2905,-1.2905,-1.2905,-1.2905,-1.2905,-1.2905,-1.2905,-1.2905,-1.2715,-1.1972,-1.1789,-1.1848,-1.2024,-1.1841,-1.1792,-1.2353,-1.2024,-1.1683,-1.1765,-1.1466,-1.1116,-1.0838,-1.0466,-1.0069,-0.9693,-0.9278,-0.8816,-0.8255,-0.7785,-0.7437,-0.7323,-0.7128,-0.7147,-0.751,-0.7189,-0.7516,-0.8655,-0.8695,-0.9059,-0.9804,-1.0137,-1.0303,-1.0303,-1.0303,-1.002,-0.9478,-0.8938,-0.8582,-0.1538,-0.2241,-0.3156,-0.2792,-0.4552,-0.6281,-0.6042,-0.6832,-0.7208,-0.5781,-0.5351,-0.4889,-0.3901,-0.368,-0.3483,0.0,0.0,-0.2333,-0.1529,-0.1273,-0.0887,-0.0074,-0.0224,-0.0717,-0.1508,-0.2144,-0.3244,-0.504,-0.5654,-0.5925,-0.5925,-0.5684,-0.5542,-0.5589,-0.5474,-0.5686,-0.6301,-0.6301,-0.6756,-0.7632,-0.8484,-0.9043,-0.9338,-1.0206,-1.0593,-1.0593,-1.0593,-1.0593,-1.0566,-1.0241,-1.0241,-1.0412,-0.9909,-1.0072,-1.0621,-1.0899,-1.0926,-1.0973,-1.2172,-1.2236,-1.1922,-1.2666,-1.2905,-1.2905,-1.2905,-1.2905,-1.2905,-1.2905,-1.2749,-1.2535,-1.2329,-1.2132,-1.19,-1.1575,-1.1366,-1.14,-1.2123,-1.1509,-1.1099,-1.2082,-1.1484,-1.0889,-1.1166,-1.0813,-1.044,-1.0244,-0.9814,-0.9517,-0.9517,-0.908,-0.8731,-0.8524,-0.8067,-0.7685,-0.7527,-0.7275,-0.7285,-0.7621,-0.7231,-0.744,-0.8411,-0.8459,-0.8797,-0.9478,-0.9883,-1.0137,-1.0303,-1.0303,-1.002,-0.9498,-0.9119,-0.8857,-0.153,-0.2611,-0.3782,-0.2911,-0.4731,-0.6589,-0.6102,-0.6104,-0.6083,-0.559,-0.4976,-0.4519,-0.4491,-0.4491,-0.4491,-0.4487,0.0,0.0,-0.2335,-0.1687,-0.0988,-0.0109,-0.0764,-0.1359,-0.1583,-0.3467,-0.5118,-0.6222,-0.5976,-0.5803,-0.5803,-0.5559,-0.5467,-0.5586,-0.5474,-0.5395,-0.5428,-0.5428,-0.5848,-0.6719,-0.76,-0.8452,-0.9338,-1.0206,-1.0593,-1.0593,-1.0593,-1.0593,-1.0566,-1.0241,-1.0083,-1.0094,-0.98,-0.9946,-1.0287,-1.0314,-1.0514,-1.0889,-1.1591,-1.1814,-1.1922,-1.2666,-1.2905,-1.2905,-1.2905,-1.2905,-1.2905,-1.2905,-1.2369,-1.1665,-1.099,-1.0346,-0.9987,-1.0636,-1.0287,-0.9987,-1.0686,-1.0813,-1.0788,-1.0813,-1.0813,-1.0585,-0.9935,-0.9814,-0.9588,-0.8936,-0.8804,-0.8804,-0.8804,-0.8804,-0.8804,-0.8804,-0.8537,-0.8147,-0.756,-0.7506,-0.7357,-0.702,-0.7,-0.728,-0.7891,-0.7919,-0.8419,-0.9478,-0.9498,-0.9765,-1.0303,-1.0303,-1.002,-0.9498,-0.9498,-0.9199,-0.3135,-0.39,-0.4677,-0.3605,-0.4843,-0.6153,-0.5303,-0.5598,-0.5838,-0.4993,-0.4653,-0.4322,-0.379,-0.3707,-0.382,-0.3998,-0.3243,0.0,-0.2561,-0.1743,-0.0884,-0.0109,-0.1498,-0.2566,-0.2626,-0.4549,-0.5944,-0.6261,-0.5976,-0.58,-0.58,-0.5556,-0.5419,-0.5467,-0.5419,-0.5395,-0.5395,-0.5395,-0.5524,-0.5815,-0.7312,-0.8156,-0.8452,-0.9939,-1.0593,-1.0593,-1.0593,-1.0593,-1.0553,-1.0027,-0.9933,-1.0017,-0.9352,-0.9282,-0.959,-0.9848,-0.9728,-0.9588,-1.0745,-1.1116,-1.1241,-1.1931,-1.2476,-1.2905,-1.2905,-1.2905,-1.2798,-1.2295,-1.1972,-1.1641,-1.0965,-1.099,-1.1216,-1.1433,-1.0965,-1.0669,-1.1341,-1.0762,-1.0236,-1.0712,-1.0064,-0.951,-0.9762,-0.9413,-0.9035,-0.8831,-0.8804,-0.8804,-0.8804,-0.8804,-0.8804,-0.8804,-0.8724,-0.843,-0.7836,-0.7611,-0.7539,-0.7615,-0.7231,-0.744,-0.8419,-0.8098,-0.8398,-0.9478,-0.9498,-0.9765,-1.0303,-1.0303,-1.002,-0.9498,-0.9498,-0.9399,-0.3847,-0.4387,-0.4954,-0.3874,-0.4442,-0.5127,-0.4426,-0.45,-0.4565,-0.4123,-0.4042,-0.3901,-0.3428,-0.3594,-0.3674,-0.327,-0.2933,-0.2592,-0.2162,-0.157,-0.1166,-0.1088,-0.2296,-0.3392,-0.4121,-0.5482,-0.6276,-0.6176,-0.5942,-0.5779,-0.5725,-0.5528,-0.5395,-0.5395,-0.5395,-0.5395,-0.5395,-0.5395,-0.5395,-0.5428,-0.7181,-0.7994,-0.8059,-0.9811,-1.0593,-1.0586,-1.0472,-1.0425,0.0,-0.9909,-0.9726,-0.9704,-0.9158,-0.8984,-0.9079,-0.9334,-0.9159,-0.8956,-1.0038,-1.0593,-1.0864,-1.1291,-1.1907,-1.2476,-1.2476,-1.2476,-1.227,-1.1325,-1.104,-1.0889,-1.0218,-1.0364,-1.0669,-1.0669,-1.0338,-1.0167,-1.0593,-1.0012,-0.9536,-0.9969,-0.9361,-0.8929,-0.9361,-0.9087,-0.8804,-0.8804,-0.8804,-0.8804,-0.8804,-0.8804,-0.8804,-0.8804,-0.8804,-0.8617,-0.8136,-0.7816,-0.7673,-0.7752,-0.7278,-0.7314,-0.8034,-0.7731,-0.7979,-0.8878,-0.9099,-0.9459,-1.0,-1.0205,-1.0127,-0.9804,-0.9804,-0.9804,0.0,-0.4187,-0.4621,-0.3785,-0.3631,-0.3665,-0.3528,-0.2978,0.0,-0.3114,-0.3231,-0.3234,-0.3244,-0.3796,-0.3802,-0.24,-0.2822,-0.2836,-0.1418,-0.1255,-0.1664,-0.2693,-0.2984,-0.3856,-0.5741,-0.6128,-0.6183,-0.6003,-0.5878,-0.5728,-0.5596,-0.5477,-0.5395,-0.5395,-0.5395,-0.5395,-0.5395,-0.5395,-0.5428,-0.5524,-0.7186,-0.8027,-0.8156,-0.9824,-1.0559,-1.0546,-1.0214,-1.0087,-1.006,-0.9773,-0.9486,-0.9211,-0.9191,-0.9018,-0.8804,-0.8804,-0.8804,-0.8883,-0.951,-1.0167,-1.0737,-1.0788,-1.1216,-1.1715,-1.1665,-1.169,-1.1466,-1.0167,-0.9788,-0.9666,-0.9035,-0.8883,-0.8883,-0.8929,-0.8857,-0.8804,-0.8857,-0.8831,-0.8804,-0.8804,-0.8804,-0.8804,-0.8804,-0.8804,-0.8804,-0.8804,-0.8804,-0.8804,-0.8804,-0.8804,-0.8804,-0.8804,-0.8804,-0.8697,-0.8456,-0.8136,-0.7822,-0.7511,-0.7208,-0.702,-0.7,-0.7,-0.728,-0.7891,-0.8459,-0.8999,-0.9498,-1.004,-1.0303,-1.0303,-1.0303,-1.0303,-0.3645,0.0,-0.3831,-0.3532,-0.2998,-0.2563,0.0,-0.2398,-0.2308,-0.243,-0.2454,-0.2305,-0.1732,-0.1789,-0.1875,-0.1745,-0.1249,-0.1233,-0.2314,-0.1798,-0.1465,-0.1839,-0.2627,-0.3602,-0.4881,-0.567,-0.6067,-0.5996,-0.5786,-0.5627,-0.5593,-0.5477,-0.5395,-0.5395,-0.5395,-0.5395,-0.5395,-0.5395,-0.5719,-0.6396,-0.7474,-0.8355,-0.9037,-0.9849,-1.0221,-1.0207,-0.9913,-0.9786,-0.976,-0.9437,-0.9277,-0.9191,-0.8964,-0.8871,-0.8804,-0.8804,-0.8804,-0.8831,-0.8982,-0.9484,-1.0115,-1.0636,-1.0914,-1.0939,-1.044,-1.0644,-1.0864,-1.0038,-0.9788,-0.9762,-0.9614,-0.9562,-0.9684,-1.0218,-0.9536,-0.8936,-0.9465,-0.9159,-0.8804,-0.8804,-0.8804,-0.8804,-0.8804,-0.8804,-0.8804,-0.8804,-0.8804,-0.8804,-0.8804,-0.8804,-0.8804,-0.8804,-0.8804,-0.8778,-0.8711,-0.8437,-0.806,-0.7547,-0.7424,-0.7261,-0.7013,-0.7,-0.728,-0.7891,-0.8817,-0.9379,-0.9498,-1.004,-1.0303,-1.0303,-1.0303,-1.0303,-0.3511,-0.3457,-0.3413,-0.295,-0.2254,-0.1684,-0.1684,-0.144,-0.1284,-0.1619,-0.1703,-0.1572,-0.1173,-0.1374,-0.1433,-0.0939,-0.0672,-0.0925,-0.2149,-0.1801,-0.1825,-0.2885,-0.3517,-0.4256,-0.5315,-0.5774,-0.5963,-0.5928,-0.5718,-0.5559,-0.5521,-0.544,-0.5395,-0.5395,-0.5395,-0.5395,-0.5395,-0.5395,-0.5848,-0.6719,-0.7567,-0.8452,-0.9332,-1.0013,-1.0247,-1.01,-0.9813,-0.9606,-0.9466,-0.9277,-0.9131,-0.9011,-0.8991,-0.8898,-0.8804,-0.8804,-0.8804,-0.8804,-0.8804,-0.9035,-0.951,-1.0491,-1.0585,-1.0261,-0.9909,-1.0038,-1.0192,-0.9543,-0.9335,-0.9335,-0.9335,-0.9335,-0.9439,-0.9788,-0.9335,-0.891,-0.9263,-0.9061,-0.8804,-0.8804,-0.8804,-0.8804,-0.8804,-0.8804,-0.8804,-0.8804,-0.8804,-0.8804,-0.8804,-0.8804,-0.8804,-0.8804,-0.8804,-0.8804,-0.8804,-0.8664,-0.8402,-0.794,-0.7779,-0.7542,-0.7241,-0.7228,-0.7439,-0.7899,-0.8716,-0.9259,-0.9498,-1.004,-1.0303,-1.0303,-1.0303,-1.0303,-0.3086,-0.3051,-0.2855,-0.2069,-0.1314,-0.0763,-0.0763,0.0,0.0,-0.0789,-0.0926,-0.0926,-0.0935,-0.1445,-0.1446,-0.0211,-0.0634,-0.1247,-0.1558,-0.1708,-0.2532,-0.4453,-0.4688,-0.511,-0.615,-0.6084,-0.5932,-0.5779,-0.5637,-0.5532,-0.5402,-0.5395,-0.5395,-0.5395,-0.5395,-0.5395,-0.5395,-0.5395,-0.5914,-0.6915,-0.7632,-0.8517,-0.953,-1.0224,-1.0385,-1.007,-0.976,-0.9472,-0.9211,-0.9164,-0.9004,-0.8831,-0.9051,-0.8998,-0.8804,-0.8804,-0.8804,-0.8804,-0.8804,-0.8804,-0.8982,-1.0141,-1.0115,-0.964,-0.964,-0.964,-0.9543,-0.8956,-0.8804,-0.8804,-0.8804,-0.8804,-0.8804,-0.8804,-0.8804,-0.8804,-0.8804,-0.8804,-0.8804,-0.8804,-0.8804,-0.8804,-0.8804,-0.8804,-0.8804,-0.8804,-0.8804,-0.8804,-0.8804,-0.8804,-0.8804,-0.8804,-0.8804,-0.8804,-0.8804,-0.8804,-0.8704,-0.8482,-0.8163,-0.7842,-0.7504,-0.7513,-0.7591,-0.7753,-0.8378,-0.8918,-0.9379,-1.0,-1.0303,-1.0303,-1.0303,-1.0303,-0.1791,-0.1461,-0.1266,-0.0512,0.023,0.0763,0.0763,0.0859,0.0,0.0,-0.0171,-0.0171,-0.0181,-0.0269,-0.0274,-0.0034,-0.0701,-0.1337,-0.157,-0.2228,-0.321,-0.4559,-0.4688,-0.5038,-0.5965,-0.5925,-0.5776,-0.5633,-0.5518,-0.5419,-0.5395,-0.5395,-0.5395,-0.5395,-0.5395,-0.5395,-0.5395,-0.5395,-0.621,-0.78,-0.7924,-0.8839,-1.039,-1.0239,-1.016,-1.0057,-0.9517,-0.9251,-0.9191,-0.8951,-0.8844,-0.8811,-0.8858,-0.8844,-0.8804,-0.8804,-0.8804,-0.8804,-0.8804,-0.8804,-0.8831,-0.9035,-0.9035,-0.8956,-0.8956,-0.8956,-0.8929,-0.8831,-0.8804,-0.8804,-0.8804,-0.8804,-0.8804,-0.8804,-0.8804,-0.8804,-0.8804,-0.8804,-0.8804,-0.8804,-0.8804,-0.8804,-0.8804,-0.8804,-0.8804,-0.8804,-0.8804,-0.8804,-0.8804,-0.8804,-0.8804,-0.8804,-0.8804,-0.8804,-0.8804,-0.8804,-0.8791,-0.8744,-0.847,-0.808,-0.7533,-0.7513,-0.7394,-0.7133,-0.8157,-0.8736,-0.8817,-0.9824,-1.0303,-1.0303,-1.0303,-1.0303,-0.128,-0.0821,-0.0209,0.1038,0.1279,0.1328,0.1848,0.1566,0.1125,0.0,0.0328,0.0,0.0,0.0,0.0,0.0,-0.0319,-0.1022,-0.2252,-0.2769,-0.3652,-0.5378,-0.5484,-0.5569,-0.5959,-0.5823,-0.5661,-0.5596,-0.5481,-0.5395,-0.5395,-0.5395,-0.5395,-0.5395,-0.5395,-0.5395,-0.5395,-0.5395,-0.6046,-0.7307,-0.7762,-0.8678,-0.9913,-1.0227,-1.0267,-1.0094,-0.9666,-0.9357,-0.9191,-0.8898,-0.8804,-0.8804,-0.8804,-0.8804,-0.8804,-0.8804,-0.8804,-0.8804,-0.8804,-0.8804,-0.8804,-0.8804,-0.8804,-0.8804,-0.8804,-0.8804,-0.8804,-0.8804,-0.8804,-0.8804,-0.8804,-0.8804,-0.8804,-0.8804,-0.8804,-0.8804,-0.8804,-0.8804,-0.8804,-0.8804,-0.8804,-0.8804,-0.8804,-0.8804,-0.8804,-0.8804,-0.8804,-0.8804,-0.8804,-0.8804,-0.8804,-0.8804,-0.8804,-0.8804,-0.8804,-0.8804,-0.8804,-0.8804,-0.8556,-0.8201,-0.7736,-0.7578,-0.735,-0.7006,-0.7835,-0.8419,-0.8695,-0.9478,-1.002,-1.0303,-1.0303,-1.0303,-0.0931,-0.0433,0.0354,0.1836,0.1866,0.1773,0.2774,0.2428,0.1791,0.1441,0.0844,0.0312,0.0031,0.0,0.0,0.0,0.0,-0.0728,-0.2761,-0.3066,-0.3841,-0.5945,-0.6047,-0.5925,-0.5892,-0.5722,-0.5576,-0.5538,-0.5463,-0.5395,-0.5395,-0.5395,-0.5395,-0.5395,-0.5395,-0.5395,-0.5395,-0.5395,-0.5848,-0.6719,-0.7567,-0.8452,-0.9338,-1.0206,-1.0432,-1.01,-0.9813,-0.9512,-0.9191,-0.8898,-0.8804,-0.8804,-0.8804,-0.8804,-0.8804,-0.8804,-0.8804,-0.8804,-0.8804,-0.8804,-0.8804,-0.8804,-0.8804,-0.8804,-0.8804,-0.8804,-0.8804,-0.8804,-0.8804,-0.8804,-0.8804,-0.8804,-0.8804,-0.8804,-0.8804,-0.8804,-0.8804,-0.8804,-0.8804,-0.8804,-0.8804,-0.8804,-0.8804,-0.8804,-0.8804,-0.8804,-0.8804,-0.8804,-0.8804,-0.8804,-0.8804,-0.8804,-0.8804,-0.8804,-0.8804,-0.8804,-0.8804,-0.8804,-0.8597,-0.8343,-0.8019,-0.7736,-0.7435,-0.7134,-0.7636,-0.8098,-0.8521,-0.9179,-0.9716,-1.0118,-1.0244,-1.0303,-0.0465,-0.0029,0.0237,0.1158,0.1775,0.2444,0.3638,0.3744,0.3246,0.1846,0.1533,0.1185,0.0193,0.0,0.0,0.0,0.0,-0.0691,-0.2651,-0.2909,-0.364,-0.5614,-0.5823,-0.5766,-0.5633,-0.5603,-0.5566,-0.5423,-0.5402,-0.5395,-0.5395,-0.5395,-0.5395,-0.5395,-0.5395,-0.5395,-0.5395,-0.5395,-0.5848,-0.6719,-0.7567,-0.8452,-0.9338,-1.0206,-1.0432,-1.01,-0.9813,-0.9512,-0.9191,-0.8898,-0.8804,-0.8804,-0.8804,-0.8804,-0.8804,-0.8804,-0.8804,-0.8804,-0.8804,-0.8804,-0.8804,-0.8804,-0.8804,-0.8804,-0.8804,-0.8804,-0.8804,-0.8804,-0.8804,-0.8804,-0.8804,-0.8804,-0.8804,-0.8804,-0.8804,-0.8804,-0.8804,-0.8804,-0.8804,-0.8804,-0.8804,-0.8804,-0.8804,-0.8804,-0.8804,-0.8804,-0.8804,-0.8804,-0.8804,-0.8804,-0.8804,-0.8804,-0.8804,-0.8804,-0.8804,-0.8804,-0.8804,-0.8804,-0.8791,-0.8644,-0.8382,-0.8056,-0.7749,-0.7464,-0.7745,-0.7912,-0.7953,-0.8999,-0.9518,-0.9558,-1.0059,-1.0303,-0.0142,0.0,0.0208,0.107,0.1403,0.197,0.3725,0.3604,0.2997,0.2518,0.1435,0.0485,0.0068,0.0,0.0,0.0,0.0,-0.0676,-0.2622,-0.2905,-0.3632,-0.5571,-0.5725,-0.5647,-0.5596,-0.5539,-0.5457,-0.5399,-0.5395,-0.5395,-0.5395,-0.5395,-0.5395,-0.5395,-0.5395,-0.5395,-0.5395,-0.5395,-0.5557,-0.5914,-0.7312,-0.8156,-0.8549,-0.9945,-1.0432,-1.01,-0.9813,-0.9512,-0.9191,-0.8898,-0.8804,-0.8804,-0.8804,-0.8804,-0.8804,-0.8804,-0.8804,-0.8804,-0.8804,-0.8804,-0.8804,-0.8804,-0.8804,-0.8804,-0.8804,-0.8804,-0.8804,-0.8804,-0.8804,-0.8804,-0.8804,-0.8804,-0.8804,-0.8804,-0.8804,-0.8804,-0.8804,-0.8804,-0.8804,-0.8804,-0.8804,-0.8804,-0.8804,-0.8804,-0.8804,-0.8804,-0.8804,-0.8804,-0.8804,-0.8804,-0.8804,-0.8804,-0.8804,-0.8804,-0.8804,-0.8804,-0.8804,-0.8804,-0.8804,-0.8677,-0.8409,-0.809,-0.7782,-0.7497,-0.7389,-0.753,-0.7899,-0.8635,-0.9179,-0.9518,-1.0059,-1.0303,-0.0199,-0.0203,-0.0207,0.0673,0.0,0.1566,0.3043,0.3029,0.2672,0.2528,0.1157,0.0,0.0,0.0,0.0,0.0,-0.0241,-0.0978,-0.2622,-0.3065,-0.3848,-0.5472,-0.5576,-0.5552,-0.5552,-0.5457,-0.5395,-0.5395,-0.5395,-0.5395,-0.5395,-0.5395,-0.5395,-0.5395,-0.5395,-0.5395,-0.5395,-0.5395,-0.5395,-0.5428,-0.6887,-0.76,-0.7632,-0.9295,-0.9871,-0.9558,-0.955,-0.9372,-0.9058,-0.8865,-0.8804,-0.8804,-0.8804,-0.8804,-0.8804,-0.8804,-0.8804,-0.8804,-0.8804,-0.8804,-0.8804,-0.8804,-0.8804,-0.8804,-0.8804,-0.8804,-0.8804,-0.8804,-0.8804,-0.8804,-0.8804,-0.8804,-0.8804,-0.8804,-0.8804,-0.8804,-0.8804,-0.8804,-0.8804,-0.8804,-0.8804,-0.8804,-0.8804,-0.8804,-0.8804,-0.8804,-0.8804,-0.8804,-0.8804,-0.8804,-0.8804,-0.8804,-0.8804,-0.8804,-0.8804,-0.8804,-0.8804,-0.8804,-0.8804,-0.8677,-0.8409,-0.809,-0.7782,-0.7497,-0.7174,-0.721,-0.7614,-0.8172,-0.8635,-0.9019,-0.9716,-1.004,-0.0676,-0.0647,-0.1096,-0.0214,0.0648,0.1325,0.1545,0.2165,0.2461,0.1736,0.075,0.0,0.0,0.0,0.0,0.0,-0.0722,-0.1624,-0.2554,-0.3447,-0.435,-0.5292,-0.5395,-0.5395,-0.5395,-0.5395,-0.5395,-0.5395,-0.5395,-0.5395,-0.5395,-0.5395,-0.5395,-0.5395,-0.5395,-0.5395,-0.5395,-0.5395,-0.5395,-0.5395,-0.6264,-0.6682,-0.6743,-0.8158,-0.8655,-0.8428,-0.8959,-0.9044,-0.8804,-0.8804,-0.8804,-0.8804,-0.8804,-0.8804,-0.8804,-0.8804,-0.8804,-0.8804,-0.8804,-0.8804,-0.8804,-0.8804,-0.8804,-0.8804,-0.8804,-0.8804,-0.8804,-0.8804,-0.8804,-0.8804,-0.8804,-0.8804,-0.8804,-0.8804,-0.8804,-0.8804,-0.8804,-0.8804,-0.8804,-0.8804,-0.8804,-0.8804,-0.8804,-0.8804,-0.8804,-0.8804,-0.8804,-0.8804,-0.8804,-0.8804,-0.8804,-0.8804,-0.8804,-0.8804,-0.8804,-0.8804,-0.8804,-0.8804,-0.8804,-0.8677,-0.8409,-0.809,-0.7789,-0.7497,-0.7174,-0.7006,-0.7,-0.76,-0.7899,-0.7919,-0.8999,-0.9498,-0.1767,-0.1847,-0.1925,-0.1009,-0.0655,-0.0341,0.0321,0.1114,0.1484,0.0632,0.022,0.0,0.0,0.0,0.0,0.0,-0.0744,-0.1623,-0.2581,-0.3447,-0.435,-0.5292,-0.5395,-0.5395,-0.5395,-0.5395,-0.5395,-0.5395,-0.5395,-0.5395,-0.5395,-0.5395,-0.5395,-0.5395,-0.5395,-0.5395,-0.5395,-0.5395,-0.5395,-0.5392,-0.5506,-0.5894,-0.6559,-0.8083,-0.8592,-0.8302,-0.8938,-0.9044,-0.8804,-0.8804,-0.8804,-0.8804,-0.8804,-0.8804,-0.8804,-0.8804,-0.8804,-0.8804,-0.8804,-0.8804,-0.8804,-0.8804,-0.8804,-0.8804,-0.8804,-0.8804,-0.8804,-0.8804,-0.8804,-0.8804,-0.8804,-0.8804,-0.8804,-0.8804,-0.8804,-0.8804,-0.8804,-0.8804,-0.8804,-0.8804,-0.8804,-0.8804,-0.8804,-0.8804,-0.8804,-0.8804,-0.8804,-0.8804,-0.8804,-0.8804,-0.8804,-0.8804,-0.8804,-0.8804,-0.8804,-0.8804,-0.8804,-0.8804,-0.8804,-0.8677,-0.8409,-0.8315,-0.802,-0.7497,-0.7404,-0.7235,-0.7,-0.76,-0.7899,-0.7912,-0.8614,-0.8938,-0.2567,-0.244,-0.2273,-0.1412,-0.0982,-0.0663,-0.011,0.0407,0.0631,0.0113,0.0,0.0,0.0,0.0,0.0,0.0,-0.1051,-0.2069,-0.2614,-0.3782,-0.4755,-0.5326,-0.5395,-0.5395,-0.5395,-0.5395,-0.5395,-0.5395,-0.5395,-0.5395,-0.5395,-0.5395,-0.5395,-0.5395,-0.5395,-0.5395,-0.5395,-0.5395,-0.5365,-0.527,-0.5143,-0.5318,-0.5773,-0.733,-0.7921,-0.7734,-0.8639,-0.8776,-0.8401,-0.8672,-0.8804,-0.8804,-0.8804,-0.8804,-0.8804,-0.8804,-0.8804,-0.8804,-0.8804,-0.8804,-0.8804,-0.8804,-0.8804,-0.8804,-0.8804,-0.8804,-0.8804,-0.8804,-0.8804,-0.8804,-0.8804,-0.8804,-0.8804,-0.8804,-0.8804,-0.8804,-0.8804,-0.8804,-0.8804,-0.8804,-0.8804,-0.8804,-0.8804,-0.8804,-0.8804,-0.8804,-0.8804,-0.8804,-0.8804,-0.8804,-0.8804,-0.8804,-0.8804,-0.8804,-0.8804,-0.8804,-0.8804,-0.8804,-0.8804,-0.8677,-0.8409,-0.8402,-0.8167,-0.7662,-0.7551,-0.7397,-0.7201,-0.7419,-0.753,-0.7551,-0.8131,-0.85,-0.323,-0.2826,-0.2559,-0.1644,-0.0691,0.0,0.0,0.0,0.0,0.0,0.0,0.0,0.0,0.0,0.0,0.0,-0.1509,-0.2687,-0.2686,-0.4251,-0.5395,-0.5395,-0.5395,-0.5395,-0.5395,-0.5395,-0.5395,-0.5395,-0.5395,-0.5395,-0.5395,-0.5395,-0.5395,-0.5395,-0.5395,-0.5395,-0.5395,-0.5395,-0.5284,-0.51,-0.5086,-0.4962,-0.4749,-0.6169,-0.6866,-0.7033,-0.8201,-0.8348,-0.7857,-0.854,-0.8804,-0.8804,-0.8804,-0.8804,-0.8804,-0.8804,-0.8804,-0.8804,-0.8804,-0.8804,-0.8804,-0.8804,-0.8804,-0.8804,-0.8804,-0.8804,-0.8804,-0.8804,-0.8804,-0.8804,-0.8804,-0.8804,-0.8804,-0.8804,-0.8804,-0.8804,-0.8804,-0.8804,-0.8804,-0.8804,-0.8804,-0.8804,-0.8804,-0.8804,-0.8804,-0.8804,-0.8804,-0.8804,-0.8804,-0.8804,-0.8804,-0.8804,-0.8804,-0.8804,-0.8804,-0.8804,-0.8804,-0.8804,-0.8804,-0.8691,-0.8449,-0.8442,-0.8263,-0.7912,-0.7698,-0.7567,-0.7491,-0.7194,-0.7026,-0.7021,-0.7551,-0.807,-0.438,-0.4516,-0.4383,-0.2659,-0.1094,0.0,0.0,0.0,0.0,0.0,0.0,0.0,0.0,0.0,0.0,0.0,-0.1517,-0.2696,-0.2713,-0.4251,-0.5395,-0.5395,-0.5395,-0.5395,-0.5395,-0.5395,-0.5395,-0.5395,-0.5395,-0.5395,-0.5395,-0.5395,-0.5395,-0.5395,-0.5395,-0.5395,-0.5395,-0.5395,-0.5284,-0.5096,-0.4985,-0.4867,-0.472,-0.5633,-0.659,-0.7556,-0.7827,-0.8182,-0.856,-0.8725,-0.8804,-0.8804,-0.8804,-0.8804,-0.8804,-0.8804,-0.8804,-0.8804,-0.8804,-0.8804,-0.8804,-0.8804,-0.8804,-0.8804,-0.8804,-0.8804,-0.8804,-0.8804,-0.8804,-0.8804,-0.8804,-0.8804,-0.8804,-0.8804,-0.8804,-0.8804,-0.8804,-0.8804,-0.8804,-0.8804,-0.8804,-0.8804,-0.8804,-0.8804,-0.8804,-0.8804,-0.8804,-0.8804,-0.8804,-0.8804,-0.8804,-0.8804,-0.8804,-0.8804,-0.8804,-0.8804,-0.8804,-0.8804,-0.8804,-0.8778,-0.8717,-0.8711,-0.847,-0.7919,-0.8096,-0.7966,-0.7513,-0.7424,-0.7248,-0.7,-0.7133,-0.7252,-0.4863,-0.4753,-0.4334,-0.3102,-0.1774,-0.0784,-0.0784,-0.035,0.0,0.0,0.0,0.0,0.0,0.0,0.0,0.0,-0.1509,-0.2711,-0.2711,-0.4251,-0.5395,-0.5395,-0.5395,-0.5395,-0.5395,-0.5395,-0.5395,-0.5395,-0.5395,-0.5395,-0.5395,-0.5395,-0.5395,-0.5395,-0.5395,-0.5358,-0.525,-0.525,-0.5138,-0.4918,-0.4847,-0.4728,-0.4639,-0.5329,-0.6023,-0.6686,-0.7396,-0.7723,-0.7803,-0.8507,-0.8804,-0.8804,-0.8804,-0.8804,-0.8804,-0.8804,-0.8804,-0.8804,-0.8804,-0.8804,-0.8804,-0.8804,-0.8804,-0.8804,-0.8804,-0.8804,-0.8804,-0.8804,-0.8804,-0.8804,-0.8804,-0.8804,-0.8804,-0.8804,-0.8804,-0.8804,-0.8804,-0.8804,-0.8804,-0.8804,-0.8804,-0.8804,-0.8804,-0.8804,-0.8804,-0.8804,-0.8804,-0.8804,-0.8804,-0.8804,-0.8804,-0.8804,-0.8804,-0.8804,-0.8804,-0.8804,-0.8804,-0.8804,-0.8804,-0.8804,-0.8804,-0.8804,-0.8664,-0.8332,-0.8363,-0.8241,-0.7926,-0.7779,-0.7609,-0.7433,-0.7301,-0.7386,-0.4955,-0.4455,-0.3768,-0.3426,-0.2461,-0.1607,-0.1607,-0.077,0.0,0.0,0.0,0.0,0.0,0.0,-0.0034,-0.0202,-0.161,-0.2744,-0.2911,-0.435,-0.5395,-0.5395,-0.5395,-0.5395,-0.5395,-0.5395,-0.5395,-0.5395,-0.5395,-0.5382,-0.5354,-0.5382,-0.5315,-0.512,-0.5153,-0.4997,-0.468,-0.482,-0.474,-0.4513,-0.4606,-0.4614,-0.4515,-0.5085,-0.5378,-0.5565,-0.6929,-0.7235,-0.6885,-0.8235,-0.8804,-0.8804,-0.8804,-0.8804,-0.8804,-0.8804,-0.8804,-0.8804,-0.8804,-0.8804,-0.8804,-0.8804,-0.8804,-0.8804,-0.8804,-0.8804,-0.8804,-0.8804,-0.8804,-0.8804,-0.8804,-0.8699,-0.8619,-0.8619,-0.8619,-0.8646,-0.8778,-0.8804,-0.8804,-0.8804,-0.8699,-0.8619,-0.8619,-0.8619,-0.8619,-0.8619,-0.8725,-0.8804,-0.8804,-0.8804,-0.8804,-0.8804,-0.8804,-0.8804,-0.8804,-0.8804,-0.8804,-0.8804,-0.8804,-0.8804,-0.8804,-0.8804,-0.8804,-0.8804,-0.8571,-0.8449,-0.8402,-0.813,-0.7959,-0.7899,-0.7669,-0.7819,-0.4731,-0.4356,-0.4025,-0.4269,-0.2956,-0.1607,-0.1607,-0.077,0.0,0.0,0.0,0.0,0.0,0.0,-0.0236,-0.1006,-0.2009,-0.2978,-0.3713,-0.4722,-0.5395,-0.5395,-0.5395,-0.5395,-0.5395,-0.5395,-0.5395,-0.5395,-0.5395,-0.5337,-0.5137,-0.532,-0.4966,-0.403,-0.4126,-0.3796,-0.3045,-0.3659,-0.3887,-0.3748,-0.427,-0.4508,-0.4491,-0.4598,-0.4948,-0.5542,-0.6394,-0.7047,-0.7616,-0.8454,-0.8804,-0.8804,-0.8804,-0.8804,-0.8804,-0.8804,-0.8804,-0.8804,-0.8804,-0.8804,-0.8804,-0.8804,-0.8804,-0.8804,-0.8804,-0.8804,-0.8804,-0.8804,-0.8804,-0.8804,-0.8804,-0.8321,-0.7857,-0.7857,-0.7857,-0.8023,-0.8672,-0.8804,-0.8804,-0.8804,-0.8289,-0.7857,-0.7857,-0.7857,-0.7857,-0.7857,-0.8401,-0.8804,-0.8804,-0.8804,-0.8804,-0.8804,-0.8804,-0.8804,-0.8804,-0.8804,-0.8804,-0.8804,-0.8804,-0.8804,-0.8804,-0.8804,-0.8804,-0.8804,-0.8771,-0.8624,-0.8402,-0.8362,-0.8183,-0.7905,-0.7866,-0.7893,-0.4867,-0.4868,-0.4889,-0.5261,-0.4291,-0.3074,-0.2572,-0.1652,-0.0713,-0.011,0.0,0.0,0.0,0.0,-0.0269,-0.1173,-0.2075,-0.3011,-0.3882,-0.4821,-0.5395,-0.5395,-0.5395,-0.5395,-0.5395,-0.5284,-0.5267,-0.5388,-0.5238,-0.5118,-0.51,-0.4707,-0.4288,-0.3813,-0.3462,-0.3054,-0.2599,-0.2917,-0.3179,-0.3447,-0.4157,-0.4491,-0.4491,-0.4491,-0.4653,-0.5003,-0.6122,-0.6777,-0.7182,-0.8321,-0.8804,-0.8804,-0.8804,-0.8804,-0.8804,-0.8804,-0.8804,-0.8804,-0.8804,-0.8804,-0.8804,-0.8804,-0.8804,-0.8804,-0.8804,-0.8804,-0.8804,-0.8804,-0.8804,-0.8699,-0.8295,-0.7937,-0.7589,-0.7182,-0.7396,-0.7777,-0.8103,-0.8507,-0.8804,-0.8804,-0.8209,-0.783,-0.8235,-0.7969,-0.783,-0.8262,-0.8593,-0.8804,-0.8804,-0.8804,-0.8804,-0.8804,-0.8804,-0.8804,-0.8804,-0.8427,-0.8374,-0.8778,-0.8401,-0.8374,-0.8778,-0.8804,-0.8804,-0.8804,-0.8804,-0.8744,-0.8617,-0.8617,-0.855,-0.8392,-0.8257,-0.8176,-0.4918,-0.5131,-0.5378,-0.5755,-0.511,-0.4126,-0.3241,-0.226,-0.1217,-0.0217,0.0,-0.0069,-0.0304,-0.0135,-0.037,-0.1475,-0.2242,-0.3078,-0.4184,-0.4957,-0.5395,-0.5395,-0.5395,-0.5395,-0.5395,-0.5257,-0.522,-0.533,-0.5098,-0.4893,-0.4733,-0.4136,-0.36,-0.3134,-0.2601,-0.2205,-0.1854,-0.2061,-0.2544,-0.3345,-0.3929,-0.4322,-0.4491,-0.4491,-0.4491,-0.457,-0.5991,-0.6588,-0.6723,-0.8182,-0.8804,-0.8804,-0.8804,-0.8804,-0.8804,-0.8804,-0.8804,-0.8804,-0.8804,-0.8804,-0.8804,-0.8804,-0.8804,-0.8804,-0.8804,-0.8804,-0.8804,-0.8804,-0.8804,-0.8619,-0.7883,-0.7563,-0.7235,-0.6502,-0.6745,-0.7283,-0.7857,-0.8401,-0.8804,-0.8804,-0.8209,-0.7883,-0.8427,-0.8076,-0.7883,-0.8427,-0.8672,-0.8804,-0.8804,-0.8804,-0.8804,-0.8804,-0.8804,-0.8804,-0.8804,-0.8295,-0.8209,-0.8752,-0.8289,-0.8235,-0.8778,-0.8804,-0.8804,-0.8804,-0.8804,-0.8804,-0.8804,-0.8804,-0.8804,-0.8804,-0.8584,-0.8509,-0.4667,-0.4826,-0.5016,-0.5354,-0.4708,-0.3844,-0.308,-0.2072,-0.1053,-0.0176,0.0,-0.0236,-0.1074,-0.0572,-0.0572,-0.2344,-0.2678,-0.3311,-0.509,-0.5362,-0.5395,-0.5395,-0.5395,-0.5395,-0.5395,-0.5388,-0.5324,-0.512,-0.5096,-0.4686,-0.372,-0.3758,-0.3008,-0.1299,-0.1327,-0.0974,-0.0148,-0.0827,-0.1928,-0.34,-0.3428,-0.3818,-0.4491,-0.4491,-0.4491,-0.457,-0.5991,-0.6588,-0.6723,-0.8182,-0.8804,-0.8804,-0.8804,-0.8804,-0.8804,-0.8804,-0.8804,-0.8804,-0.8804,-0.8804,-0.8804,-0.8804,-0.8804,-0.8804,-0.8804,-0.8804,-0.8804,-0.8804,-0.8804,-0.8619,-0.7883,-0.7182,-0.6475,-0.5733,-0.5597,-0.619,-0.8289,-0.8778,-0.8804,-0.8804,-0.8209,-0.7723,-0.775,-0.7723,-0.7723,-0.775,-0.8348,-0.8804,-0.8804,-0.8804,-0.8804,-0.8804,-0.8804,-0.8804,-0.8804,-0.8752,-0.8752,-0.8804,-0.8752,-0.8752,-0.8804,-0.8804,-0.8804,-0.8804,-0.8804,-0.8804,-0.8804,-0.8804,-0.8804,-0.8804,-0.8791,-0.8784,-0.4679,-0.4731,-0.4843,-0.5138,-0.5061,-0.4518,-0.3094,-0.253,-0.1887,-0.0316,-0.0446,-0.094,-0.124,-0.104,-0.1442,-0.3245,-0.3547,-0.3982,-0.5226,-0.5395,-0.5395,-0.5395,-0.5395,-0.5395,-0.5395,-0.527,-0.5233,-0.5277,-0.5013,-0.451,-0.3778,-0.3115,-0.2255,-0.1145,-0.0676,-0.0321,0.0,-0.0732,-0.1619,-0.2649,-0.3121,-0.3735,-0.4491,-0.4491,-0.4491,-0.457,-0.5991,-0.6588,-0.6723,-0.8182,-0.8804,-0.8804,-0.8804,-0.8804,-0.8804,-0.8804,-0.8804,-0.8804,-0.8804,-0.8804,-0.8804,-0.8804,-0.8804,-0.8804,-0.8804,-0.8804,-0.8804,-0.8804,-0.8454,-0.791,-0.7182,-0.6443,-0.5814,-0.5569,-0.5869,-0.6421,-0.7208,-0.8129,-0.8804,-0.8804,-0.8209,-0.7857,-0.8321,-0.8017,-0.7857,-0.8348,-0.8235,-0.8103,-0.8103,-0.767,-0.7402,-0.7402,-0.7402,-0.7402,-0.7402,-0.7402,-0.7589,-0.8076,-0.8103,-0.8315,-0.8785,-0.8804,-0.8804,-0.8804,-0.8804,-0.8804,-0.8804,-0.8804,-0.8804,-0.8804,-0.8804,-0.8804,-0.4614,-0.4641,-0.4684,-0.4955,-0.5098,-0.481,-0.3438,-0.294,-0.2419,-0.1172,-0.1122,-0.1474,-0.2108,-0.2209,-0.2609,-0.3813,-0.4015,-0.4317,-0.5259,-0.5395,-0.5395,-0.5395,-0.5123,-0.4921,-0.4921,-0.4804,-0.477,-0.4849,-0.4808,-0.4367,-0.3417,-0.2611,-0.176,-0.0752,-0.0261,0.0,0.0,-0.0476,-0.109,-0.1842,-0.2565,-0.3345,-0.4098,-0.4377,-0.4491,-0.457,-0.5741,-0.6367,-0.6723,-0.8182,-0.8804,-0.8804,-0.8804,-0.8804,-0.8804,-0.8804,-0.8804,-0.8804,-0.8804,-0.8804,-0.8804,-0.8804,-0.8804,-0.8804,-0.8804,-0.8804,-0.8804,-0.8804,-0.8262,-0.7536,-0.6777,-0.5878,-0.5164,-0.5164,-0.571,-0.6231,-0.6231,-0.7584,-0.8725,-0.848,-0.8235,-0.8235,-0.8725,-0.8401,-0.8235,-0.8725,-0.8182,-0.7696,-0.7696,-0.7047,-0.6588,-0.6588,-0.6588,-0.6588,-0.6588,-0.6588,-0.6912,-0.7643,-0.7696,-0.8023,-0.8778,-0.8804,-0.8804,-0.8804,-0.8804,-0.8804,-0.8804,-0.8804,-0.8804,-0.8804,-0.8804,-0.8804,0.0,0.0,0.0,-0.483,-0.4799,-0.4565,-0.4091,-0.3236,-0.2557,-0.2659,-0.2007,-0.1907,-0.368,-0.4015,-0.4048,-0.4048,-0.4048,-0.435,-0.5259,-0.5395,-0.5395,-0.5395,-0.4586,-0.4015,-0.4048,-0.4015,-0.3967,-0.3852,-0.4467,-0.4183,-0.2585,-0.2244,-0.1452,0.0,0.0028,0.0028,0.0,0.0,-0.0364,-0.1118,-0.1842,-0.2591,-0.3345,-0.4125,-0.4491,-0.4546,-0.5218,-0.5923,-0.6723,-0.8156,-0.8785,-0.8804,-0.8804,-0.8804,-0.8804,-0.8804,-0.8804,-0.8804,-0.8804,-0.8804,-0.8804,-0.8804,-0.8804,-0.8804,-0.8804,-0.8804,-0.8804,-0.8804,-0.8262,-0.7482,-0.6723,-0.5527,-0.4491,-0.4491,-0.5003,-0.5487,-0.5487,-0.7197,-0.8513,-0.7803,-0.8235,-0.8725,-0.8725,-0.8725,-0.8725,-0.8725,-0.8103,-0.7637,-0.7637,-0.6993,-0.6534,-0.6534,-0.6534,-0.6534,-0.6534,-0.6588,-0.6912,-0.7616,-0.7696,-0.8049,-0.8778,-0.8804,-0.8804,-0.8804,-0.8804,-0.8804,-0.8804,-0.8804,-0.8804,-0.8804,-0.8804,-0.8804,-0.4491,0.0,0.0,0.0,0.0,0.0,-0.3693,-0.3385,-0.3168,-0.265,-0.2857,-0.3296,-0.39,-0.4553,-0.5024,-0.5024,-0.5024,-0.509,-0.5362,-0.5395,-0.5395,-0.5395,-0.4586,-0.4284,-0.4954,-0.4384,-0.4199,-0.469,-0.4343,-0.3638,-0.2554,-0.0795,0.0363,0.0783,0.0783,0.0532,0.0,0.0,-0.0364,-0.1118,-0.1842,-0.2619,-0.34,-0.4153,-0.4491,-0.4546,-0.5218,-0.5923,-0.6669,-0.7616,-0.8321,-0.8804,-0.8804,-0.8804,-0.8804,-0.8804,-0.8804,-0.8804,-0.8804,-0.8804,-0.8804,-0.8804,-0.8804,-0.8804,-0.8804,-0.8804,-0.8804,-0.8804,-0.7883,-0.6615,-0.5391,-0.4791,-0.4491,-0.4491,-0.5003,-0.5378,-0.4869,-0.6068,-0.7155,-0.6939,-0.7074,-0.7208,-0.7208,-0.7208,-0.7208,-0.7208,-0.6578,-0.6113,-0.6113,-0.5496,-0.5089,-0.5089,-0.5089,-0.5089,-0.5089,-0.6018,-0.6696,-0.6885,-0.791,-0.8593,-0.8778,-0.8804,-0.8804,-0.8804,-0.8804,-0.8804,-0.8804,-0.8804,-0.8804,-0.8804,-0.8804,-0.8804,-0.4113,-0.3984,-0.4027,-0.4113,0.0,0.0,-0.398,-0.3719,-0.3537,-0.3563,-0.3688,-0.3977,-0.4494,-0.5024,-0.5395,-0.5395,-0.5719,-0.5943,-0.5943,-0.5943,-0.5943,-0.5943,-0.4806,-0.4207,-0.4752,-0.3941,-0.3691,-0.4492,-0.4042,-0.3059,-0.1551,0.0169,0.109,0.109,0.109,0.0755,0.0,0.0,-0.0224,-0.0643,-0.1396,-0.2148,-0.2926,-0.3649,-0.4181,-0.4515,-0.4924,-0.5655,-0.6642,-0.7074,-0.7857,-0.8804,-0.8804,-0.8804,-0.8804,-0.8804,-0.8804,-0.8804,-0.8804,-0.8804,-0.8804,-0.8804,-0.8804,-0.8804,-0.8804,-0.8804,-0.8725,-0.8427,-0.7283,-0.5878,-0.4791,-0.4491,-0.4491,-0.4491,-0.4787,-0.4976,-0.4598,-0.5144,-0.5796,-0.6091,-0.6394,-0.6588,-0.6588,-0.6588,-0.6588,-0.6588,-0.5982,-0.5515,-0.5515,-0.4924,-0.4491,-0.4491,-0.4491,-0.4491,-0.4491,-0.5254,-0.585,-0.6118,-0.723,-0.8023,-0.8321,-0.8646,-0.8804,-0.8804,-0.8804,-0.8646,-0.8348,-0.8348,-0.8348,-0.8342,-0.8646,-0.8639,-0.3581,-0.3324,-0.3347,-0.3435,-0.3392,0.0,-0.4511,-0.4115,-0.3838,-0.484,-0.4445,-0.4194,-0.515,-0.5344,-0.5344,-0.5344,-0.6098,-0.6665,-0.6682,-0.6687,-0.6687,-0.6687,-0.5088,-0.4033,-0.4148,-0.3242,-0.3025,-0.3861,-0.356,-0.2268,0.0111,0.0948,0.1341,0.1341,0.1257,0.0866,0.014,0.0028,0.0,0.0,-0.0755,-0.148,-0.2232,-0.2954,-0.3732,-0.4491,-0.4491,-0.5254,-0.6475,-0.6561,-0.7477,-0.8804,-0.8804,-0.8804,-0.8778,-0.8699,-0.8725,-0.8778,-0.8699,-0.8725,-0.8804,-0.8804,-0.8804,-0.8778,-0.8699,-0.8672,-0.8507,-0.7691,-0.6578,-0.5464,-0.4704,-0.4491,-0.4491,-0.4491,-0.4491,-0.4491,-0.4491,-0.4491,-0.468,-0.5273,-0.5928,-0.6372,-0.6372,-0.6372,-0.6372,-0.6372,-0.5819,-0.5378,-0.5378,-0.4869,-0.4491,-0.4491,-0.4491,-0.4491,-0.4491,-0.457,-0.4869,-0.546,-0.6199,-0.6939,-0.767,-0.8321,-0.8672,-0.8672,-0.8593,-0.8182,-0.745,-0.753,-0.7616,-0.7723,-0.8289,-0.8235,-0.3775,-0.3528,-0.3361,-0.265,-0.3002,0.0,-0.3672,-0.4072,-0.45,-0.4732,-0.4657,-0.4611,-0.4945,-0.5006,-0.5006,-0.5006,-0.5817,-0.6521,-0.6665,-0.6687,-0.6687,-0.6687,-0.51,-0.4312,-0.5057,-0.4265,-0.3975,-0.4633,-0.2766,-0.0615,0.1644,0.2508,0.2926,0.2871,0.2286,0.1619,0.0895,0.0308,0.0,0.0,-0.0755,-0.148,-0.2232,-0.2954,-0.3732,-0.4491,-0.4491,-0.4952,-0.576,-0.6367,-0.7477,-0.8804,-0.8804,-0.8804,-0.8725,-0.8129,-0.8295,-0.8725,-0.8129,-0.8295,-0.8804,-0.8804,-0.8804,-0.8699,-0.8103,-0.791,-0.7637,-0.6303,-0.6145,-0.6095,-0.4818,-0.4491,-0.4491,-0.4491,-0.4491,-0.4491,-0.4491,-0.4491,-0.4546,-0.468,-0.4818,-0.4901,-0.4901,-0.4901,-0.4901,-0.4901,-0.4787,-0.4704,-0.4704,-0.457,-0.4491,-0.4491,-0.4491,-0.4491,-0.4491,-0.5003,-0.5351,-0.5487,-0.6199,-0.6939,-0.767,-0.783,-0.791,-0.791,-0.7343,-0.6664,-0.5923,-0.6524,-0.7128,-0.7696,-0.7235,-0.7262,-0.3966,-0.3378,-0.2938,-0.247,-0.2342,0.0,0.0,-0.3429,-0.4041,-0.4204,-0.4477,-0.4758,-0.4951,-0.4935,-0.4887,-0.4887,-0.6006,-0.6766,-0.6492,-0.6953,-0.734,-0.734,-0.576,-0.4842,-0.5359,-0.4495,-0.3839,-0.371,-0.2087,-0.0139,0.2091,0.2926,0.3345,0.3345,0.2593,0.1842,0.1118,0.0364,0.0,0.0,-0.0755,-0.148,-0.2232,-0.301,-0.3763,-0.4491,-0.4491,-0.4869,-0.5538,-0.59,-0.6929,-0.8289,-0.8646,-0.8804,-0.8725,-0.7969,-0.7943,-0.8209,-0.783,-0.7937,-0.8315,-0.8672,-0.8804,-0.8725,-0.8374,-0.7723,-0.6907,-0.5814,-0.5519,-0.5391,-0.468,-0.4491,-0.4491,-0.4491,-0.4491,-0.4491,-0.4491,-0.4491,-0.4491,-0.4491,-0.4491,-0.4491,-0.4491,-0.4491,-0.4491,-0.4491,-0.4491,-0.4491,-0.4491,-0.4491,-0.4491,-0.4491,-0.4491,-0.4491,-0.4491,-0.4814,-0.5003,-0.5003,-0.5655,-0.6389,-0.7128,-0.7155,-0.7155,-0.7155,-0.6416,-0.5869,-0.5515,-0.5546,-0.5905,-0.6605,-0.661,-0.661,-0.4152,-0.3216,-0.2481,-0.2316,-0.1705,-0.1289,0.0,0.0,0.0,-0.3649,-0.4109,-0.4572,-0.4928,-0.4908,-0.483,-0.483,-0.6087,-0.6841,-0.6253,-0.7021,-0.7639,-0.7639,-0.6246,-0.5294,-0.5347,-0.4528,-0.3616,-0.2615,-0.1505,0.0028,0.2091,0.3037,0.3566,0.3624,0.2704,0.1925,0.1312,0.0448,0.0,0.0,-0.0755,-0.148,-0.2232,-0.3037,-0.379,-0.4491,-0.4491,-0.4814,-0.5324,-0.546,-0.6195,-0.7364,-0.8235,-0.8672,-0.8699,-0.7803,-0.767,-0.7883,-0.7589,-0.767,-0.8023,-0.8613,-0.8699,-0.8566,-0.8427,-0.753,-0.6426,-0.5546,-0.5003,-0.4653,-0.4543,-0.4491,-0.4491,-0.4491,-0.4491,-0.4491,-0.4491,-0.4491,-0.4491,-0.4491,-0.4491,-0.4491,-0.4491,-0.4491,-0.4491,-0.4491,-0.4491,-0.4491,-0.4491,-0.4491,-0.4491,-0.4491,-0.4491,-0.4491,-0.4491,-0.4491,-0.4491,-0.4491,-0.5003,-0.5628,-0.6367,-0.6394,-0.6394,-0.6394,-0.5683,-0.53,-0.53,-0.4759,-0.4924,-0.5733,-0.6041,-0.6014,-0.4412,-0.344,-0.2469,-0.1632,-0.1341,-0.1254,-0.1241,0.0,-0.2752,-0.3314,0.0,-0.3766,-0.4447,0.0,0.0,-0.4542,-0.5438,-0.6109,-0.6023,-0.624,-0.6406,-0.6406,-0.5661,-0.512,-0.5123,-0.4902,-0.4189,-0.2785,-0.1091,0.0553,0.2119,0.3566,0.4377,0.4377,0.2954,0.2147,0.2063,0.0699,0.0,0.0,-0.0755,-0.148,-0.2232,-0.3037,-0.379,-0.4491,-0.4491,-0.4546,-0.4653,-0.5242,-0.5597,-0.5896,-0.7283,-0.8209,-0.8619,-0.7235,-0.7563,-0.848,-0.7182,-0.7589,-0.8699,-0.8778,-0.8348,-0.7696,-0.7047,-0.6723,-0.6317,-0.4979,-0.4976,-0.5246,-0.4653,-0.4491,-0.4491,-0.4491,-0.4491,-0.4491,-0.4491,-0.4491,-0.4491,-0.4491,-0.4491,-0.4491,-0.4491,-0.4491,-0.4491,-0.4491,-0.4491,-0.4491,-0.4491,-0.4491,-0.4491,-0.4491,-0.4491,-0.4491,-0.4491,-0.4491,-0.4491,-0.4491,-0.457,-0.4924,-0.5597,-0.5624,-0.5624,-0.5624,-0.4948,-0.4625,-0.4625,-0.4546,-0.5171,-0.6448,-0.5281,-0.5363,-0.4209,-0.2998,-0.1787,-0.1383,-0.0934,-0.0546,-0.0471,-0.1089,-0.1913,-0.2725,0.0,0.0,0.0,0.0,0.0,0.0,-0.5171,-0.5573,-0.519,-0.5502,-0.5884,-0.6164,-0.5479,-0.5161,-0.5586,-0.5494,-0.4975,-0.3932,-0.1476,0.047,0.1501,0.3423,0.4491,0.4491,0.301,0.2202,0.2202,0.0727,0.0,-0.0028,-0.1174,-0.1898,-0.2232,-0.3483,-0.4211,-0.4491,-0.4491,-0.4491,-0.4515,-0.4814,-0.5136,-0.5569,-0.6195,-0.6875,-0.7396,-0.6335,-0.6632,-0.7423,-0.6804,-0.7289,-0.8156,-0.8156,-0.7937,-0.7477,-0.6308,-0.5955,-0.5764,-0.4791,-0.4708,-0.4866,-0.457,-0.4491,-0.4491,-0.4491,-0.4491,-0.4491,-0.4491,-0.4491,-0.4491,-0.4491,-0.4491,-0.4491,-0.4491,-0.4491,-0.4491,-0.4491,-0.4491,-0.4491,-0.4491,-0.4491,-0.4491,-0.4491,-0.4491,-0.4491,-0.4491,-0.4491,-0.4491,-0.4491,-0.4869,-0.5218,-0.5483,-0.59,-0.5928,-0.5515,-0.5218,-0.4893,-0.4491,-0.4491,-0.5007,-0.5928,-0.4952,-0.5034,-0.4172,-0.2743,-0.1286,-0.1296,-0.0641,0.0,0.0,-0.0402,-0.1055,-0.1926,-0.2634,0.0,0.0,0.0,-0.46,0.0,0.0,-0.5112,-0.4577,-0.4921,-0.5342,-0.5685,-0.5385,-0.5378,-0.5958,-0.5881,-0.5506,-0.4743,-0.1968,0.0111,0.1054,0.3056,0.4294,0.4491,0.301,0.2202,0.2202,0.0727,0.0,-0.0028,-0.1284,-0.2009,-0.2259,-0.3566,-0.4294,-0.4491,-0.4491,-0.4491,-0.4491,-0.4491,-0.4787,-0.5218,-0.5218,-0.5546,-0.6014,-0.5846,-0.6281,-0.6912,-0.6912,-0.7262,-0.767,-0.745,-0.7396,-0.7149,-0.5896,-0.5515,-0.5351,-0.4677,-0.4491,-0.4491,-0.4491,-0.4491,-0.4491,-0.4491,-0.4491,-0.4491,-0.4491,-0.4491,-0.4491,-0.4491,-0.4491,-0.4491,-0.4491,-0.4491,-0.4491,-0.4491,-0.4491,-0.4491,-0.4491,-0.4491,-0.4491,-0.4491,-0.4491,-0.4491,-0.4491,-0.4491,-0.4491,-0.4491,-0.4948,-0.5218,-0.5218,-0.5741,-0.5769,-0.5246,-0.5406,-0.5273,-0.4787,-0.4787,-0.503,-0.5483,-0.4814,-0.4869,-0.4476,-0.2932,-0.1311,-0.1301,-0.0631,0.0,0.0,-0.0029,-0.0235,-0.0998,-0.1892,-0.2759,-0.3496,-0.4321,0.0,0.0,0.0,0.0,0.0,-0.4515,-0.455,-0.4556,-0.528,-0.5823,-0.5976,-0.5881,-0.5506,-0.4743,-0.2454,-0.0443,0.1026,0.2585,0.3763,0.4487,0.301,0.2202,0.2202,0.0727,0.0,0.0,-0.0783,-0.1507,-0.2232,-0.2982,-0.3763,-0.4491,-0.4491,-0.4491,-0.4491,-0.4491,-0.4519,-0.4543,-0.4543,-0.4546,-0.4736,-0.6068,-0.702,-0.767,-0.767,-0.767,-0.7589,-0.6858,-0.6642,-0.6507,-0.5733,-0.5515,-0.5351,-0.4677,-0.4491,-0.4491,-0.4491,-0.4491,-0.4491,-0.4491,-0.4491,-0.4491,-0.4491,-0.4491,-0.4491,-0.4491,-0.4491,-0.4491,-0.4491,-0.4491,-0.4491,-0.4491,-0.4491,-0.4491,-0.4491,-0.4491,-0.4491,-0.4491,-0.4491,-0.4491,-0.4491,-0.4491,-0.4491,-0.4491,-0.4515,-0.4543,-0.4543,-0.4546,-0.4546,-0.4543,-0.5164,-0.5483,-0.546,-0.546,-0.5487,-0.5483,-0.4814,-0.4869,-0.2583,-0.1435,-0.0439,-0.0435,-0.0231,0.0,0.0,0.0,-0.0206,-0.094,-0.1835,-0.2734,-0.347,-0.4302,0.0,0.0,0.0,0.0,0.0,-0.4491,-0.4491,-0.4491,-0.5163,-0.5609,-0.5672,-0.5621,-0.5496,-0.5238,-0.2672,-0.0665,0.0332,0.2382,0.3863,0.4613,0.317,0.2393,0.2393,0.0792,0.0,-0.0028,-0.1229,-0.1952,-0.2232,-0.3511,-0.4236,-0.4491,-0.4491,-0.4491,-0.4491,-0.4491,-0.4491,-0.4491,-0.4491,-0.4491,-0.4546,-0.5034,-0.5655,-0.6303,-0.6799,-0.6966,-0.6853,-0.6118,-0.5869,-0.5737,-0.5058,-0.4842,-0.4787,-0.457,-0.4491,-0.4491,-0.4491,-0.4491,-0.4491,-0.4491,-0.4491,-0.4491,-0.4491,-0.4491,-0.4491,-0.4491,-0.4491,-0.4491,-0.4491,-0.4491,-0.4491,-0.4491,-0.4491,-0.4491,-0.4491,-0.4491,-0.4491,-0.4491,-0.4491,-0.4491,-0.4491,-0.4491,-0.4491,-0.4491,-0.4491,-0.4704,-0.5136,-0.5632,-0.566,-0.5164,-0.6335,-0.6465,-0.5515,-0.5515,-0.5515,-0.5483,-0.4814,-0.4869,-0.1588,-0.0709,0.0,0.0,0.0,0.0,0.0,0.0,-0.0123,-0.0609,-0.143,-0.2315,-0.3137,-0.3958,0.0,0.0,0.0,0.0,0.0,-0.4491,-0.4491,-0.4491,-0.5081,-0.5515,-0.5515,-0.5515,-0.5515,-0.5515,-0.3239,-0.133,-0.0055,0.1774,0.3363,0.4662,0.3282,0.2492,0.2492,0.0825,0.0,-0.0028,-0.1229,-0.1952,-0.2232,-0.3511,-0.4236,-0.4491,-0.4491,-0.4491,-0.4491,-0.4491,-0.4491,-0.4491,-0.4491,-0.4491,-0.4515,-0.4759,-0.53,-0.5923,-0.6145,-0.6199,-0.6091,-0.5382,-0.5136,-0.5058,-0.4625,-0.4491,-0.4491,-0.4491,-0.4491,-0.4491,-0.4491,-0.4491,-0.4491,-0.4491,-0.4491,-0.4491,-0.4491,-0.4491,-0.4491,-0.4491,-0.4491,-0.4491,-0.4491,-0.4491,-0.4491,-0.4491,-0.4491,-0.4491,-0.4491,-0.4491,-0.4491,-0.4491,-0.4491,-0.4491,-0.4491,-0.4491,-0.4491,-0.4491,-0.4491,-0.4704,-0.5136,-0.5605,-0.5632,-0.5164,-0.6303,-0.6578,-0.59,-0.59,-0.59,-0.5869,-0.5167,-0.4948]}]]